[[[{"header":{"parameterUnit":"kt","parameterCategory":2,"dx":1,"dy":1,"la1":29.587661999999998,"la2":31.0,"lo1":-88.76705300000003,"lo2":-86.6583820000003,"nx":115,"ny":88,"refTime":"2022-10-13T12:00:00:Z","depth":0,"parameterNumber":1,"parameterNumberName":"U-component_of_WINDS"},"data":[16.7352,16.7352,16.7352,16.7352,16.7352,16.7352,16.9062,17.168,17.2221,17.3947,17.6183,17.6924,17.7298,17.7298,17.7298,17.7298,17.7298,17.7298,17.7298,17.7298,17.7298,17.7298,17.7298,17.7298,17.7298,17.7298,17.7298,17.7298,17.7298,17.7298,17.7298,17.7298,17.7298,17.7298,17.7298,17.7298,17.7298,17.7298,17.7298,17.7298,17.7298,17.7298,17.7298,17.7298,17.7298,17.7298,17.7298,17.7298,17.7298,17.7522,17.8106,17.8489,17.893,17.937,17.9772,17.9971,17.999,17.9744,17.9557,17.8785,17.7596,17.5547,17.4004,17.2562,17.1272,17.0514,16.9907,16.9907,16.9907,16.9907,16.9907,16.9907,16.9893,17.0269,17.0224,17.1113,17.1664,17.1987,17.2341,17.2867,17.3616,17.4407,17.4931,17.5519,17.6377,17.7187,17.7268,17.8,17.8151,17.8493,17.8766,17.9036,17.9378,17.9729,17.9957,17.9957,17.9957,17.9957,17.9957,17.9957,17.9957,17.9957,17.9881,17.9881,17.9881,17.935,17.897,17.8363,17.859,17.8287,17.8894,17.9198,17.8818,17.8438,17.7907,16.7352,16.7352,16.7352,16.7352,16.7352,16.7352,16.8474,17.0334,17.1773,17.3499,17.5062,17.6625,17.7223,17.7298,17.7298,17.7298,17.7298,17.7298,17.7298,17.7298,17.7298,17.7298,17.7298,17.7298,17.7298,17.7298,17.7298,17.7298,17.7298,17.7298,17.7298,17.7298,17.7298,17.7298,17.7298,17.7298,17.7298,17.7298,17.7298,17.7298,17.7298,17.7298,17.7298,17.7298,17.7298,17.7298,17.7298,17.7298,17.7298,17.7597,17.8039,17.8451,17.8976,17.9462,17.9809,17.9957,17.9957,17.9998,17.9885,17.9557,17.8453,17.7163,17.5623,17.3941,17.2272,17.1133,17.021,16.9907,16.9907,16.9907,16.9907,16.9907,16.9907,17.0016,16.9637,16.9672,16.9882,17.0062,17.0436,17.0824,17.1907,17.3114,17.349,17.3736,17.4618,17.5765,17.6497,17.7379,17.8012,17.8333,17.8633,17.8951,17.897,17.9426,17.9957,17.9957,17.9957,17.9957,17.9957,17.9957,17.9881,17.9501,17.935,17.9426,17.8742,17.7907,17.7451,17.7224,17.6388,17.5781,17.6388,17.6844,17.6768,17.6844,17.6312,16.7352,16.7352,16.7352,16.7352,16.7352,16.7352,16.8325,17.0035,17.169,17.2819,17.3648,17.5959,17.7298,17.7298,17.7298,17.7298,17.7298,17.7298,17.7298,17.7298,17.7298,17.7298,17.7298,17.7298,17.7298,17.7298,17.7298,17.7298,17.7298,17.7298,17.7298,17.7298,17.7298,17.7298,17.7298,17.7298,17.7298,17.7298,17.7298,17.7298,17.7298,17.7298,17.7298,17.7298,17.7298,17.7298,17.7298,17.7298,17.7298,17.7522,17.7896,17.8301,17.8993,17.9606,17.9942,17.9957,17.9957,18.0022,17.999,17.9678,17.9101,17.7865,17.648,17.4752,17.3082,17.2247,17.1327,16.9907,16.9907,16.9907,16.9907,16.9907,16.9907,16.9919,16.9617,16.941,16.9605,16.956,16.9567,17.0054,17.0852,17.1948,17.243,17.2689,17.3637,17.4845,17.61,17.7023,17.7699,17.8146,17.8421,17.859,17.8211,17.8438,17.9046,17.935,17.935,17.9805,17.9957,17.9653,17.9198,17.8894,17.8211,17.7224,17.6464,17.6085,17.6009,17.5857,17.5097,17.4262,17.4414,17.4566,17.5022,17.5325,17.4186,16.7352,16.7352,16.7352,16.7352,16.7352,16.7352,16.81,16.9436,17.1091,17.1997,17.2901,17.5211,17.6774,17.7223,17.7298,17.7298,17.7298,17.7298,17.7298,17.7298,17.7298,17.7298,17.7298,17.7298,17.7298,17.7298,17.7298,17.7298,17.7298,17.7298,17.7298,17.7298,17.7298,17.7298,17.7298,17.7298,17.7298,17.7298,17.7298,17.7298,17.7298,17.7298,17.7298,17.7298,17.7298,17.7298,17.7298,17.7298,17.7298,17.7373,17.7672,17.8292,17.9067,17.9702,17.9957,17.9957,17.9957,17.9957,18.0012,17.987,17.9498,17.8499,17.7355,17.5543,17.418,17.342,17.2268,17.0777,16.9907,16.9907,16.9907,16.9907,16.9919,16.9919,16.9831,16.9843,16.9843,16.9578,16.9259,16.9645,17.0194,17.0782,17.1312,17.206,17.3026,17.4025,17.5129,17.5949,17.6404,17.6844,17.692,17.7072,17.6844,17.7148,17.7831,17.8059,17.7679,17.7907,17.8135,17.8363,17.8514,17.7679,17.6692,17.5401,17.449,17.4338,17.4338,17.4186,17.3807,17.3199,17.3047,17.2668,17.2971,17.3275,17.1908,16.7352,16.7352,16.7352,16.7352,16.7352,16.7352,16.7502,16.7801,16.9455,17.1025,17.2602,17.4239,17.5952,17.7148,17.7298,17.7298,17.7298,17.7298,17.7298,17.7298,17.7298,17.7298,17.7298,17.7298,17.7298,17.7298,17.7298,17.7298,17.7298,17.7298,17.7298,17.7298,17.7298,17.7298,17.7298,17.7298,17.7298,17.7298,17.7298,17.7298,17.7298,17.7298,17.7298,17.7298,17.7298,17.7298,17.7298,17.7298,17.7298,17.7522,17.7789,17.8185,17.8932,17.9577,17.9881,17.9957,17.9957,17.9957,17.9957,17.9957,17.9729,17.9198,17.8363,17.6768,17.5477,17.4556,17.2786,17.1133,17.0058,16.9907,16.9907,16.9907,16.9907,16.9919,16.9919,16.9919,16.9843,16.9661,16.9406,16.957,17.001,17.0162,17.0618,17.0769,17.1681,17.2136,17.2934,17.3675,17.4186,17.4794,17.4946,17.5173,17.5173,17.5401,17.6161,17.6616,17.6161,17.5781,17.5705,17.6009,17.6692,17.6085,17.5173,17.4186,17.3275,17.2971,17.2516,17.1908,17.1529,17.1453,17.1453,17.0921,17.0693,17.0845,17.0314,16.7352,16.7352,16.7352,16.7352,16.7352,16.7352,16.7352,16.7726,16.9156,17.0801,17.252,17.4082,17.5653,17.6999,17.7223,17.7298,17.7298,17.7298,17.7298,17.7298,17.7298,17.7298,17.7298,17.7298,17.7298,17.7298,17.7298,17.7298,17.7298,17.7298,17.7298,17.7298,17.7298,17.7298,17.7298,17.7298,17.7298,17.7298,17.7298,17.7298,17.7298,17.7298,17.7298,17.7298,17.7298,17.7298,17.7298,17.7373,17.7447,17.7522,17.8191,17.8518,17.8856,17.9501,17.9957,17.9957,17.9957,17.9957,17.9957,17.9957,17.9957,17.9805,17.935,17.7983,17.692,17.5325,17.3469,17.16,17.0678,16.9907,16.9907,16.9907,16.9907,16.9907,16.9907,16.9907,16.9803,16.9772,16.9666,16.9648,16.9706,16.9782,16.9858,16.9934,17.0238,17.0997,17.1681,17.2288,17.282,17.3047,17.3047,17.3351,17.3503,17.3655,17.4718,17.5401,17.5097,17.4794,17.4338,17.4262,17.4718,17.449,17.3655,17.282,17.206,17.1605,17.1225,17.0314,17.0086,17.0238,17.0466,17.039,17.0314,17.0086,17.0086,16.7352,16.7352,16.7352,16.7352,16.7352,16.7352,16.7352,16.7502,16.8624,17.0053,17.1764,17.3409,17.483,17.655,17.7074,17.7223,17.7298,17.7298,17.7298,17.7298,17.7298,17.7298,17.7298,17.7298,17.7298,17.7298,17.7298,17.7298,17.7298,17.7298,17.7298,17.7298,17.7298,17.7298,17.7298,17.7298,17.7298,17.7298,17.7298,17.7298,17.7298,17.7298,17.7298,17.7298,17.7298,17.7298,17.7298,17.7373,17.7648,17.7714,17.8431,17.8896,17.9039,17.9577,17.9957,17.9957,17.9957,17.9957,17.9957,17.9957,17.9957,17.9957,17.9881,17.9046,17.7603,17.5857,17.418,17.2331,17.0853,17.0113,16.9894,16.9931,16.9907,16.9919,16.9942,16.9866,16.9866,16.9843,16.9855,16.975,16.9848,16.9934,17.001,17.001,17.0086,17.039,17.0769,17.1301,17.1605,17.1149,17.1149,17.1605,17.1832,17.1984,17.2895,17.3579,17.3655,17.3655,17.3123,17.282,17.2971,17.2592,17.1984,17.1529,17.1149,17.0618,17.0086,17.0086,17.0086,17.0086,17.0086,17.0086,17.0086,17.0086,17.0086,16.7352,16.7352,16.7352,16.7352,16.7352,16.7352,16.7352,16.7352,16.7502,16.8549,17.0053,17.1839,17.3335,17.4905,17.6475,17.6999,17.6999,17.7223,17.7223,17.7298,17.7298,17.7298,17.7298,17.7298,17.7298,17.7298,17.7298,17.7298,17.7298,17.7298,17.7298,17.7298,17.7298,17.7298,17.7298,17.7298,17.7298,17.7298,17.7298,17.7298,17.7298,17.7298,17.7298,17.7298,17.7298,17.7298,17.7373,17.7515,17.7703,17.8188,17.8592,17.9024,17.9501,17.9881,17.9957,17.9957,17.9957,17.9957,17.9957,17.9957,17.9957,17.9501,17.9805,17.9046,17.7679,17.6085,17.4566,17.2895,17.1123,17.0451,16.9928,16.9901,16.9934,16.9934,16.9934,16.9885,16.9894,16.9934,16.9934,16.9934,16.9934,17.001,17.0086,17.0086,17.0086,17.0314,17.039,17.0845,17.0693,17.0162,17.0314,17.0769,17.0693,17.0542,17.0618,17.1225,17.1453,17.1908,17.1453,17.1453,17.0845,17.0542,17.0693,17.0769,17.0314,17.0086,17.0086,17.0086,17.0086,17.0086,17.0086,17.0086,17.0086,17.0086,17.0086,16.7352,16.7352,16.7352,16.7352,16.7352,16.7352,16.7352,16.7352,16.7427,16.8325,16.968,17.0493,17.169,17.3335,17.483,17.5653,17.5802,17.6625,17.7223,17.7298,17.7223,17.7074,17.7148,17.7298,17.7148,17.7298,17.7298,17.7298,17.7298,17.7298,17.7298,17.7298,17.7298,17.7298,17.7298,17.7298,17.7298,17.7298,17.7298,17.7298,17.7298,17.7298,17.7298,17.7298,17.7298,17.7373,17.7447,17.7582,17.7853,17.8368,17.8743,17.9126,17.9501,17.9805,17.9957,17.9957,17.9957,17.9957,17.9957,17.9957,17.9501,17.8894,17.9577,17.9653,17.897,17.6388,17.487,17.3351,17.1453,17.0542,16.9934,17.0008,17.001,17.001,17.001,16.9934,16.9934,17.001,17.001,16.9934,16.9934,17.001,17.0086,17.0086,17.0086,17.0086,17.0086,17.0162,17.0162,17.0086,17.0238,17.0314,17.0314,17.0314,17.0238,17.0086,17.0086,17.0086,17.0314,17.0542,17.0086,17.0086,17.0086,17.0086,17.0086,17.0086,17.0086,17.0086,17.0086,17.0086,17.0086,17.0086,17.0086,17.0086,17.0086,16.7352,16.7352,16.7352,16.7352,16.7352,16.7352,16.7352,16.7352,16.7427,16.8025,16.8932,16.9745,17.0643,17.1764,17.311,17.4008,17.4157,17.5428,17.5585,17.551,17.5361,17.5884,17.6258,17.6258,17.67,17.7074,17.7298,17.7298,17.7223,17.7298,17.7298,17.7298,17.7298,17.7298,17.7298,17.7298,17.7298,17.7298,17.7298,17.7298,17.7298,17.7298,17.7298,17.7298,17.7373,17.7373,17.7522,17.7853,17.8178,17.8592,17.9007,17.9426,17.9729,17.9881,17.9957,17.9957,17.9957,17.9957,17.9957,17.9881,17.935,17.9198,17.935,17.9653,17.897,17.6388,17.4946,17.3579,17.1377,17.039,17.001,17.0086,17.0086,17.0086,17.0086,17.001,17.001,17.0086,17.0086,17.001,17.001,17.0086,17.0086,17.0086,17.0086,17.0086,17.0086,17.0086,17.0086,17.0086,17.0086,17.0086,17.0238,17.0162,17.0086,17.0086,17.0086,17.0086,17.0086,17.0086,17.0086,17.0086,17.0086,17.0086,17.0086,17.0086,17.0086,17.0086,17.0086,17.0086,17.0086,17.0086,17.0086,17.0086,17.0086,16.7352,16.7352,16.7352,16.7352,16.7352,16.7352,16.7352,16.7352,16.7352,16.7502,16.7801,16.8998,16.9745,17.0194,17.1615,17.2288,17.2512,17.2736,17.3036,17.3118,17.3417,17.3716,17.4314,17.4837,17.5211,17.6774,17.6924,17.6774,17.6999,17.7148,17.7223,17.7298,17.7298,17.7298,17.7298,17.7298,17.7298,17.7298,17.7298,17.7298,17.7298,17.7298,17.7298,17.7298,17.7373,17.7507,17.7714,17.8088,17.8493,17.8887,17.9329,17.9577,17.9881,17.9957,17.9957,17.9957,17.9957,17.9957,17.9957,17.9881,17.9653,17.935,17.897,17.9046,17.7603,17.5781,17.4186,17.3047,17.1149,17.0238,17.0086,17.0086,17.0086,17.0086,17.0086,17.0086,17.0086,17.0086,17.0086,17.0086,17.0086,17.0086,17.0086,17.0086,17.0086,17.0086,17.0086,17.0086,17.0086,17.0086,17.0086,17.0238,17.0542,17.039,17.0162,17.0162,17.0162,17.0086,17.0086,17.0086,17.0086,17.0086,17.0086,17.0086,17.0086,17.0086,17.0086,17.0086,17.0086,17.0086,17.0086,17.0086,17.0086,17.0086,17.0086,16.7352,16.7352,16.7352,16.7352,16.7352,16.7352,16.7352,16.7352,16.7352,16.7352,16.7427,16.7801,16.81,16.8624,16.982,17.0643,17.0942,17.1606,17.2129,17.2204,17.2063,17.2662,17.2961,17.3268,17.3492,17.3933,17.4681,17.5503,17.5578,17.6774,17.6924,17.6999,17.7298,17.7223,17.7223,17.7298,17.7298,17.7298,17.7298,17.7298,17.7298,17.7298,17.7298,17.7298,17.7447,17.7648,17.8013,17.8291,17.8745,17.9213,17.9501,17.9729,17.9881,17.9957,17.9957,17.9957,17.9957,17.9957,17.9653,17.9122,17.8287,17.8438,17.8363,17.8059,17.6844,17.4794,17.3275,17.2136,17.0997,17.0086,17.0086,17.0086,17.0086,17.0086,17.0086,17.0086,17.0086,17.0086,17.0086,17.0086,17.0086,17.0086,17.0086,17.0086,17.0086,17.0086,17.0086,17.0086,17.0086,17.0086,17.0162,17.0618,17.0921,17.0693,17.039,17.0693,17.0997,17.0769,17.0086,17.0086,17.0086,17.0086,17.0086,17.0086,17.0086,17.0086,17.0086,17.0086,17.0086,17.0086,17.0086,17.0086,17.0086,17.0086,17.0086,16.7352,16.7352,16.7352,16.7352,16.7352,16.7352,16.7352,16.7352,16.7352,16.7352,16.7352,16.7352,16.7352,16.7652,16.8549,16.8923,16.9072,17.0109,17.0184,17.0409,17.0633,17.0932,17.139,17.1548,17.1847,17.2662,17.3335,17.3858,17.4082,17.5428,17.5877,17.5802,17.5877,17.6176,17.67,17.6849,17.7148,17.7298,17.7298,17.7298,17.7298,17.7298,17.7298,17.7298,17.7447,17.7842,17.8206,17.851,17.9046,17.9426,17.9653,17.9881,17.9957,17.9957,17.9957,17.9957,17.9957,17.9577,17.8894,17.8818,17.8059,17.7831,17.7375,17.6844,17.5097,17.3807,17.244,17.1453,17.0542,17.0086,17.0086,17.0086,17.0086,17.0086,17.0086,17.0086,17.0086,17.0086,17.0086,17.0086,17.0086,17.0086,17.0086,17.0086,17.0086,17.0086,17.0086,17.0086,17.0086,17.0086,17.0693,17.1149,17.1605,17.1605,17.1453,17.1529,17.1756,17.0921,17.0086,17.0086,17.0086,17.0086,17.0238,17.0086,17.0086,17.0086,17.0086,17.0086,17.0086,17.0086,17.0086,17.0086,17.0086,17.0086,17.0086,16.7203,16.7203,16.7352,16.7352,16.7352,16.7352,16.7352,16.7352,16.7352,16.7352,16.7352,16.7352,16.7352,16.7427,16.7577,16.7577,16.7427,16.7352,16.7801,16.7801,16.7502,16.8624,16.9297,16.9904,17.0352,17.1465,17.2063,17.2213,17.2587,17.3559,17.326,17.2662,17.3999,17.4456,17.4987,17.5959,17.67,17.67,17.7223,17.7223,17.7298,17.7298,17.7298,17.7373,17.759,17.7853,17.826,17.8742,17.9198,17.9653,17.9881,17.9957,17.9957,17.9957,17.9957,17.9957,17.9957,17.8742,17.7603,17.7603,17.8211,17.7603,17.6768,17.5857,17.3655,17.2592,17.1605,17.0466,17.0314,17.0086,17.0086,17.0086,17.0086,17.0086,17.0086,17.0086,17.0086,17.0086,17.0086,17.0086,17.0086,17.0086,17.0086,17.0086,17.0086,17.0086,17.0086,17.0086,17.0086,17.0162,17.0845,17.1529,17.206,17.2668,17.2516,17.2516,17.2668,17.206,17.1681,17.1377,17.0466,17.039,17.0542,17.039,17.0086,17.0086,17.0086,17.0086,17.0086,17.0086,17.0086,17.0086,17.0086,17.0086,17.0086,16.5633,16.5707,16.6904,16.7352,16.7352,16.7352,16.7352,16.7352,16.7352,16.7352,16.7352,16.7352,16.7352,16.7352,16.7352,16.7352,16.7352,16.7352,16.7352,16.7352,16.7427,16.7652,16.8025,16.81,16.8399,16.8624,16.997,17.0493,17.0643,17.0867,17.1091,17.0633,17.2129,17.2811,17.3417,17.4464,17.5435,17.551,17.655,17.7148,17.7298,17.7298,17.7373,17.7447,17.7665,17.7928,17.8568,17.897,17.935,17.9729,17.9957,17.9881,17.9805,17.9729,17.9729,17.9501,17.9501,17.7907,17.5781,17.5401,17.5097,17.4718,17.4262,17.4718,17.2592,17.1225,17.0314,17.0162,17.0086,17.0086,17.0086,17.0086,17.0086,17.0086,17.0086,17.0086,17.0086,17.0086,17.0086,17.0086,17.0086,17.0086,17.0086,17.0086,17.0086,17.0086,17.0086,17.0086,17.0086,17.0086,17.0693,17.1301,17.2364,17.3807,17.3958,17.411,17.3731,17.3503,17.3731,17.3123,17.1301,17.0769,17.0693,17.039,17.0086,17.0086,17.0086,17.0086,17.0086,17.0086,17.0086,17.0086,17.0086,17.0086,17.0086,16.5408,16.6081,16.7053,16.7352,16.7352,16.7352,16.7352,16.7352,16.7352,16.7352,16.7352,16.7352,16.7352,16.7352,16.7352,16.7352,16.7352,16.7352,16.7352,16.7352,16.7352,16.7352,16.7352,16.7352,16.7352,16.7801,16.825,16.8923,16.8773,16.8848,16.8773,16.9062,17.0409,17.1381,17.1465,17.2894,17.3567,17.4239,17.5286,17.6475,17.7074,17.7298,17.7373,17.7597,17.7853,17.8313,17.8889,17.9122,17.9501,17.9881,17.9957,17.9729,17.9122,17.8894,17.8438,17.8059,17.7831,17.6085,17.3275,17.4262,17.3958,17.3351,17.3199,17.3427,17.244,17.1073,17.0162,17.0086,17.0086,17.0086,17.0086,17.0086,17.0086,17.0086,17.0086,17.0086,17.0086,17.0086,17.001,17.0086,17.0086,17.0086,17.0086,17.0086,17.0086,17.0086,17.0086,17.0086,17.0086,17.0086,17.0466,17.1225,17.2895,17.4794,17.5173,17.5857,17.5477,17.4642,17.487,17.3579,17.1832,17.0845,17.0466,17.0238,17.0086,17.0086,17.0086,17.0086,17.0086,17.0086,17.0086,17.0086,17.0086,17.0086,17.0086,16.5857,16.7053,16.7278,16.7352,16.7352,16.7352,16.7352,16.7352,16.7352,16.7352,16.7352,16.7352,16.7352,16.7352,16.7352,16.7352,16.7352,16.7352,16.7352,16.7352,16.7352,16.7352,16.7352,16.7352,16.7352,16.7427,16.7502,16.7352,16.7577,16.7652,16.7502,16.7726,16.8987,16.9661,16.9745,17.1241,17.2072,17.2378,17.3709,17.5055,17.6176,17.6475,17.6625,17.7029,17.7303,17.7518,17.7956,17.8135,17.859,17.897,17.9198,17.859,17.7527,17.7148,17.6236,17.5022,17.4262,17.3731,17.2592,17.3047,17.3123,17.2212,17.206,17.2136,17.1605,17.0693,17.0086,17.0086,17.0086,17.0086,17.0086,16.9858,16.9706,16.9554,16.9099,16.8947,16.9554,16.9099,16.9554,16.9706,17.001,17.0086,17.0086,17.0086,17.0086,17.0086,17.0086,17.0086,17.0086,17.0086,17.039,17.1681,17.3275,17.5173,17.6009,17.7299,17.692,17.5629,17.4946,17.3807,17.2668,17.1908,17.1149,17.0542,17.0162,17.0086,17.0086,17.0086,17.0086,17.0086,17.0086,17.0086,17.0086,17.0086,17.0086,16.5259,16.5633,16.6829,16.7352,16.7352,16.7352,16.7352,16.7352,16.7352,16.7352,16.7352,16.7352,16.7352,16.7352,16.7352,16.7352,16.7352,16.7352,16.7352,16.7352,16.7352,16.7352,16.7352,16.7352,16.7352,16.7352,16.7416,16.7352,16.7352,16.7416,16.7352,16.7577,16.7577,16.7876,16.8325,16.982,17.0128,17.0876,17.1989,17.2952,17.3401,17.37,17.399,17.414,17.4482,17.5097,17.5857,17.6009,17.6161,17.6236,17.6236,17.5933,17.5553,17.5477,17.411,17.1681,17.1073,17.0921,17.0693,17.1225,17.1377,17.0921,17.0618,17.0618,17.0466,17.0466,17.0086,17.0086,17.0086,17.0086,16.9706,16.8871,16.8264,16.7884,16.7125,16.6593,16.7808,16.8643,16.9175,16.9706,16.9934,17.0086,17.0086,17.0086,17.0086,17.0086,17.0086,17.0086,17.0086,17.0086,17.0618,17.1984,17.3579,17.5477,17.7299,17.859,17.8059,17.692,17.5857,17.4566,17.3655,17.2592,17.2364,17.1756,17.1073,17.0086,17.0086,17.0086,17.0086,17.0086,17.0086,17.0086,17.0086,17.0086,17.0086,16.6156,16.6231,16.7053,16.7352,16.7352,16.7352,16.7352,16.7352,16.7352,16.7352,16.7352,16.7352,16.7352,16.7352,16.7352,16.7352,16.7352,16.7352,16.7352,16.7352,16.7352,16.7352,16.7352,16.7352,16.7352,16.7416,16.7515,16.7574,16.7416,16.7515,16.7515,16.748,16.7577,16.7652,16.7951,16.8763,16.9147,16.9339,17.0508,17.1447,17.1232,17.2578,17.3318,17.3645,17.4034,17.4262,17.4642,17.4718,17.4794,17.487,17.487,17.449,17.3807,17.2971,17.1832,17.0542,17.0238,17.0162,17.0086,17.0086,17.0086,17.0086,17.0086,17.0086,17.0086,17.0086,17.0086,17.0086,17.0086,16.9782,16.9023,16.8112,16.7201,16.6593,16.6517,16.6821,16.7504,16.8416,16.9175,16.9934,17.0086,17.0086,17.0086,17.0086,17.0086,17.0086,17.0086,17.0086,17.0086,17.0238,17.0542,17.206,17.3731,17.5933,17.8438,17.9274,17.9122,17.8211,17.7224,17.5629,17.4262,17.2136,17.1756,17.2136,17.1377,17.0162,17.0086,17.0086,17.0086,17.0086,17.0086,17.0086,17.0086,17.0086,17.0086,16.7352,16.7352,16.7352,16.7352,16.7352,16.7352,16.7352,16.7352,16.7352,16.7352,16.7352,16.7352,16.7352,16.7352,16.7352,16.7352,16.7352,16.7352,16.7352,16.7352,16.7352,16.7352,16.7352,16.7352,16.7342,16.7529,16.7731,16.7842,16.7806,16.7897,16.8003,16.7767,16.7934,16.8068,16.8197,16.8458,16.865,16.8743,16.9507,17.0082,17.0208,17.1157,17.2168,17.2772,17.2938,17.3275,17.3731,17.4034,17.4186,17.411,17.411,17.3275,17.2212,17.0997,17.039,17.0086,17.0086,17.0086,17.0086,17.0086,17.0086,17.0086,17.0086,17.0086,17.0086,17.0086,17.0086,17.0086,17.001,16.9403,16.7732,16.7125,16.6365,16.5454,16.5454,16.6365,16.7201,16.8491,16.9934,17.0086,17.0086,17.0086,17.0086,17.0086,17.0086,17.0086,17.0086,17.0086,17.0086,17.0314,17.0542,17.1984,17.3731,17.654,17.897,17.9274,17.9881,17.897,17.7907,17.6312,17.4946,17.2364,17.0997,17.1681,17.1301,17.039,17.0086,17.0086,17.0086,17.0086,17.0086,17.0086,17.0086,17.0086,17.0086,16.7352,16.7352,16.7352,16.7352,16.7352,16.7352,16.7352,16.7352,16.7352,16.7352,16.7352,16.7352,16.7352,16.7352,16.7352,16.7352,16.7352,16.7352,16.7352,16.7352,16.7352,16.7352,16.7352,16.748,16.7515,16.7821,16.8031,16.8227,16.8411,16.8581,16.854,16.854,16.8573,16.8513,16.8578,16.8768,16.8756,16.8637,16.904,16.9191,16.924,16.9399,16.9973,17.0562,17.0845,17.1149,17.1301,17.1225,17.0997,17.0845,17.0845,17.0693,17.039,17.0086,17.0086,17.0086,17.0086,17.0086,17.0086,17.0086,17.0086,17.0086,17.0086,17.0086,17.0086,17.0086,17.0086,17.0086,16.9934,16.9327,16.7656,16.6517,16.4847,16.348,16.31,16.3936,16.553,16.8264,16.9782,17.0086,17.0086,17.0086,17.0086,17.0086,17.0086,17.0086,17.0086,17.0086,17.0086,17.0162,17.039,17.1453,17.3579,17.6236,17.7527,17.8059,17.9729,17.9198,17.8363,17.7451,17.6768,17.4186,17.2212,17.2212,17.1377,17.0618,17.0086,17.0086,17.0086,17.0086,17.0086,17.0086,17.0086,17.0086,17.0086,16.7352,16.7352,16.7352,16.7352,16.7352,16.7352,16.7352,16.7352,16.7352,16.7352,16.7352,16.7352,16.7352,16.7352,16.7352,16.7352,16.7352,16.7352,16.7352,16.7352,16.7352,16.7352,16.7352,16.7574,16.795,16.8366,16.8506,16.8587,16.8739,16.8925,16.8941,16.8763,16.894,16.8999,16.8997,16.9282,16.9229,16.9111,16.9048,16.8909,16.8758,16.8928,16.9191,16.9375,16.9706,17.001,17.0086,17.0086,17.0086,17.0086,17.0086,17.0086,17.0086,17.0086,17.0086,17.0086,17.0086,17.0086,17.0086,17.0086,17.0086,17.0086,17.0086,17.0086,17.0086,17.0086,17.0086,17.0086,16.9858,16.9023,16.6517,16.5302,16.3708,16.2189,16.2721,16.4163,16.5378,16.8036,17.0086,17.0086,17.0086,17.0086,17.0086,17.0086,17.0086,17.0086,17.0086,17.0086,17.0086,17.0086,17.0314,17.1149,17.3427,17.5097,17.6161,17.7603,17.935,17.935,17.859,17.8135,17.7755,17.5705,17.3503,17.2288,17.1225,17.0542,17.039,17.0086,17.0086,17.0162,17.0238,17.0086,17.0086,17.0086,17.0086,16.7352,16.7352,16.7352,16.7352,16.7352,16.7352,16.7352,16.7352,16.7352,16.7352,16.7352,16.7352,16.7352,16.7352,16.7352,16.7352,16.7352,16.7352,16.7352,16.7352,16.7352,16.7427,16.7704,16.795,16.8411,16.8814,16.9183,16.9212,16.9154,16.9267,16.926,16.912,16.9333,16.9451,16.9451,16.9636,16.9757,16.9515,16.9433,16.9246,16.9139,16.9322,16.9485,16.9451,16.9838,17.001,17.0086,17.0086,17.0086,17.0086,17.0086,17.0086,17.0086,17.0086,17.0086,17.0086,17.0086,17.0086,17.0086,17.0086,17.0086,17.0086,17.0086,17.0086,17.0086,17.0086,17.0086,17.0086,17.001,16.8795,16.6365,16.5378,16.4011,16.2948,16.3936,16.553,16.5682,16.8036,16.9858,17.0086,17.0086,17.0086,17.0086,17.0086,17.0086,17.0086,17.0086,17.0086,17.0086,17.0086,17.039,17.0845,17.282,17.4262,17.5553,17.7224,17.8818,17.9426,17.897,17.8514,17.8135,17.6692,17.5097,17.3351,17.1681,17.1149,17.1073,17.0845,17.0466,17.0466,17.0466,17.0238,17.0086,17.0086,17.0086,16.7352,16.7352,16.7352,16.7352,16.7352,16.7352,16.7352,16.7352,16.7352,16.7352,16.7352,16.7352,16.7352,16.7352,16.7352,16.7352,16.7352,16.7352,16.7352,16.7427,16.7502,16.7828,16.8442,16.8592,16.8849,16.9212,16.9267,16.9466,16.9625,16.9756,16.9803,16.9666,16.9755,16.9831,16.9831,16.9831,16.9893,16.9756,16.9803,16.9712,16.9712,16.9727,16.9755,16.9767,16.9901,16.9928,17.0086,17.0086,17.0086,17.0086,17.0086,17.0086,17.0086,17.0086,17.0086,17.0086,17.0086,17.0086,17.0086,17.0086,17.0086,17.0086,17.0086,17.0086,17.0086,17.0086,17.0086,17.0086,17.0086,16.8947,16.7201,16.5682,16.4391,16.4011,16.5682,16.6365,16.6062,16.8036,17.0086,17.0086,17.0086,17.0086,17.0086,17.0086,17.0086,17.0086,17.0086,17.0086,17.0086,17.0086,17.039,17.0845,17.206,17.3503,17.5173,17.6844,17.8287,17.9653,17.9274,17.9046,17.8742,17.7831,17.6388,17.5022,17.3351,17.244,17.1984,17.1453,17.1149,17.0921,17.0466,17.0238,17.0086,17.0086,17.0086,16.7352,16.7352,16.7352,16.7352,16.7352,16.7352,16.7352,16.7352,16.7352,16.7352,16.7352,16.7352,16.7352,16.7352,16.7352,16.7352,16.7352,16.7352,16.7502,16.7652,16.7716,16.8228,16.8891,16.9111,16.9267,16.9625,16.9644,16.9772,16.9893,16.9907,16.9907,16.9907,16.9907,16.9907,16.9907,16.9907,16.9907,16.9907,16.9907,16.9907,16.9907,16.9907,16.9907,16.9919,16.9908,16.993,17.0086,17.0086,17.0086,17.0086,17.0086,17.0086,17.0086,17.0086,17.0086,17.0086,17.0086,17.0086,17.0086,17.0086,17.0086,17.0086,17.0086,17.0086,17.0086,17.0086,17.0086,16.9934,16.9099,16.834,16.7277,16.5075,16.3328,16.31,16.5378,16.7201,16.6669,16.7808,16.8947,16.9782,17.0086,17.0086,17.0086,17.0086,17.0086,17.0086,17.0086,17.0086,17.0086,17.0086,17.0238,17.0693,17.1605,17.3199,17.487,17.6388,17.7907,17.9501,17.9653,17.9729,17.9198,17.8363,17.7299,17.6312,17.487,17.3655,17.2744,17.206,17.1605,17.0997,17.039,17.0086,17.0086,17.0086,17.0086,16.7352,16.7352,16.7352,16.7352,16.7352,16.7352,16.7352,16.7352,16.7352,16.7352,16.7352,16.7352,16.7352,16.7352,16.7352,16.7352,16.7427,16.7502,16.7652,16.7929,16.7956,16.8396,16.917,16.9398,16.9625,16.9879,16.9893,16.9907,16.9907,16.9907,16.9907,16.9907,16.9907,16.9907,16.9907,16.9907,16.9907,16.9907,16.9907,16.9907,16.9907,16.9907,16.9907,16.9919,16.992,16.9934,17.0086,17.0086,17.0086,17.0086,17.0086,17.0086,17.0086,17.0086,17.0086,17.0086,17.0086,17.0086,17.0086,17.0086,17.0086,17.0086,17.0086,17.0086,17.0086,17.0086,17.0086,16.9858,16.9023,16.8188,16.7352,16.591,16.4163,16.2797,16.4923,16.6897,16.7352,16.7884,16.8643,16.9782,17.0086,17.0086,17.0086,17.0086,17.0086,17.0086,17.0086,17.0086,17.0086,17.0086,17.0086,17.0542,17.1149,17.282,17.449,17.6009,17.7603,17.9274,17.9957,17.9957,17.9501,17.897,17.8363,17.7603,17.6085,17.5022,17.3958,17.2668,17.1832,17.1225,17.0693,17.0086,17.0086,17.0086,17.0086,16.7352,16.7352,16.7352,16.7352,16.7352,16.7352,16.7352,16.7352,16.7352,16.7352,16.7352,16.7352,16.7352,16.7352,16.7352,16.7352,16.7427,16.7652,16.7876,16.7975,16.8058,16.8533,16.9317,16.9636,16.9803,16.9907,16.9907,16.9907,16.9907,16.9907,16.9907,16.9907,16.9907,16.9907,16.9907,16.9907,16.9907,16.9907,16.9907,16.9907,16.9907,16.9907,16.9907,16.9907,16.9934,17.001,17.0086,17.0086,17.0086,17.0086,17.0086,17.0086,17.0086,17.0086,17.0086,17.0086,17.0086,17.0086,17.0086,17.0086,17.0086,17.0086,17.0086,17.0086,17.0086,17.0086,17.0086,17.001,16.9706,16.9023,16.8112,16.7884,16.8112,16.7125,16.6138,16.6289,16.7428,16.8795,16.9479,16.9934,17.0086,17.0086,17.0086,17.0086,17.0086,17.0086,17.0086,17.0086,17.0086,17.0086,17.0086,17.0314,17.0618,17.2364,17.4566,17.6085,17.7451,17.897,17.9957,17.9957,17.9729,17.9653,17.935,17.8363,17.7224,17.6388,17.5249,17.3731,17.2592,17.1681,17.0921,17.0314,17.0086,17.0086,17.0086,16.7352,16.7352,16.7352,16.7352,16.7352,16.7352,16.7352,16.7352,16.7352,16.7352,16.7352,16.7352,16.7352,16.7352,16.7352,16.7352,16.7427,16.7502,16.7876,16.8427,16.8657,16.9115,16.9637,16.9796,16.9907,16.9907,16.9907,16.9907,16.9907,16.9907,16.9907,16.9907,16.9907,16.9907,16.9907,16.9907,16.9907,16.9907,16.9907,16.9907,16.9907,16.9907,16.9907,16.9919,16.9996,17.001,17.0086,17.0086,17.0086,17.0086,17.0086,17.0086,17.0086,17.0086,17.0086,17.0086,17.0086,17.0086,17.0086,17.0086,17.0086,17.0086,17.0086,17.0086,17.0086,17.0086,17.0086,16.9858,16.9175,16.8264,16.758,16.7352,16.7732,16.8795,16.758,16.7049,16.7352,16.8112,16.8871,16.9858,17.0086,17.0086,17.0086,17.0086,17.0086,17.0086,17.0086,17.0086,17.0086,17.0086,17.0086,17.0162,17.0769,17.244,17.4566,17.6085,17.7375,17.8742,17.9957,17.9957,17.9957,17.9957,17.9957,17.897,17.8666,17.7831,17.6388,17.487,17.3199,17.206,17.1073,17.0542,17.0086,17.0086,17.0086,16.7352,16.7352,16.7352,16.7352,16.7352,16.7352,16.7352,16.7352,16.7352,16.7352,16.7352,16.7352,16.7352,16.7352,16.7352,16.7352,16.7352,16.7502,16.7978,16.8613,16.8984,16.9342,16.9637,16.972,16.9755,16.9907,16.9907,16.9907,16.9907,16.9907,16.9907,16.9907,16.9907,16.9907,16.9907,16.9907,16.9907,16.9907,16.9907,16.9907,16.9907,16.9907,16.9931,16.9885,17.001,17.0086,17.0086,17.0086,17.0086,17.0086,17.0086,17.0086,17.0086,17.0086,17.0086,17.0086,17.0086,17.0086,17.0086,17.0086,17.0086,17.001,16.9554,16.9327,16.9327,16.8795,16.834,16.8264,16.7504,16.7049,16.7277,16.6441,16.6973,16.9023,16.834,16.7656,16.834,16.8491,16.8947,16.9858,17.0086,17.0086,17.0086,17.0086,17.0086,17.0086,17.0086,17.0086,17.0086,17.0086,17.0086,17.0238,17.1605,17.2971,17.4718,17.6236,17.7679,17.9198,17.9805,17.9957,17.9957,17.9957,17.9957,17.9729,17.9729,17.9046,17.7527,17.5933,17.411,17.2744,17.1301,17.0542,17.0162,17.0086,17.0086,16.7278,16.7128,16.7352,16.7203,16.7203,16.7278,16.7352,16.7352,16.7352,16.7352,16.7352,16.7352,16.7352,16.7352,16.7352,16.7416,16.7542,16.7799,16.828,16.8701,16.8813,16.9073,16.9409,16.9438,16.9603,16.9907,16.9907,16.9907,16.9907,16.9907,16.9907,16.9907,16.9907,16.9907,16.9907,16.9907,16.9907,16.9907,16.9907,16.9907,16.9907,16.9919,16.9894,16.9933,17.001,17.0086,17.0086,17.0086,17.0086,17.0086,17.0086,17.0086,17.0086,17.0086,17.0086,17.0086,17.0086,17.0086,17.0086,17.001,16.9782,16.963,16.8491,16.758,16.7428,16.6365,16.5606,16.5682,16.5454,16.5758,16.7049,16.7125,16.7277,16.758,16.7656,16.8188,16.9327,16.9858,17.001,17.001,17.0086,17.0086,17.0086,17.0086,17.0086,17.0086,17.0086,17.0086,17.0086,17.0086,17.0086,17.0314,17.1681,17.3351,17.487,17.6388,17.8135,17.9501,17.9805,17.9957,17.9957,17.9957,17.9957,17.9957,17.9957,17.9729,17.8211,17.6312,17.4566,17.282,17.1377,17.0162,17.0086,17.0086,17.0086,16.4062,16.4287,16.5333,16.5782,16.5932,16.6904,16.7352,16.7352,16.7352,16.7352,16.7352,16.7352,16.7352,16.7352,16.7352,16.7634,16.8274,16.8431,16.8661,16.913,16.909,16.9299,16.9679,16.9679,16.9755,16.9907,16.9907,16.9907,16.9907,16.9907,16.9907,16.9907,16.9907,16.9907,16.9907,16.9907,16.9907,16.9907,16.9907,16.9931,16.9894,16.9914,16.993,16.9934,17.001,17.0086,17.0086,17.0086,17.0086,17.0086,17.0086,17.0086,17.0086,17.0086,17.0086,17.0086,17.0086,17.0086,17.001,16.9023,16.834,16.8264,16.6821,16.5834,16.5834,16.5378,16.5075,16.4999,16.4999,16.515,16.5682,16.5834,16.5834,16.5986,16.6897,16.7808,16.8264,16.834,16.8947,16.9706,17.001,17.0086,17.0086,17.0086,17.0086,17.0086,17.0086,17.0086,17.0086,17.0086,17.0086,17.0314,17.2364,17.4034,17.5173,17.7375,17.9501,17.9729,17.9957,17.9957,17.9957,17.9957,17.9957,17.9957,17.9881,17.9653,17.859,17.6616,17.4718,17.282,17.1453,17.0466,17.0086,17.0086,17.0086,16.2492,16.2567,16.3688,16.4137,16.4212,16.5184,16.5633,16.5633,16.5643,16.5568,16.5568,16.5633,16.6058,16.675,16.6249,16.642,16.7028,16.7123,16.763,16.8541,16.8616,16.9072,16.9831,16.9907,16.9907,16.9907,16.9907,16.9907,16.9907,16.9907,16.9907,16.9907,16.9907,16.9907,16.9907,16.9907,16.9907,16.9907,16.9931,16.9885,16.9924,16.9933,16.9934,16.9934,17.001,17.0086,17.0086,17.0086,17.0086,17.0086,17.0086,17.0086,17.0086,17.0086,16.9858,16.9251,16.9175,16.8871,16.8264,16.7277,16.6669,16.6517,16.5075,16.4163,16.4087,16.3556,16.3176,16.3176,16.3176,16.3176,16.3176,16.3176,16.348,16.4087,16.5075,16.5834,16.6517,16.7201,16.796,16.8947,16.9782,17.0086,17.0086,17.0086,17.0086,17.0086,17.0086,17.0086,17.0086,17.0086,17.039,17.1225,17.3199,17.5173,17.5629,17.8363,17.9957,17.9957,17.9957,17.9957,17.9957,17.9957,17.9957,17.9957,17.9957,17.9805,17.9653,17.7831,17.6464,17.4414,17.2212,17.1225,17.0238,17.0086,17.0086,16.2268,16.2193,16.2268,16.2268,16.2417,16.2567,16.2567,16.2791,16.2653,16.2589,16.2739,16.2716,16.366,16.5271,16.4199,16.3853,16.4394,16.4522,16.5581,16.7099,16.7251,16.8161,16.9603,16.9755,16.9755,16.9603,16.9755,16.9907,16.9907,16.9907,16.9907,16.9907,16.9907,16.9907,16.9907,16.9907,16.9907,16.9907,16.9876,16.992,16.9934,17.001,17.0086,17.0086,17.0086,17.0086,17.0086,17.0086,17.0086,17.0086,16.9934,16.9858,16.9934,16.9782,16.8947,16.7656,16.7428,16.6821,16.553,16.5075,16.4923,16.4695,16.3404,16.2417,16.2265,16.1202,16.0519,16.0139,16.0215,16.0139,16.0291,16.0822,16.1278,16.2341,16.2569,16.3404,16.4771,16.6062,16.7201,16.7656,16.8567,16.9327,16.9782,17.001,17.0086,17.0086,17.0086,17.0162,17.0314,17.0314,17.1073,17.244,17.4034,17.5705,17.7299,17.9046,17.9881,17.9957,17.9957,17.9957,17.9957,17.9957,17.9957,17.9957,17.9957,17.9957,17.9957,17.9122,17.7603,17.6085,17.3883,17.244,17.1681,17.0693,17.0542,15.8977,15.8977,15.8977,15.9576,16.0772,16.1956,16.2466,16.2541,16.2492,16.2429,16.2492,16.2817,16.2881,16.2794,16.2464,16.3182,16.4522,16.4657,16.505,16.5581,16.5657,16.5872,16.6479,16.7465,16.8085,16.8237,16.9224,16.9831,16.9907,16.9907,16.9907,16.9907,16.9907,16.9907,16.9907,16.9907,16.9907,16.9907,16.9919,16.9977,17.001,17.0086,17.0086,17.0086,17.0086,17.0086,17.0086,17.0086,17.0086,17.001,16.8871,16.8264,16.8188,16.7049,16.6214,16.5758,16.5758,16.553,16.5075,16.386,16.3176,16.3024,16.1658,16.0671,16.0595,16.0291,15.9987,15.9835,15.8848,15.8696,15.9835,16.105,16.1354,16.0822,16.181,16.2645,16.31,16.3556,16.4467,16.553,16.6289,16.6821,16.8036,16.9175,16.9858,16.9934,17.0086,17.039,17.1453,17.1756,17.2364,17.4034,17.5705,17.7375,17.897,17.9729,17.9881,17.9957,17.9957,17.9957,17.9957,17.9957,17.9957,17.9957,17.9957,17.9957,17.9957,17.8894,17.7375,17.6692,17.5477,17.411,17.3275,17.3503,17.3047,15.5986,15.6584,15.6659,15.7557,15.9052,16.0085,16.0459,16.0534,16.0684,16.0772,16.067,15.9823,15.9618,15.973,15.9901,16.1016,16.2773,16.2826,16.3297,16.398,16.3972,16.4335,16.505,16.6023,16.6428,16.6526,16.7361,16.8196,16.8727,16.8879,16.9193,16.9818,16.9931,16.9907,16.9907,16.9907,16.9907,16.9907,16.9876,16.999,17.0086,17.0086,17.0086,17.0086,17.0086,17.0086,17.001,16.9403,16.9099,16.8947,16.7428,16.6214,16.553,16.4543,16.3708,16.3024,16.2341,16.1658,16.0898,15.9987,15.938,15.938,15.8469,15.7861,15.7937,15.7937,15.7861,15.7785,15.7026,15.6798,15.7785,15.8772,15.9304,15.9228,15.9835,16.0671,16.1354,16.2113,16.2797,16.3784,16.4619,16.553,16.6441,16.7428,16.8264,16.8947,16.9706,17.0618,17.206,17.2364,17.3427,17.5553,17.7451,17.8818,17.9653,17.9957,17.9957,17.9957,17.9957,17.9957,17.9957,17.9957,17.9957,17.9957,17.9957,17.9957,17.9805,17.9046,17.8514,17.8211,17.7224,17.5705,17.5022,17.4414,17.3655,15.3519,15.479,15.4865,15.5837,15.7033,15.7183,15.7183,15.7257,15.7557,15.7826,15.7675,15.5472,15.5428,15.6614,15.7158,15.808,15.9467,15.9525,16.0367,16.1885,16.2037,16.2939,16.4314,16.4683,16.479,16.4822,16.5055,16.5966,16.7105,16.7181,16.795,16.9249,16.959,16.9615,16.9679,16.9755,16.9907,16.9919,16.9772,16.9782,17.0086,17.0086,17.001,16.9858,16.9858,16.9782,16.9403,16.8188,16.7352,16.7201,16.553,16.386,16.2493,16.1885,16.1126,15.9607,15.8165,15.6494,15.4976,15.4596,15.4596,15.452,15.4672,15.4824,15.4824,15.4292,15.3989,15.414,15.414,15.4292,15.4672,15.4824,15.5659,15.7026,15.733,15.7785,15.9228,16.0898,16.1885,16.1961,16.2948,16.4467,16.4619,16.4923,16.5606,16.7125,16.8567,17.0238,17.1984,17.2668,17.3958,17.6464,17.8287,17.9122,17.9198,17.9501,17.9046,17.9198,17.9426,17.9122,17.897,17.9046,17.9426,17.8514,17.9122,17.9046,17.9198,17.9501,17.9198,17.8211,17.7527,17.6616,17.5249,17.3958,17.3199,15.2846,15.3145,15.3145,15.3369,15.3668,15.3743,15.3892,15.4192,15.4281,15.4642,15.518,15.4991,15.5008,15.5337,15.5454,15.5711,15.6033,15.6114,15.695,15.8469,15.862,15.9455,16.112,16.2487,16.3097,16.3175,16.439,16.5225,16.5529,16.5529,16.5758,16.6214,16.7427,16.801,16.8009,16.9224,16.9876,16.9852,16.8719,16.8719,17.001,17.0086,16.9479,16.8264,16.8188,16.7504,16.6289,16.5834,16.5606,16.5454,16.2721,16.0974,16.0519,15.8089,15.6494,15.6115,15.5659,15.4824,15.3229,15.1938,15.1179,15.1179,15.2394,15.3077,15.2774,14.9585,14.7762,14.8977,14.9281,15.0344,15.2318,15.2926,15.3761,15.5279,15.5507,15.5583,15.6039,15.6342,15.7102,15.8393,15.8924,16.0291,16.2341,16.31,16.3708,16.5302,16.7049,16.9327,17.1908,17.3655,17.449,17.5477,17.5781,17.6236,17.6085,17.6236,17.6236,17.6085,17.6236,17.6388,17.6388,17.6161,17.6161,17.6312,17.6236,17.6388,17.6236,17.6236,17.6312,17.6388,17.6085,17.5477,17.5022,17.449,17.4338,15.0827,15.15,15.15,15.1948,15.2546,15.2546,15.2829,15.3094,15.1799,15.1616,15.2289,15.2485,15.3033,15.3731,15.3748,15.4213,15.4976,15.4976,15.5431,15.6267,15.6342,15.6798,15.7709,15.862,15.9456,16.0215,16.1126,16.2341,16.3708,16.386,16.4239,16.5075,16.591,16.6362,16.6333,16.7244,16.8021,16.8795,16.796,16.796,16.8871,16.8947,16.8491,16.758,16.6745,16.5606,16.3936,16.31,16.2341,16.1582,15.8393,15.6267,15.5431,15.2926,15.1179,15.042,15.042,15.004,14.9129,14.8294,14.7762,14.7762,14.8597,14.8218,14.5864,14.3814,14.3054,14.3966,14.4801,14.6016,14.7686,14.8673,14.9812,15.1407,15.1559,15.2166,15.3457,15.3837,15.452,15.5963,15.6267,15.695,15.8848,15.9683,16.0822,16.2569,16.4999,16.796,17.1832,17.3199,17.3731,17.3883,17.449,17.487,17.4946,17.4946,17.4946,17.4946,17.4946,17.4946,17.4946,17.4946,17.5022,17.4946,17.4946,17.4946,17.5022,17.4946,17.4946,17.4946,17.4946,17.4946,17.4946,17.4946,17.4414,14.8583,14.9854,14.9854,15.0677,15.1873,15.1873,15.2081,15.2157,14.944,14.8745,14.9515,14.9556,15.049,15.209,15.209,15.285,15.4216,15.4216,15.4368,15.4596,15.4596,15.4748,15.4976,15.4976,15.5659,15.7026,15.7102,15.862,16.1126,16.143,16.2265,16.3708,16.4011,16.4163,16.4619,16.4923,16.5606,16.6821,16.6897,16.6973,16.7201,16.7201,16.7125,16.6821,16.515,16.348,16.1885,16.0139,15.8544,15.7102,15.3989,15.1559,15.0116,14.8066,14.6168,14.4801,14.4421,14.4193,14.3966,14.3966,14.389,14.3966,14.4193,14.2371,13.7967,13.8802,13.9638,13.9638,14.0701,14.146,14.184,14.313,14.4725,14.6547,14.6851,14.8066,15.0951,15.1331,15.2014,15.3837,15.4216,15.4292,15.5279,15.6418,15.7785,15.938,16.2417,16.6062,16.9403,17.0997,17.1149,17.1832,17.3047,17.3883,17.3883,17.4186,17.3958,17.4262,17.4034,17.3883,17.3883,17.3883,17.3883,17.411,17.3883,17.3958,17.4034,17.4262,17.3958,17.3883,17.3427,17.3579,17.3883,17.2668,17.1377,14.791,14.8209,14.8209,14.8359,14.8583,14.8583,14.8658,14.8565,0.0,0.0,0.0,14.7989,14.8901,15.042,15.0496,15.0648,15.0951,15.0951,15.1711,15.3001,15.3001,15.3685,15.49,15.4976,15.5128,15.5355,15.5355,15.5659,15.6267,15.6267,15.7102,15.862,15.8772,16.0215,16.2873,16.4315,16.4467,16.348,16.3404,16.4087,16.5454,16.5454,16.4847,16.3404,16.1734,16.0063,15.8393,15.6722,15.5735,15.5279,15.2242,15.0344,14.9964,14.5788,14.3206,14.2903,14.1612,14.0245,13.8878,13.8802,13.8802,13.8802,14.0017,13.9865,13.7663,13.7739,13.7891,13.7891,13.6904,13.6828,13.8195,13.8575,14.0017,14.3054,14.3358,14.4118,14.6016,14.632,14.761,15.0268,15.0951,15.1862,15.4368,15.5128,15.5507,15.6342,15.9911,16.348,16.4087,16.4695,16.5758,16.8036,16.9023,16.9479,17.0542,17.0921,17.0997,17.0921,17.0921,17.0921,17.0921,17.0921,17.0921,17.0693,17.0921,17.0769,17.0845,17.0693,17.0921,17.0921,16.9858,16.9251,17.0086,16.6593,16.3024,14.447,0.0,14.5293,14.5293,0.0,14.5443,14.506,14.4437,14.3513,14.4358,14.6244,14.6244,14.6699,14.7534,14.7458,14.7534,14.7534,14.7534,14.8446,15.004,15.004,15.0496,15.1179,15.1179,15.1179,15.1179,15.1179,15.209,15.3685,15.3761,15.4596,15.6115,15.6191,15.7405,15.9911,16.0746,16.0367,15.8696,15.9456,16.0367,16.1126,16.1202,16.0746,15.9911,15.8317,0.0,0.0,0.0,0.0,0.0,0.0,0.0,0.0,0.0,0.0,14.1232,14.0397,13.9182,13.7587,13.7436,13.7056,13.6221,13.698,13.6069,13.2652,13.2424,13.2728,13.3563,13.3715,13.4095,13.493,13.5765,13.6904,13.8423,13.8726,13.941,14.0928,14.1916,14.3814,14.6851,14.8218,14.966,15.2166,15.3153,15.3685,15.3989,15.733,16.0215,16.105,16.1961,16.3328,16.5834,16.6289,16.6593,16.7352,16.7504,16.7504,16.7504,16.7504,16.7201,16.6441,16.6214,16.5986,16.5075,16.4999,16.4999,16.4999,16.4923,16.4923,16.4847,16.4315,16.4163,16.4467,16.1658,15.8924,14.0711,14.1961,14.2014,14.2066,14.2169,14.244,14.1957,14.0977,14.1376,14.2522,14.4042,14.4345,14.4725,14.4953,14.4953,14.4953,14.4953,14.4725,14.5256,14.6547,14.6244,14.6092,14.6092,14.6395,14.6547,14.6623,14.6927,14.8446,15.1179,15.1483,15.2242,15.3533,15.4216,15.5203,15.6418,0.0,0.0,0.0,15.6267,15.695,15.695,15.695,15.695,15.695,15.5355,0.0,15.2622,15.1938,15.0951,14.9585,14.6395,0.0,0.0,0.0,0.0,0.0,0.0,0.0,0.0,0.0,0.0,0.0,13.25,13.1133,12.7413,12.7337,12.8096,12.9387,13.0526,13.1133,13.1133,13.2652,13.3715,13.3943,13.4398,13.5234,13.6752,13.8195,14.0169,14.3206,14.5029,14.6851,14.8825,15.0572,15.1711,15.2166,15.49,15.733,15.8393,15.9456,16.1126,16.2873,16.348,16.4239,16.4923,16.515,16.5226,16.4543,16.4543,16.3936,16.2569,16.2189,16.1506,16.0595,15.9987,16.0139,16.0139,15.9987,16.0443,16.0063,15.9835,15.9228,15.8241,15.7026,15.6418,13.8447,13.8975,13.8975,13.9114,13.9309,13.973,13.9808,13.9648,14.0028,14.037,14.0701,14.2143,14.3662,14.4953,14.4953,14.4953,14.4877,14.351,14.2903,14.3054,14.1612,14.0928,14.1004,14.2447,14.313,14.3206,14.4649,14.556,14.6016,14.7458,14.8294,14.8597,15.1483,15.3001,15.3229,15.3153,15.3761,15.49,15.5128,15.5279,15.5279,15.5203,15.5279,15.5203,15.3685,15.2774,15.247,14.9736,14.8066,14.7762,14.4649,14.2827,14.2675,13.8195,13.493,0.0,13.0754,0.0,0.0,0.0,0.0,0.0,0.0,0.0,0.0,12.6653,12.764,12.7792,12.6653,12.597,12.597,12.7489,12.9083,13.0526,13.1969,13.3487,13.5006,13.5385,13.6297,13.8195,13.9865,14.2219,14.5256,14.7155,14.8749,15.0344,15.285,15.4216,15.3761,15.3837,15.4748,15.5963,15.8696,16.1506,16.3784,16.4695,16.4163,16.3024,16.2569,16.2265,16.0443,16.0139,16.0063,15.9835,15.9456,15.9683,15.9987,15.9835,15.9835,15.9456,15.8165,15.6039,15.2622,15.1331,15.1103,13.6335,13.7391,13.8371,13.5732,13.1193,13.1299,13.2495,13.4165,13.4366,13.5453,13.7208,13.7967,13.8726,13.941,13.941,13.9865,14.0701,14.0017,14.0701,14.2447,14.1688,14.0852,13.9941,14.0777,14.0169,13.8423,13.903,14.0397,14.2143,14.2979,14.4269,14.6168,14.8597,14.9281,14.8446,14.9357,15.0572,15.2166,15.2242,15.2242,15.2242,15.2242,15.2242,15.2242,15.1559,15.0799,14.9812,14.8294,14.7079,14.6092,14.2903,14.108,14.1004,13.6373,13.3335,0.0,0.0,0.0,0.0,0.0,0.0,0.0,0.0,0.0,0.0,0.0,12.0958,12.1794,12.2933,12.3996,12.4907,12.5666,12.6426,12.7185,12.7868,12.9007,13.0602,13.25,13.4246,13.5841,13.8347,14.0928,14.3282,14.4269,14.5636,14.837,14.7534,14.7003,14.8142,14.9281,15.0724,15.3229,15.5659,15.7785,15.9076,15.938,15.9152,15.8469,15.8317,15.7785,15.6191,15.5887,15.5583,15.4748,15.452,15.452,15.4444,15.452,15.452,15.414,15.2394,14.9888,14.7686,14.7231,14.7231,13.2378,13.3662,13.5924,13.2727,12.6282,12.6215,12.7665,13.0026,13.0065,13.1437,13.3715,13.3867,13.3867,13.3791,13.3715,13.4474,13.5689,13.5689,13.7056,13.941,13.9106,13.8195,13.7056,13.7815,13.6904,13.4702,13.5537,13.7436,13.9865,13.9941,14.1308,14.3738,14.5484,14.5484,14.3966,14.5864,14.761,14.8825,14.9281,14.966,15.004,15.0116,14.9888,14.9509,14.9433,14.8673,14.7003,14.6547,14.556,14.3814,14.0549,13.8423,13.7587,13.3639,0.0,0.0,0.0,0.0,0.0,0.0,0.0,0.0,0.0,11.1467,11.3138,0.0,11.496,0.0,11.8984,12.1262,12.2553,12.3312,0.0,0.0,12.4527,12.5514,12.6805,12.9235,13.1361,13.2956,13.5765,13.8423,14.0473,14.108,14.2219,14.4649,14.2143,14.0852,14.3358,14.5256,14.7155,14.9053,15.0724,15.209,15.247,15.285,15.3153,15.3153,15.3153,15.2622,15.1027,15.0799,15.0344,14.9205,14.8825,14.8901,14.8977,14.8825,14.8901,14.8673,14.6851,14.4953,14.4953,14.5029,14.5029,12.4873,12.5336,12.9162,13.0304,12.9666,12.961,12.9767,13.007,12.9994,13.0222,13.045,13.045,13.045,13.045,13.045,0.0,13.0602,13.0678,13.083,13.0981,12.9387,12.8628,12.8703,13.1741,13.3032,13.288,13.736,13.9713,13.9865,13.9865,14.0093,14.0397,14.2067,14.2067,14.0625,14.3586,14.5256,14.5408,14.7003,14.8522,15.004,15.0116,14.9281,14.7762,14.7762,14.6927,14.5256,14.3738,14.2067,14.0397,13.7132,13.3943,13.0981,0.0,0.0,0.0,0.0,0.0,0.0,0.0,0.0,0.0,0.0,0.0,0.0,0.0,0.0,11.291,11.458,0.0,11.5871,11.8605,0.0,0.0,0.0,12.5059,12.5135,12.5438,12.6274,12.7944,0.0,0.0,13.5082,13.6828,13.7967,13.8195,13.9258,14.0017,14.0321,14.1764,14.2371,14.1612,14.2523,14.4118,14.6092,14.7307,14.8066,14.8142,14.8142,14.761,14.6168,14.5864,14.5712,14.5636,14.5408,14.556,14.5484,14.5332,14.5408,14.5256,14.4953,14.4801,14.4497,14.4497,14.4497,12.3029,11.8442,12.0234,12.1024,12.103,12.1034,12.1566,12.2401,12.2401,12.3009,12.392,12.392,12.392,12.392,12.392,0.0,0.0,0.0,12.7564,12.8552,12.8855,12.8476,12.7716,12.9994,13.0526,12.9615,13.1513,13.3487,13.5461,13.5461,13.5461,13.5537,0.0,0.0,13.8423,14.0777,14.2447,14.351,14.5181,14.632,14.7003,14.7003,14.6699,14.6016,14.6016,14.5256,14.351,14.184,13.9713,13.7132,13.2804,12.9387,0.0,0.0,0.0,0.0,0.0,0.0,0.0,0.0,0.0,0.0,0.0,10.2659,10.433,0.0,0.0,0.0,11.048,11.2834,11.4884,11.6251,0.0,0.0,0.0,0.0,0.0,0.0,0.0,12.1566,12.6501,13.0526,13.1741,13.1665,13.1817,13.2804,13.3563,13.4322,13.5385,0.0,13.8423,13.9789,14.0549,14.1536,14.3206,14.3206,14.2979,14.2979,14.3814,14.4118,14.3586,14.4345,14.4953,14.4953,14.4953,14.4953,14.4953,14.1612,13.8954,13.903,13.903,13.903,13.903,13.9789,14.0473,12.0324,0.0,0.0,0.0,0.0,11.4352,11.4732,11.5264,11.5264,11.5947,11.7086,11.7086,0.0,0.0,0.0,0.0,0.0,0.0,12.3464,12.4679,12.5818,12.5742,12.4679,12.6881,12.7261,12.6122,12.7564,12.9539,13.1665,12.9918,12.9463,13.0374,0.0,0.0,0.0,0.0,13.9789,14.108,14.3206,14.4497,14.4953,14.4953,14.4953,14.4953,14.4497,14.3282,14.108,13.9486,13.6828,13.3032,12.8552,0.0,0.0,0.0,0.0,0.0,0.0,0.0,0.0,0.0,0.0,0.0,0.0,0.0,0.0,0.0,0.0,0.0,0.0,0.0,11.1239,11.2302,11.3289,0.0,0.0,0.0,0.0,0.0,0.0,0.0,0.0,0.0,12.7792,12.6805,12.6881,0.0,0.0,13.045,13.1665,13.3183,13.493,13.6828,13.7132,0.0,13.9941,13.8951,13.8339,13.9705,14.0092,14.0321,14.0321,14.1308,14.2067,14.2067,14.2142,14.1838,14.0695,13.6671,13.3867,13.3639,13.3639,13.3639,13.3715,13.455,13.5309,0.0,0.0,0.0,0.0,0.0,0.0,0.0,0.0,11.0176,11.0252,0.0,11.0328,0.0,0.0,0.0,0.0,0.0,11.6858,0.0,0.0,11.7921,11.7769,11.7997,12.1186,12.2629,12.2933,12.7413,12.9767,12.9539,12.3464,0.0,0.0,0.0,0.0,0.0,0.0,13.7511,13.7663,14.0777,14.3358,14.4877,14.4953,14.4953,14.4953,14.3358,14.0928,13.7739,13.5993,13.288,12.7944,12.4451,0.0,0.0,0.0,0.0,0.0,0.0,0.0,0.0,0.0,0.0,0.0,0.0,0.0,0.0,0.0,0.0,0.0,0.0,0.0,0.0,10.5772,0.0,0.0,0.0,0.0,0.0,0.0,0.0,0.0,0.0,0.0,12.2477,12.2705,12.3844,12.7109,0.0,0.0,0.0,0.0,13.212,13.0678,13.0374,13.1589,13.4702,13.3841,13.4468,13.9107,0.0,0.0,13.5309,13.5309,13.5308,13.5222,13.5446,13.4378,13.1232,13.0237,13.0033,13.007,12.9918,13.0146,13.0146,12.9994,13.0221,0.0,0.0,0.0,0.0,0.0,0.0,0.0,0.0,0.0,10.3418,0.0,10.3418,0.0,0.0,0.0,0.0,0.0,0.0,0.0,0.0,11.3745,11.4808,11.5947,11.8149,11.9136,0.0,12.0958,12.0655,0.0,0.0,0.0,0.0,0.0,0.0,0.0,0.0,13.3183,13.4322,13.7511,14.0017,14.1612,14.1688,14.1688,14.1688,14.0093,13.7663,13.4398,13.0526,12.7185,0.0,0.0,0.0,0.0,0.0,0.0,0.0,0.0,0.0,0.0,0.0,0.0,0.0,0.0,0.0,0.0,0.0,0.0,0.0,0.0,0.0,0.0,0.0,10.6759,0.0,0.0,0.0,0.0,0.0,0.0,0.0,0.0,0.0,11.7693,11.944,12.1642,12.392,12.5666,12.6729,12.6729,0.0,0.0,0.0,0.0,0.0,0.0,0.0,13.1498,13.3178,13.2485,13.174,13.1809,13.1733,13.1733,13.1725,0.0,0.0,12.4469,12.3435,12.3454,12.344,12.2524,12.2144,12.3207,12.3435,12.4042,0.0,0.0,0.0,0.0,0.0,0.0,0.0,0.0,0.0,9.8255,9.8255,0.0,0.0,0.0,0.0,0.0,0.0,0.0,0.0,0.0,0.0,0.0,11.1771,11.3289,0.0,0.0,0.0,0.0,0.0,0.0,0.0,0.0,0.0,0.0,0.0,0.0,13.007,13.1817,13.5461,13.7967,13.9106,13.9638,13.9713,13.9106,13.8043,13.5917,13.2652,0.0,0.0,0.0,0.0,0.0,0.0,0.0,0.0,0.0,0.0,0.0,0.0,0.0,0.0,0.0,0.0,0.0,0.0,0.0,0.0,0.0,0.0,0.0,0.0,0.0,10.19,0.0,0.0,0.0,0.0,0.0,0.0,0.0,0.0,0.0,0.0,0.0,11.8301,12.0503,12.2249,12.3464,12.4072,12.5135,12.6426,0.0,0.0,0.0,0.0,0.0,0.0,0.0,0.0,0.0,0.0,0.0,0.0,0.0,0.0,12.4188,11.9148,11.8728,11.8894,11.8322,0.0,0.0,0.0,0.0,0.0,0.0,0.0,0.0,0.0,0.0,0.0,0.0,0.0,0.0,0.0,9.4762,0.0,0.0,9.4914,0.0,0.0,0.0,0.0,0.0,0.0,0.0,0.0,0.0,0.0,0.0,0.0,0.0,0.0,0.0,0.0,0.0,0.0,0.0,0.0,0.0,0.0,12.8172,12.9994,13.4626,13.7284,13.7436,13.903,13.903,13.7436,13.7284,13.5689,13.25,0.0,0.0,0.0,0.0,0.0,0.0,0.0,0.0,0.0,0.0,0.0,0.0,0.0,0.0,0.0,0.0,0.0,0.0,0.0,0.0,0.0,0.0,0.0,0.0,0.0,0.0,9.3092,9.8483,10.3494,0.0,0.0,0.0,0.0,0.0,0.0,0.0,0.0,0.0,0.0,11.8756,12.0351,12.2022,12.2401,12.3009,12.4603,12.3616,12.3763,12.6974,12.6045,12.6045,0.0,0.0,0.0,0.0,0.0,0.0,0.0,0.0,0.0,0.0,0.0,0.0,0.0,0.0,0.0,0.0,0.0,0.0,0.0,0.0,0.0,0.0,0.0,0.0,0.0,0.0,0.0,0.0,0.0,0.0,0.0,0.0,0.0,0.0,0.0,0.0,0.0,0.0,0.0,0.0,0.0,0.0,0.0,0.0,0.0,0.0,0.0,0.0,0.0,0.0,0.0,0.0,0.0,0.0,12.3616,12.6501,13.0298,13.3335,13.5613,13.6145,13.6221,13.5765,13.3487,13.1209,0.0,0.0,0.0,0.0,0.0,0.0,0.0,0.0,0.0,0.0,0.0,0.0,0.0,0.0,0.0,0.0,0.0,0.0,0.0,0.0,0.0,0.0,0.0,0.0,0.0,0.0,0.0,0.0,9.6433,9.947,10.0453,0.0,0.0,0.0,0.0,0.0,0.0,0.0,0.0,0.0,0.0,11.5339,11.6927,11.9211,12.0427,11.9736,12.2226,12.4181,12.4005,12.3541,12.3541,12.4527,0.0,0.0,0.0,0.0,0.0,0.0,0.0,0.0,0.0,0.0,0.0,0.0,0.0,0.0,0.0,0.0,0.0,0.0,0.0,0.0,0.0,0.0,0.0,0.0,0.0,0.0,0.0,0.0,0.0,0.0,0.0,0.0,0.0,0.0,0.0,0.0,0.0,0.0,0.0,0.0,0.0,0.0,0.0,0.0,0.0,0.0,0.0,0.0,0.0,0.0,0.0,0.0,0.0,12.0958,12.3085,12.8324,13.1665,13.3032,13.4246,13.4322,13.3183,13.1133,12.8324,0.0,0.0,0.0,0.0,0.0,0.0,0.0,0.0,0.0,0.0,0.0,0.0,0.0,0.0,0.0,0.0,0.0,0.0,0.0,0.0,0.0,0.0,0.0,0.0,0.0,0.0,0.0,0.0,9.2028,9.4229,9.5513,0.0,0.0,0.0,0.0,0.0,0.0,0.0,0.0,0.0,0.0,11.2897,11.388,11.5782,0.0,0.0,11.8549,11.9974,11.9595,11.9595,11.9595,11.9595,11.9215,0.0,0.0,0.0,0.0,0.0,0.0,0.0,0.0,0.0,0.0,0.0,0.0,0.0,0.0,0.0,0.0,0.0,0.0,0.0,0.0,0.0,0.0,0.0,0.0,0.0,0.0,0.0,0.0,0.0,0.0,0.0,0.0,0.0,0.0,0.0,0.0,0.0,0.0,0.0,0.0,0.0,0.0,0.0,0.0,0.0,0.0,0.0,0.0,0.0,0.0,0.0,0.0,0.0,12.0199,12.7716,13.1057,13.007,13.2728,13.2804,12.9842,12.9463,12.635,0.0,0.0,0.0,0.0,0.0,0.0,0.0,0.0,0.0,0.0,0.0,0.0,0.0,0.0,0.0,0.0,0.0,0.0,0.0,0.0,0.0,0.0,0.0,0.0,0.0,0.0,0.0,0.0,0.0,0.0,0.0,0.0,0.0,0.0,0.0,0.0,0.0,0.0,0.0,0.0,0.0,11.2098,11.2357,11.2485,11.2993,0.0,11.3372,11.2993,11.451,11.4738,11.4738,11.4738,0.0,0.0,0.0,0.0,0.0,0.0,0.0,0.0,0.0,0.0,0.0,0.0,0.0,0.0,0.0,0.0,0.0,0.0,0.0,0.0,0.0,0.0,0.0,0.0,0.0,0.0,0.0,0.0,0.0,0.0,0.0,0.0,0.0,0.0,0.0,0.0,0.0,0.0,0.0,0.0,0.0,0.0,0.0,0.0,0.0,0.0,0.0,0.0,0.0,0.0,0.0,0.0,0.0,0.0,11.9895,12.2022,12.4755,12.802,12.7716,12.7109,12.6274,12.3768,0.0,0.0,0.0,0.0,0.0,0.0,0.0,0.0,0.0,0.0,0.0,0.0,0.0,0.0,0.0,0.0,0.0,0.0,0.0,0.0,0.0,0.0,0.0,0.0,0.0,0.0,0.0,7.8133,0.0,0.0,0.0,0.0,0.0,0.0,0.0,0.0,0.0,0.0,0.0,0.0,0.0,0.0,10.7757,11.0277,11.1635,11.2158,0.0,0.0,11.3979,11.3145,11.2993,11.2993,0.0,0.0,0.0,0.0,0.0,0.0,0.0,0.0,0.0,0.0,0.0,0.0,0.0,0.0,0.0,0.0,0.0,0.0,0.0,0.0,0.0,0.0,0.0,0.0,0.0,0.0,0.0,0.0,0.0,0.0,0.0,0.0,0.0,0.0,0.0,0.0,0.0,0.0,0.0,0.0,0.0,0.0,0.0,0.0,0.0,0.0,0.0,0.0,0.0,0.0,0.0,0.0,0.0,0.0,11.4656,11.6782,12.0275,12.2781,12.4224,12.5438,12.5059,12.2857,12.0958,11.8908,0.0,0.0,0.0,0.0,0.0,0.0,0.0,0.0,0.0,0.0,0.0,0.0,0.0,0.0,0.0,0.0,0.0,0.0,0.0,0.0,0.0,0.0,0.0,0.0,0.0,0.0,0.0,0.0,0.0,0.0,0.0,0.0,0.0,0.0,0.0,0.0,0.0,0.0,0.0,0.0,0.0,0.0,10.7529,10.9199,0.0,0.0,0.0,11.2462,11.1475,0.0,0.0,0.0,0.0,0.0,0.0,0.0,0.0,0.0,0.0,0.0,0.0,0.0,0.0,0.0,0.0,0.0,0.0,0.0,0.0,0.0,0.0,0.0,0.0,0.0,0.0,0.0,0.0,0.0,0.0,0.0,0.0,0.0,0.0,0.0,0.0,0.0,0.0,0.0,0.0,0.0,0.0,0.0,0.0,0.0,0.0,0.0,0.0,0.0,0.0,0.0,0.0,0.0,0.0,0.0,0.0,0.0,11.3365,12.0047,12.2325,12.0275,12.392,12.392,11.9516,11.9212,11.701,0.0,0.0,0.0,0.0,0.0,0.0,0.0,0.0,0.0,0.0,0.0,0.0,0.0,0.0,0.0,0.0,0.0,0.0,0.0,0.0,0.0,0.0,0.0,0.0,0.0,0.0,0.0,0.0,0.0,0.0,0.0,0.0,0.0,0.0,0.0,0.0,0.0,0.0,0.0,0.0,0.0,10.4485,10.4873,10.6231,10.7132,0.0,0.0,10.9389,10.9313,10.7871,0.0,0.0,0.0,0.0,0.0,0.0,0.0,0.0,0.0,0.0,0.0,0.0,0.0,0.0,0.0,0.0,0.0,0.0,0.0,0.0,0.0,0.0,0.0,0.0,0.0,0.0,0.0,0.0,0.0,0.0,0.0,0.0,0.0,0.0,0.0,0.0,0.0,0.0,0.0,0.0,0.0,0.0,0.0,0.0,0.0,0.0,0.0,0.0,0.0,0.0,0.0,0.0,0.0,0.0,0.0,0.0,11.6175,11.5567,11.663,11.9668,11.8377,11.7086,11.6099,11.4732,11.3593,0.0,0.0,0.0,0.0,0.0,0.0,0.0,0.0,0.0,0.0,0.0,0.0,0.0,0.0,0.0,0.0,0.0,0.0,0.0,0.0,0.0,0.0,0.0,0.0,0.0,0.0,0.0,0.0,0.0,0.0,0.0,0.0,0.0,0.0,0.0,0.0,0.0,0.0,0.0,0.0,0.0,10.1906,10.457,10.5108,0.0,0.0,0.0,0.0,10.537,10.5047,0.0,0.0,0.0,0.0,0.0,0.0,0.0,0.0,0.0,0.0,0.0,0.0,0.0,0.0,0.0,0.0,0.0,0.0,0.0,0.0,0.0,0.0,0.0,0.0,0.0,0.0,0.0,0.0,0.0,0.0,0.0,0.0,0.0,0.0,0.0,0.0,0.0,0.0,0.0,0.0,0.0,0.0,0.0,0.0,0.0,0.0,0.0,0.0,0.0,0.0,0.0,0.0,0.0,0.0,0.0,0.0,11.2454,11.3365,11.5036,11.7466,11.7466,11.663,11.5112,11.3441,11.215,0.0,0.0,0.0,0.0,0.0,0.0,0.0,0.0,0.0,0.0,0.0,0.0,0.0,0.0,0.0,0.0,0.0,0.0,0.0,0.0,0.0,0.0,0.0,0.0,0.0,0.0,0.0,0.0,0.0,0.0,0.0,0.0,0.0,0.0,0.0,0.0,0.0,0.0,0.0,0.0,9.6898,9.8171,10.0786,0.0,0.0,0.0,0.0,0.0,0.0,10.2775,10.1672,0.0,0.0,0.0,0.0,0.0,0.0,0.0,0.0,0.0,0.0,0.0,0.0,0.0,0.0,0.0,0.0,0.0,0.0,0.0,0.0,0.0,0.0,0.0,0.0,0.0,0.0,0.0,0.0,0.0,0.0,0.0,0.0,0.0,0.0,0.0,0.0,0.0,0.0,0.0,0.0,0.0,0.0,0.0,0.0,0.0,0.0,0.0,0.0,0.0,0.0,0.0,0.0,0.0,0.0,0.0,10.7898,11.2075,11.4277,11.4277,11.7162,11.7314,11.4352,11.2834,11.1315,10.9569,0.0,0.0,0.0,0.0,0.0,0.0,0.0,0.0,0.0,0.0,0.0,0.0,0.0,0.0,0.0,0.0,0.0,0.0,0.0,0.0,0.0,0.0,0.0,0.0,0.0,0.0,0.0,0.0,0.0,0.0,0.0,0.0,0.0,0.0,0.0,0.0,0.0,0.0,0.0,9.2784,9.4481,0.0,0.0,0.0,0.0,0.0,0.0,0.0,0.0,9.7996,0.0,0.0,0.0,0.0,0.0,0.0,0.0,0.0,0.0,0.0,0.0,0.0,0.0,0.0,0.0,0.0,0.0,0.0,0.0,0.0,0.0,0.0,0.0,0.0,0.0,0.0,0.0,0.0,0.0,0.0,0.0,0.0,0.0,0.0,0.0,0.0,0.0,0.0,0.0,0.0,0.0,0.0,0.0,0.0,0.0,0.0,0.0,0.0,0.0,0.0,0.0,0.0,0.0,0.0,0.0,0.0,11.0404,11.0784,11.086,11.2682,11.2758,11.086,11.0556,10.9645,10.7898,0.0,0.0,0.0,0.0,0.0,0.0,0.0,0.0,0.0,0.0,0.0,0.0,0.0,0.0,0.0,0.0,0.0,0.0,0.0,0.0,0.0,0.0,0.0,0.0,0.0,0.0,0.0,0.0,0.0,0.0,0.0,0.0,0.0,0.0,0.0,0.0,0.0,0.0,8.5516,8.9443,0.0,0.0,0.0,0.0,0.0,0.0,0.0,0.0,9.4707,0.0,0.0,0.0,0.0,0.0,0.0,0.0,0.0,0.0,0.0,0.0,0.0,0.0,0.0,0.0,0.0,0.0,0.0,0.0,0.0,0.0,0.0,0.0,0.0,0.0,0.0,0.0,0.0,0.0,0.0,0.0,0.0,0.0,0.0,0.0,0.0,0.0,0.0,0.0,0.0,0.0,0.0,0.0,0.0,0.0,0.0,0.0,0.0,0.0,0.0,0.0,0.0,0.0,0.0,0.0,0.0,0.0,0.0,11.048,11.1315,11.215,11.2606,11.2606,11.0024,10.7443,0.0,0.0,0.0,0.0,0.0,0.0,0.0,0.0,0.0,0.0,0.0,0.0,0.0,0.0,0.0,0.0,0.0,0.0,0.0,0.0,0.0,0.0,0.0,0.0,0.0,0.0,0.0,0.0,0.0,0.0,0.0,0.0,0.0,0.0,0.0,0.0,0.0,0.0,0.0,0.0,0.0,0.0,0.0,0.0,0.0,0.0,0.0,0.0,0.0,0.0,0.0,0.0,0.0,0.0,0.0,0.0,0.0,0.0,0.0,0.0,0.0,0.0,0.0,0.0,0.0,0.0,0.0,0.0,0.0,0.0,0.0,0.0,0.0,0.0,0.0,0.0,0.0,0.0,0.0,0.0,0.0,0.0,0.0,0.0,0.0,0.0,0.0,0.0,0.0,0.0,0.0,0.0,0.0,0.0,0.0,0.0,0.0,0.0,0.0,0.0,0.0,0.0,0.0,0.0,0.0,0.0,0.0,0.0,11.0328,11.0936,11.1999,11.2834,11.3441,10.8885,10.5013,0.0,0.0,0.0,0.0,0.0,0.0,0.0,0.0,0.0,0.0,0.0,0.0,0.0,0.0,0.0,0.0,0.0,0.0,0.0,0.0,0.0,0.0,0.0,0.0,0.0,0.0,0.0,0.0,0.0,0.0,0.0,0.0,0.0,0.0,0.0,0.0,0.0,0.0,0.0,0.0,0.0,0.0,0.0,0.0,0.0,0.0,0.0,0.0,9.2006,0.0,0.0,0.0,0.0,0.0,0.0,0.0,0.0,0.0,0.0,0.0,0.0,0.0,0.0,0.0,0.0,0.0,0.0,0.0,0.0,0.0,0.0,0.0,0.0,0.0,0.0,0.0,0.0,0.0,0.0,0.0,0.0,0.0,0.0,0.0,0.0,0.0,0.0,0.0,0.0,0.0,0.0,0.0,0.0,0.0,0.0,0.0,0.0,0.0,0.0,0.0,0.0,0.0,0.0,0.0,0.0,0.0,0.0,0.0,10.8658,10.5924,11.0176,11.1163,10.8354,10.4861,10.2052,0.0,0.0,0.0,0.0,0.0,0.0,0.0,0.0,0.0,0.0,0.0,0.0,0.0,0.0,0.0,0.0,0.0,0.0,0.0,0.0,0.0,0.0,0.0,0.0,0.0,0.0,0.0,0.0,0.0,0.0,0.0,0.0,0.0,0.0,0.0,0.0,0.0,0.0,0.0,0.0,0.0,0.0,0.0,0.0,0.0,0.0,0.0,0.0,0.0,0.0,0.0,0.0,0.0,0.0,0.0,0.0,0.0,0.0,0.0,0.0,0.0,0.0,0.0,0.0,0.0,0.0,0.0,0.0,0.0,0.0,0.0,0.0,0.0,0.0,0.0,0.0,0.0,0.0,0.0,0.0,0.0,0.0,0.0,0.0,0.0,0.0,0.0,0.0,0.0,0.0,0.0,0.0,0.0,0.0,0.0,0.0,0.0,0.0,0.0,0.0,0.0,0.0,0.0,0.0,0.0,0.0,0.0,0.0,10.638,10.5089,10.7063,10.6987,10.4633,10.3191,10.1216,0.0,0.0,0.0,0.0,0.0,0.0,0.0,0.0,0.0,0.0,0.0,0.0,0.0,0.0,0.0,0.0,0.0,0.0,0.0,0.0,0.0,0.0,0.0,0.0,0.0,0.0,0.0,0.0,0.0,0.0,0.0,0.0,0.0,0.0,0.0,0.0,0.0,0.0,0.0,0.0,0.0,0.0,0.0,0.0,0.0,0.0,0.0,0.0,0.0,0.0,0.0,0.0,0.0,0.0,0.0,0.0,0.0,0.0,0.0,0.0,0.0,0.0,0.0,0.0,0.0,0.0,0.0,0.0,0.0,0.0,0.0,0.0,0.0,0.0,0.0,0.0,0.0,0.0,0.0,0.0,0.0,0.0,0.0,0.0,0.0,0.0,0.0,0.0,0.0,0.0,0.0,0.0,0.0,0.0,0.0,0.0,0.0,0.0,0.0,0.0,0.0,0.0,0.0,0.0,0.0,0.0,0.0,0.0,0.0,10.433,10.3874,10.3039,10.1824,10.1368,9.985,0.0,0.0,0.0,0.0,0.0,0.0,0.0,0.0,0.0,0.0,0.0,0.0,0.0,0.0,0.0,0.0,0.0,0.0,0.0,0.0,0.0,0.0,0.0,0.0,0.0,0.0,0.0,0.0,0.0,0.0,0.0,0.0,0.0,0.0,0.0,0.0,0.0,0.0,0.0,0.0,0.0,0.0,0.0,0.0,0.0,0.0,0.0,0.0,0.0,0.0,0.0,0.0,0.0,0.0,0.0,0.0,0.0,0.0,0.0,0.0,0.0,0.0,0.0,0.0,0.0,0.0,0.0,0.0,0.0,0.0,0.0,0.0,0.0,0.0,0.0,0.0,0.0,0.0,0.0,0.0,0.0,0.0,0.0,0.0,0.0,0.0,0.0,0.0,0.0,0.0,0.0,0.0,0.0,0.0,0.0,0.0,0.0,0.0,0.0,0.0,0.0,0.0,0.0,0.0,0.0,0.0,0.0,0.0,0.0,10.2583,10.0989,10.0153,10.0001,9.8635,9.6964,0.0,0.0,0.0,0.0,0.0,0.0,0.0,0.0,0.0,0.0,0.0,0.0,0.0,0.0,0.0,0.0,0.0,0.0,0.0,0.0,0.0,0.0,0.0,0.0,0.0,0.0,0.0,0.0,0.0,0.0,0.0,0.0,0.0,0.0,0.0,0.0,0.0,0.0,0.0,0.0,0.0,0.0,0.0,0.0,0.0,0.0,0.0,0.0,0.0,0.0,0.0,0.0,0.0,0.0,0.0,0.0,0.0,0.0,0.0,0.0,0.0,0.0,0.0,0.0,0.0,0.0,0.0,0.0,0.0,0.0,0.0,0.0,0.0,0.0,0.0,0.0,0.0,0.0,0.0,0.0,0.0,0.0,0.0,0.0,0.0,0.0,0.0,0.0,0.0,0.0,0.0,0.0,0.0,0.0,0.0,0.0,0.0,0.0,0.0,0.0,0.0,0.0,0.0,0.0,0.0,0.0,0.0,0.0,0.0,10.0837,9.9242,9.8483,9.8483,9.6888,9.5218,9.3547,0.0,0.0,0.0,0.0,0.0,0.0,0.0,0.0,0.0,0.0,0.0,0.0,0.0,0.0,0.0,0.0,0.0,0.0,0.0,0.0,0.0,0.0,0.0,0.0,0.0,0.0,0.0,0.0,0.0,0.0,0.0,0.0,0.0,0.0,0.0,0.0,0.0,0.0,0.0,0.0,0.0,0.0,0.0,0.0,0.0,0.0,0.0,0.0,0.0,0.0,0.0,0.0,0.0,0.0,0.0,0.0,0.0,0.0,0.0,0.0,0.0,0.0,0.0,0.0,0.0,0.0,0.0,0.0,0.0,0.0,0.0,0.0,0.0,0.0,0.0,0.0,0.0,0.0,0.0,0.0,0.0,0.0,0.0,0.0,0.0,0.0,0.0,0.0,0.0,0.0,0.0,0.0,0.0,0.0,0.0,0.0,0.0,0.0,0.0,0.0,0.0,0.0,0.0,0.0,0.0,0.0,0.0,0.0,9.8331,9.7344,9.6812,9.6736,9.5673,9.4231,0.0,0.0,0.0,0.0,0.0,0.0,0.0,0.0,0.0,0.0,0.0,0.0,0.0,0.0,0.0,0.0,0.0,0.0,0.0,0.0,0.0,0.0,0.0,0.0,0.0,0.0,0.0,0.0,0.0,0.0,0.0,0.0,0.0,0.0,0.0,0.0,0.0,0.0,0.0,0.0,0.0,0.0,0.0,0.0,0.0,0.0,0.0,0.0,0.0,0.0,0.0,0.0,0.0,0.0,0.0,0.0,0.0,0.0,0.0,0.0,0.0,0.0,0.0,0.0,0.0,0.0,0.0,0.0,0.0,0.0,0.0,0.0,0.0,0.0,0.0,0.0,0.0,0.0,0.0,0.0,0.0,0.0,0.0,0.0,0.0,0.0,0.0,0.0,0.0,0.0,0.0,0.0,0.0,0.0,0.0,0.0,0.0,0.0,0.0,0.0,0.0,0.0,0.0,0.0,0.0,0.0,0.0,0.0,9.3471,9.5066,9.5066,9.5142,9.5142,9.499,9.4231,0.0,0.0,0.0,0.0,0.0,0.0,0.0,0.0,0.0,0.0,0.0,0.0,0.0,0.0,0.0,0.0,0.0,0.0,0.0,0.0,0.0,0.0,0.0,0.0,0.0,0.0,0.0,0.0,0.0,0.0,0.0,0.0,0.0,0.0,0.0,0.0,0.0,0.0,0.0,0.0,0.0,0.0,0.0,0.0,0.0,0.0,0.0,0.0,0.0,0.0,0.0,0.0,0.0,0.0,0.0,0.0,0.0,0.0,0.0,0.0,0.0,0.0,0.0,0.0,0.0,0.0,0.0,0.0,0.0,0.0,0.0,0.0,0.0,0.0,0.0,0.0,0.0,0.0,0.0,0.0,0.0,0.0,0.0,0.0,0.0,0.0,0.0,0.0,0.0,0.0,0.0,0.0,0.0,0.0,0.0,0.0,0.0,0.0,0.0,0.0,0.0,0.0,0.0,0.0,0.0,0.0,0.0,0.0,0.0,9.332,0.0,9.4458,0.0,9.3471,9.1953,0.0,0.0,0.0,0.0,0.0,0.0,0.0,0.0,0.0,0.0,0.0,0.0,0.0,0.0,0.0,0.0,0.0,0.0,0.0,0.0,0.0,0.0,0.0,0.0,0.0,0.0,0.0,0.0,0.0,0.0,0.0,0.0,0.0,0.0,0.0,0.0,0.0,0.0,0.0,0.0,0.0,0.0,0.0,0.0,0.0,0.0,0.0,0.0,0.0,0.0,0.0,0.0,0.0,0.0,0.0,0.0,0.0,0.0,0.0,0.0,0.0,0.0,0.0,0.0,0.0,0.0,0.0,0.0,0.0,0.0,0.0,0.0,0.0,0.0,0.0,0.0,0.0,0.0,0.0,0.0,0.0,0.0,0.0,0.0,0.0,0.0,0.0,0.0,0.0,0.0,0.0,0.0,0.0,0.0,0.0,0.0,0.0,0.0,0.0,0.0,0.0,0.0,0.0,0.0,0.0,0.0,0.0,0.0,0.0,9.1573,9.1573,9.2636,9.4686,9.2332,9.1117,0.0,0.0,0.0,0.0,0.0,0.0,0.0,0.0,0.0,0.0,0.0,0.0,0.0,0.0,0.0,0.0,0.0,0.0,0.0,0.0,0.0,0.0,0.0,0.0,0.0,0.0,0.0,0.0,0.0,0.0,0.0,0.0,0.0,0.0,0.0,0.0,0.0,0.0,0.0,0.0,0.0,0.0,0.0,0.0,0.0,0.0,0.0,0.0,0.0,0.0,0.0,0.0,0.0,0.0,0.0,0.0,0.0,0.0,0.0,0.0,0.0,0.0,0.0,0.0,0.0,0.0,0.0,0.0,0.0,0.0,0.0,0.0,0.0,0.0,0.0,0.0,0.0,0.0,0.0,0.0,0.0,0.0,0.0,0.0,0.0,0.0,0.0,0.0,0.0,0.0,0.0,0.0,0.0,0.0,0.0,0.0,0.0,0.0,0.0,0.0,0.0,0.0,0.0,0.0,0.0,0.0,0.0,0.0,0.0,0.0,9.013,9.0054,8.9979,9.1345,9.1497,0.0,0.0,0.0,0.0,0.0,0.0,0.0,0.0,0.0,0.0,0.0,0.0,0.0,0.0,0.0,0.0,0.0,0.0,0.0,0.0,0.0,0.0,0.0,0.0,0.0,0.0,0.0,0.0,0.0,0.0,0.0,0.0,0.0,0.0,0.0,0.0,0.0,0.0,0.0,0.0,0.0,0.0,0.0,0.0,0.0,0.0,0.0,0.0,0.0,0.0,0.0,0.0,0.0,0.0,0.0,0.0,0.0,0.0,0.0,0.0,0.0,0.0,0.0,0.0,0.0,0.0,0.0,0.0,0.0,0.0,0.0,0.0,0.0,0.0,0.0,0.0,0.0,0.0,0.0,0.0,0.0,0.0,0.0,0.0,0.0,0.0,0.0,0.0,0.0,0.0,0.0,0.0,0.0,0.0,0.0,0.0,0.0,0.0,0.0,0.0,0.0,0.0,0.0,0.0,0.0,0.0,0.0,0.0,0.0,0.0,9.1193,0.0,8.8308,8.7397,8.7394,8.8202,0.0,0.0,0.0,0.0,0.0,0.0,0.0,0.0,0.0,0.0,0.0,0.0,0.0,0.0,0.0,0.0,0.0,0.0,0.0,0.0,0.0,0.0,0.0,0.0,0.0,0.0,0.0,0.0,0.0,0.0,0.0,0.0,0.0,0.0,0.0,0.0,0.0,0.0,0.0,0.0,0.0,0.0,0.0,0.0,0.0,0.0,0.0,0.0,0.0,0.0,0.0,0.0,0.0,0.0,0.0,0.0,0.0,0.0,0.0,0.0,0.0,0.0,0.0,0.0,0.0,0.0,0.0,0.0,0.0,0.0,0.0,0.0,0.0,0.0,0.0,0.0,0.0,0.0,0.0,0.0,0.0,0.0,0.0,0.0,0.0,0.0,0.0,0.0,0.0,0.0,0.0,0.0,0.0,0.0,0.0,0.0,0.0,0.0,0.0,0.0,0.0,0.0,0.0,0.0,0.0,0.0,0.0,0.0,0.0,0.0,0.0,8.7549,8.6486,8.6104,0.0,0.0,0.0,0.0,0.0,0.0,0.0,0.0,0.0,0.0,0.0,0.0,0.0,0.0,0.0,0.0,0.0,0.0,0.0,0.0,0.0,0.0,0.0,0.0,0.0,0.0,0.0,0.0,0.0,0.0,0.0,0.0,0.0,0.0,0.0,0.0,0.0,0.0,0.0,0.0,0.0,0.0,0.0,0.0,0.0,0.0,0.0,0.0,0.0,0.0,0.0,0.0,0.0,0.0,0.0,0.0,0.0,0.0,0.0,0.0,0.0,0.0,0.0,0.0,0.0,0.0,0.0,0.0,0.0,0.0,0.0,0.0,0.0,0.0,0.0,0.0,0.0,0.0,0.0,0.0,0.0,0.0,0.0,0.0,0.0,0.0,0.0,0.0,0.0,0.0,0.0,0.0,0.0,0.0,0.0,0.0,0.0,0.0,0.0,0.0,0.0,0.0,0.0,0.0,0.0,0.0,0.0,0.0,0.0,0.0,0.0,8.9067,8.7093,8.7321,0.0,8.4587,0.0,0.0,0.0,0.0,0.0,0.0,0.0,0.0,0.0,0.0,0.0,0.0,0.0,0.0,0.0,0.0,0.0,0.0,0.0,0.0,0.0,0.0,0.0,0.0,0.0,0.0,0.0,0.0,0.0,0.0,0.0,0.0,0.0,0.0,0.0,0.0,0.0,0.0,0.0,0.0,0.0,0.0,0.0,0.0,0.0,0.0,0.0,0.0,0.0,0.0,0.0,0.0,0.0,0.0,0.0,0.0,0.0,0.0,0.0,0.0,0.0,0.0,0.0,0.0,0.0,0.0,0.0,0.0,0.0,0.0,0.0,0.0,0.0,0.0,0.0,0.0,0.0,0.0,0.0,0.0,0.0,0.0,0.0,0.0,0.0,0.0,0.0,0.0,0.0,0.0,0.0,0.0,0.0,0.0,0.0,0.0,0.0,0.0,0.0,0.0,0.0,0.0,0.0,0.0,0.0,0.0,0.0,0.0,0.0,0.0,0.0,0.0,8.6071,8.5469,8.1219,0.0,0.0,0.0,0.0,0.0,0.0,0.0,0.0,0.0,0.0,0.0,0.0,0.0,0.0,0.0,0.0,0.0,0.0,0.0,0.0,0.0,0.0,0.0,0.0,0.0,0.0,0.0,0.0,0.0,0.0,0.0,0.0,0.0,0.0,0.0,0.0,0.0,0.0,0.0,0.0,0.0,0.0,0.0,0.0,0.0,0.0,0.0,0.0,0.0,0.0,0.0,0.0,0.0,0.0,0.0,0.0,0.0,0.0,0.0,0.0,0.0,0.0,0.0,0.0,0.0,0.0,0.0,0.0,0.0,0.0,0.0,0.0,0.0,0.0,0.0,0.0,0.0,0.0,0.0,0.0,0.0,0.0,0.0,0.0,0.0,0.0,0.0,0.0,0.0,0.0,0.0,0.0,0.0,0.0,0.0,0.0,0.0,0.0,0.0,0.0,0.0,0.0,0.0,0.0,0.0,0.0,0.0,0.0,0.0,0.0,8.6784,8.2632,8.4985,8.4302,8.0128,0.0,0.0,0.0,0.0,0.0,0.0,0.0,0.0,0.0,0.0,0.0,0.0,0.0,0.0,0.0,0.0,0.0,0.0,0.0,0.0,0.0,0.0,0.0,0.0,0.0,0.0,0.0,0.0,0.0,0.0,0.0,0.0,0.0,0.0,0.0,0.0,0.0,0.0,0.0,0.0,0.0,0.0,0.0,0.0,0.0,0.0,0.0,0.0,0.0,0.0,0.0,0.0,0.0,0.0,0.0,0.0,0.0,0.0,0.0,0.0,0.0,0.0,0.0,0.0,0.0,0.0,0.0,0.0,0.0,0.0,0.0,0.0,0.0,0.0,0.0,0.0,0.0,0.0,0.0,0.0,0.0,0.0,0.0,0.0,0.0,0.0,0.0,0.0,0.0,0.0,0.0,0.0,0.0,0.0,0.0,0.0,0.0,0.0,0.0,0.0,0.0,0.0,0.0,0.0,0.0,0.0,0.0,0.0,0.0,0.0,0.0,0.0,0.0,0.0,7.9976,0.0,0.0,0.0,0.0,0.0,0.0,0.0,0.0,0.0,0.0,0.0,0.0,0.0,0.0,0.0,0.0,0.0,0.0,0.0,0.0,0.0,0.0,0.0,0.0,0.0,0.0,0.0,0.0,0.0,0.0,0.0,0.0,0.0,0.0,0.0,0.0,0.0,0.0,0.0,0.0,0.0,0.0,0.0,0.0,0.0,0.0,0.0,0.0,0.0,0.0,0.0,0.0,0.0,0.0,0.0,0.0,0.0,0.0,0.0,0.0,0.0,0.0,0.0,0.0,0.0,0.0,0.0,0.0,0.0,0.0,0.0,0.0,0.0,0.0,0.0,0.0,0.0,0.0,0.0,0.0,0.0,0.0,0.0,0.0,0.0,0.0,0.0,0.0,0.0,0.0,0.0,0.0,0.0,0.0,0.0,0.0,0.0,0.0,0.0,0.0,0.0,0.0,0.0,0.0,0.0,0.0,0.0,0.0,0.0,0.0,0.0,0.0,0.0,0.0,0.0,0.0,0.0,0.0,0.0,0.0,0.0,0.0,0.0,0.0,0.0,0.0,0.0,0.0,0.0,0.0,0.0,0.0,0.0,0.0,0.0,0.0,0.0,0.0,0.0,0.0,0.0,0.0,0.0,0.0,0.0,0.0,0.0,0.0,0.0,0.0,0.0,0.0,0.0,0.0,0.0,0.0,0.0,0.0,0.0,0.0,0.0,0.0,0.0,0.0,0.0,0.0,0.0,0.0,0.0,0.0,0.0,0.0,0.0,0.0,0.0,0.0,0.0,0.0,0.0,0.0,0.0,0.0,0.0,0.0,0.0,0.0,0.0,0.0,0.0,0.0,0.0,0.0,0.0,0.0,0.0,0.0,0.0,0.0,0.0,0.0,0.0,0.0,0.0,0.0,0.0,0.0,0.0,0.0,0.0,0.0,0.0,0.0,0.0,0.0,0.0,0.0,0.0,0.0,0.0,0.0,0.0,0.0,0.0,0.0,0.0,0.0,0.0,0.0,0.0,0.0,0.0,0.0,0.0,0.0,0.0,0.0,0.0,0.0,0.0,0.0,0.0,0.0,0.0,0.0,0.0,0.0,0.0,0.0,0.0,0.0,0.0,0.0,0.0,0.0,0.0,0.0,0.0,0.0,0.0,0.0,0.0,0.0,0.0,0.0,0.0,0.0,0.0,0.0,0.0,0.0,0.0,0.0,0.0,0.0,0.0,0.0,0.0,0.0,0.0,0.0,0.0,0.0,0.0,0.0,0.0,0.0,0.0,0.0,0.0,0.0,0.0,0.0,0.0,0.0,0.0,0.0,0.0,0.0,0.0,0.0,0.0,0.0,0.0,0.0,0.0,0.0,0.0,0.0,0.0,0.0,0.0,0.0,0.0,0.0,0.0,0.0,0.0,0.0,0.0,0.0,0.0,0.0,0.0,0.0,0.0,0.0,0.0,0.0,0.0,0.0,0.0,0.0,0.0,0.0,0.0,0.0,0.0,0.0,0.0,0.0,0.0,0.0,0.0,0.0,0.0,0.0,0.0,0.0,0.0,0.0,0.0,0.0,0.0,0.0,0.0,0.0,0.0,0.0,0.0,0.0,0.0,0.0,0.0,0.0,0.0,0.0,0.0,0.0,0.0,0.0,0.0,0.0,0.0,0.0,0.0,0.0,0.0,0.0,0.0,0.0,0.0,0.0,0.0,0.0,0.0,0.0,0.0,0.0,0.0,0.0,0.0,0.0,0.0,0.0,0.0,0.0,0.0,0.0,0.0,0.0,0.0,0.0,0.0,0.0,0.0,0.0,0.0,0.0,0.0,0.0,0.0,0.0,0.0,0.0,0.0,0.0,0.0,0.0,0.0,0.0,0.0,0.0,0.0,0.0,0.0,0.0,0.0,0.0,0.0,0.0,0.0,0.0,0.0,0.0,0.0,0.0,0.0,0.0,0.0,0.0,0.0,0.0,0.0,0.0,0.0,0.0,0.0,0.0,0.0,0.0,0.0,0.0,0.0,0.0,0.0,0.0,0.0,0.0,0.0,0.0,0.0,0.0,0.0,0.0,0.0,0.0,0.0,0.0,0.0,0.0,0.0,0.0,0.0,0.0,0.0,0.0,0.0,0.0,0.0,0.0,0.0,0.0,0.0,0.0,0.0,0.0,0.0,0.0,0.0,0.0,0.0,0.0,0.0,0.0,0.0,0.0,0.0,0.0,0.0,0.0,0.0,0.0,0.0,0.0,0.0,0.0,0.0,0.0,0.0,0.0,0.0,0.0,0.0,0.0,0.0,0.0,0.0,0.0,0.0,0.0,0.0,0.0,0.0,0.0,0.0,0.0,0.0,0.0,0.0,0.0,0.0,0.0,0.0,0.0,0.0,0.0,0.0,0.0,0.0,0.0,0.0,0.0,0.0,0.0,0.0,0.0,0.0,0.0,0.0,0.0,0.0,0.0,0.0,0.0,0.0,0.0,0.0,0.0,0.0,0.0,0.0,0.0,0.0,0.0,0.0,0.0,0.0,0.0,0.0,0.0,0.0,0.0,0.0,0.0,0.0,0.0,0.0,0.0,0.0,0.0,0.0,0.0,0.0,0.0,0.0,0.0,0.0,0.0,0.0,0.0,0.0,0.0,0.0,0.0,0.0,0.0,0.0,0.0,0.0,0.0,0.0,0.0,0.0,0.0,0.0,0.0,0.0,0.0,0.0,0.0,0.0,0.0,0.0,0.0,0.0,0.0,0.0,0.0,0.0,0.0,0.0,0.0,0.0,0.0,0.0,0.0,0.0,0.0,0.0,0.0,0.0,0.0,0.0,0.0,0.0,0.0,0.0,0.0,0.0,0.0,0.0,0.0,0.0,0.0,0.0,0.0,0.0,0.0,0.0,0.0,0.0,0.0,0.0,0.0,0.0,0.0,0.0,0.0,0.0,0.0,0.0,0.0,0.0,0.0,0.0,0.0,0.0,0.0,0.0,0.0,0.0,0.0,0.0,0.0,0.0,0.0,0.0,0.0,0.0,0.0,0.0,0.0,0.0,0.0,0.0,0.0,0.0,0.0,0.0,0.0,0.0,0.0,0.0,0.0,0.0,0.0,0.0,0.0,0.0,0.0,0.0,0.0,0.0,0.0,0.0,0.0,0.0,0.0,0.0,0.0,0.0,0.0,0.0,0.0,0.0,0.0,0.0,0.0,0.0,0.0,0.0,0.0,0.0,0.0,0.0,0.0,0.0,0.0,0.0,0.0,0.0,0.0,0.0,0.0,0.0,0.0,0.0,0.0,0.0,0.0,0.0,0.0,0.0,0.0,0.0,0.0,0.0,0.0,0.0,0.0,0.0,0.0,0.0,0.0,0.0,0.0,0.0,0.0,0.0,0.0,0.0,0.0,0.0,0.0,0.0,0.0,0.0,0.0,0.0,0.0,0.0,0.0,0.0,0.0,0.0,0.0,0.0,0.0,0.0,0.0,0.0,0.0,0.0,0.0,0.0,0.0,0.0,0.0,0.0,0.0,0.0,0.0,0.0,0.0,0.0,0.0,0.0,0.0,0.0,0.0,0.0,0.0,0.0,0.0,0.0,0.0,0.0,0.0,0.0,0.0,0.0,0.0,0.0,0.0,0.0,0.0,0.0,0.0,0.0,0.0,0.0,0.0,0.0,0.0,0.0,0.0,0.0,0.0,0.0,0.0,0.0,0.0,0.0,0.0,0.0,0.0,0.0,0.0,0.0,0.0,0.0,0.0,0.0,0.0,0.0,0.0,0.0,0.0,0.0,0.0,0.0,0.0,0.0,0.0,0.0,0.0,0.0,0.0,0.0,0.0,0.0,0.0,0.0,0.0,0.0,0.0,0.0,0.0,0.0,0.0,0.0,0.0,0.0,0.0,0.0,0.0,0.0,0.0,0.0,0.0,0.0,0.0,0.0,0.0,0.0,0.0,0.0,0.0,0.0,0.0,0.0,0.0,0.0,0.0,0.0,0.0,0.0,0.0,0.0,0.0,0.0,0.0,0.0,0.0,0.0,0.0,0.0,0.0,0.0,0.0,0.0,0.0,0.0,0.0,0.0,0.0,0.0,0.0,0.0,0.0,0.0,0.0,0.0,0.0,0.0,0.0,0.0,0.0,0.0,0.0,0.0,0.0,0.0,0.0,0.0,0.0,0.0,0.0,0.0,0.0,0.0,0.0,0.0,0.0,0.0,0.0,0.0,0.0,0.0,0.0,0.0,0.0,0.0,0.0,0.0,0.0,0.0,0.0,0.0,0.0,0.0,0.0,0.0,0.0,0.0,0.0,0.0,0.0,0.0,0.0,0.0,0.0,0.0,0.0,0.0,0.0,0.0,0.0,0.0,0.0,0.0,0.0,0.0,0.0,0.0,0.0,0.0,0.0]}],[{"header":{"parameterUnit":"kt","parameterCategory":2,"dx":1,"dy":1,"la1":29.587661999999998,"la2":31.0,"lo1":-88.76705300000003,"lo2":-86.6583820000003,"nx":115,"ny":88,"refTime":"2022-10-13T12:00:00:Z","depth":0,"parameterNumber":2,"parameterNumberName":"V-component_of_WINDS"},"data":[2.9509,2.9509,2.9509,2.9509,2.9509,2.9509,2.943,2.9886,3.0755,3.1455,3.1462,3.1196,3.1262,3.1262,3.1262,3.1262,3.1262,3.1262,3.1262,3.1262,3.1262,3.1262,3.1262,3.1262,3.1262,3.1262,3.1262,3.1262,3.1262,3.1262,3.1262,3.1262,3.1262,3.1262,3.1262,3.1262,3.1262,3.1262,3.1262,3.1262,3.1262,3.1262,3.1262,3.1262,3.1262,3.1262,3.1262,3.1262,3.1262,3.1302,3.0604,2.6277,1.9201,1.1364,0.6278,0.4713,0.3927,0.4707,0.5878,0.6243,0.5426,0.5363,0.6076,0.6026,0.5981,0.5954,0.5933,0.5933,0.5933,0.5933,0.5933,0.5933,0.6304,0.8179,1.265,1.874,2.4126,2.4554,2.4221,2.7379,2.9833,2.8795,2.8881,2.8585,2.7541,2.7272,2.5703,2.5412,2.5434,2.3499,2.195,1.4877,0.6656,0.0,0.0,0.0,0.0,0.0,0.0,0.0,0.0,0.0,0.0,0.0,0.0,0.0,0.0,0.0,0.0,0.0,0.0,0.0,0.0,0.0,0.0,2.9509,2.9509,2.9509,2.9509,2.9509,2.9509,2.9707,2.9651,3.0675,3.1374,3.1262,3.1144,3.1249,3.1262,3.1262,3.1262,3.1262,3.1262,3.1262,3.1262,3.1262,3.1262,3.1262,3.1262,3.1262,3.1262,3.1262,3.1262,3.1262,3.1262,3.1262,3.1262,3.1262,3.1262,3.1262,3.1262,3.1262,3.1262,3.1262,3.1262,3.1262,3.1262,3.1262,3.1262,3.1262,3.1262,3.1262,3.1262,3.1262,3.1315,3.0993,2.5477,1.8022,0.9798,0.5101,0.0,0.0,0.3535,0.5103,0.5878,0.4673,0.4639,0.5366,0.5694,0.564,0.5602,0.5944,0.5933,0.5933,0.5933,0.5933,0.5933,0.5933,0.7051,1.3351,1.9332,2.4253,2.8077,2.8139,2.8586,2.7612,2.4715,2.4769,2.5191,2.493,2.5485,2.5198,2.4929,2.4226,2.1107,1.6021,0.7813,0.0,0.0,0.0,0.0,0.0,0.0,0.0,0.0,0.0,0.0,0.0,0.0,0.0,0.0,0.0,0.0,0.0,0.0,0.0,0.0,0.0,0.0,0.0,2.9509,2.9509,2.9509,2.9509,2.9509,2.9509,2.968,2.9599,3.0274,3.0862,3.1401,3.1422,3.1262,3.1262,3.1262,3.1262,3.1262,3.1262,3.1262,3.1262,3.1262,3.1262,3.1262,3.1262,3.1262,3.1262,3.1262,3.1262,3.1262,3.1262,3.1262,3.1262,3.1262,3.1262,3.1262,3.1262,3.1262,3.1262,3.1262,3.1262,3.1262,3.1262,3.1262,3.1262,3.1262,3.1262,3.1262,3.1262,3.1262,3.1302,3.1368,2.5455,1.448,0.6664,0.2356,0.0,0.0,0.1964,0.3927,0.4313,0.2735,0.3881,0.4621,0.3813,0.3777,0.3758,0.4112,0.5933,0.5933,0.5933,0.5933,0.5933,0.5933,0.5563,1.0374,1.3333,1.6331,2.2699,2.6857,2.4657,1.8334,1.6557,1.9265,1.9675,1.94,1.9535,2.4749,2.5273,2.0639,1.7154,0.9351,0.0,0.0,0.0,0.0,0.0,0.0,0.0,0.0,0.0,0.0,0.0,0.0,0.0,0.0,0.0,0.0,0.0,0.0,0.0,0.0,0.0,0.0,0.0,0.0,2.9509,2.9509,2.9509,2.9509,2.9509,2.9509,2.9641,2.9495,3.0168,3.0715,3.1266,3.1289,3.117,3.1249,3.1262,3.1262,3.1262,3.1262,3.1262,3.1262,3.1262,3.1262,3.1262,3.1262,3.1262,3.1262,3.1262,3.1262,3.1262,3.1262,3.1262,3.1262,3.1262,3.1262,3.1262,3.1262,3.1262,3.1262,3.1262,3.1262,3.1262,3.1262,3.1262,3.1262,3.1262,3.1262,3.1262,3.1262,3.1262,3.1276,3.1328,2.2682,0.8601,0.3137,0.0,0.0,0.0,0.0,0.2749,0.1962,0.1175,0.2337,0.2709,0.1915,0.152,0.1513,0.2631,0.4845,0.5933,0.5933,0.5933,0.5933,0.5563,0.5563,0.5931,0.556,0.556,1.4091,2.2659,1.6709,0.8175,0.8577,1.2355,1.3541,1.2858,1.6374,2.2279,2.1214,1.6209,0.0,0.0,0.0,0.0,0.0,0.0,0.0,0.0,0.0,0.0,0.0,0.0,0.0,0.0,0.0,0.0,0.0,0.0,0.0,0.0,0.0,0.0,0.0,0.0,0.0,0.0,2.9509,2.9509,2.9509,2.9509,2.9509,2.9509,2.9535,2.9588,3.0261,3.0541,3.1212,3.1115,3.1025,3.1236,3.1262,3.1262,3.1262,3.1262,3.1262,3.1262,3.1262,3.1262,3.1262,3.1262,3.1262,3.1262,3.1262,3.1262,3.1262,3.1262,3.1262,3.1262,3.1262,3.1262,3.1262,3.1262,3.1262,3.1262,3.1262,3.1262,3.1262,3.1262,3.1262,3.1262,3.1262,3.1262,3.1262,3.1262,3.1262,3.1302,2.9752,2.4646,1.3297,0.0,0.0,0.0,0.0,0.0,0.0,0.0,0.0,0.0,0.0,0.0,0.0,0.1904,0.3393,0.5602,0.5939,0.5933,0.5933,0.5933,0.5933,0.5563,0.5563,0.5563,0.556,0.9634,1.5194,1.1114,0.0,0.0,0.0,0.0,0.0,0.0,2.0851,1.5195,0.0,0.0,0.0,0.0,0.0,0.0,0.0,0.0,0.0,0.0,0.0,0.0,0.0,0.0,0.0,0.0,0.0,0.0,0.0,0.0,0.0,0.0,0.0,0.0,0.0,0.0,0.0,2.9509,2.9509,2.9509,2.9509,2.9509,2.9509,2.9509,2.9575,3.0208,3.0501,3.0808,3.0695,3.0972,3.121,3.1249,3.1262,3.1262,3.1262,3.1262,3.1262,3.1262,3.1262,3.1262,3.1262,3.1262,3.1262,3.1262,3.1262,3.1262,3.1262,3.1262,3.1262,3.1262,3.1262,3.1262,3.1262,3.1262,3.1262,3.1262,3.1262,3.1262,3.1262,3.1262,3.1262,3.1262,3.1262,3.1262,3.1276,3.1289,3.1302,2.8223,2.271,1.3291,0.0,0.0,0.0,0.0,0.0,0.0,0.0,0.0,0.0,0.0,0.0,0.0,0.0,0.3407,0.5243,0.5587,0.5933,0.5933,0.5933,0.5933,0.5933,0.5933,0.5933,0.6672,0.7412,0.6295,0.4442,0.0,0.0,0.0,0.0,0.0,0.0,0.0,0.0,0.0,0.0,0.0,0.0,0.0,0.0,0.0,0.0,0.0,0.0,0.0,0.0,0.0,0.0,0.0,0.0,0.0,0.0,0.0,0.0,0.0,0.0,0.0,0.0,0.0,0.0,0.0,2.9509,2.9509,2.9509,2.9509,2.9509,2.9509,2.9509,2.9535,2.9733,3.0368,3.0287,3.0577,3.0827,3.1131,3.1223,3.1249,3.1262,3.1262,3.1262,3.1262,3.1262,3.1262,3.1262,3.1262,3.1262,3.1262,3.1262,3.1262,3.1262,3.1262,3.1262,3.1262,3.1262,3.1262,3.1262,3.1262,3.1262,3.1262,3.1262,3.1262,3.1262,3.1262,3.1262,3.1262,3.1262,3.1262,3.1262,3.1276,3.0127,2.9739,2.6667,1.8803,1.0558,0.0,0.0,0.0,0.0,0.0,0.0,0.0,0.0,0.0,0.0,0.0,0.0,0.0,0.152,0.3384,0.4847,0.4083,0.3707,0.5192,0.5933,0.5563,0.4821,0.4819,0.4819,0.556,0.519,0.3333,0.1853,0.0,0.0,0.0,0.0,0.0,0.0,0.0,0.0,0.0,0.0,0.0,0.0,0.0,0.0,0.0,0.0,0.0,0.0,0.0,0.0,0.0,0.0,0.0,0.0,0.0,0.0,0.0,0.0,0.0,0.0,0.0,0.0,0.0,0.0,2.9509,2.9509,2.9509,2.9509,2.9509,2.9509,2.9509,2.9509,2.9535,2.972,3.0368,3.03,3.0564,3.084,3.1117,3.121,3.121,3.1249,3.1249,3.1262,3.1262,3.1262,3.1262,3.1262,3.1262,3.1262,3.1262,3.1262,3.1262,3.1262,3.1262,3.1262,3.1262,3.1262,3.1262,3.1262,3.1262,3.1262,3.1262,3.1262,3.1262,3.1262,3.1262,3.1262,3.1262,3.1262,3.1276,3.0902,2.9339,2.6233,2.3909,1.4089,0.0,0.0,0.0,0.0,0.0,0.0,0.0,0.0,0.0,0.0,0.0,0.0,0.0,0.0,0.0,0.0,0.2987,0.2231,0.1483,0.3336,0.0,0.0,0.0,0.4078,0.3707,0.0,0.0,0.0,0.0,0.0,0.0,0.0,0.0,0.0,0.0,0.0,0.0,0.0,0.0,0.0,0.0,0.0,0.0,0.0,0.0,0.0,0.0,0.0,0.0,0.0,0.0,0.0,0.0,0.0,0.0,0.0,0.0,0.0,0.0,0.0,0.0,0.0,0.0,2.9509,2.9509,2.9509,2.9509,2.9509,2.9509,2.9509,2.9509,2.9522,2.968,3.0301,3.0063,3.0274,3.0564,3.0827,3.0972,3.0999,3.1144,3.1249,3.1262,3.1249,3.1223,3.1236,3.1262,3.1236,3.1262,3.1262,3.1262,3.1262,3.1262,3.1262,3.1262,3.1262,3.1262,3.1262,3.1262,3.1262,3.1262,3.1262,3.1262,3.1262,3.1262,3.1262,3.1262,3.1262,3.1276,3.1289,3.0514,2.9364,2.2691,1.5638,0.5082,0.0,0.0,0.0,0.0,0.0,0.0,0.0,0.0,0.0,0.0,0.0,0.0,0.0,0.0,0.0,0.0,0.0,0.0,0.0,0.0742,0.0,0.0,0.0,0.0,0.0,0.0,0.0,0.0,0.0,0.0,0.0,0.0,0.0,0.0,0.0,0.0,0.0,0.0,0.0,0.0,0.0,0.0,0.0,0.0,0.0,0.0,0.0,0.0,0.0,0.0,0.0,0.0,0.0,0.0,0.0,0.0,0.0,0.0,0.0,0.0,0.0,0.0,0.0,2.9509,2.9509,2.9509,2.9509,2.9509,2.9509,2.9509,2.9509,2.9522,2.9627,3.0167,2.9931,3.0089,3.0287,3.0524,3.0682,3.0709,3.0933,3.1355,3.1342,3.1315,3.1409,3.1476,3.1476,3.1157,3.1223,3.1262,3.1262,3.1249,3.1262,3.1262,3.1262,3.1262,3.1262,3.1262,3.1262,3.1262,3.1262,3.1262,3.1262,3.1262,3.1262,3.1262,3.1262,3.1276,3.1276,3.1302,2.9364,2.7822,2.3909,0.9773,0.0,0.0,0.0,0.0,0.0,0.0,0.0,0.0,0.0,0.0,0.0,0.0,0.0,0.0,0.0,0.0,0.0,0.0,0.0,0.0,0.0,0.0,0.0,0.0,0.0,0.0,0.0,0.0,0.0,0.0,0.0,0.0,0.0,0.0,0.0,0.0,0.0,0.0,0.0,0.0,0.0,0.0,0.0,0.0,0.0,0.0,0.0,0.0,0.0,0.0,0.0,0.0,0.0,0.0,0.0,0.0,0.0,0.0,0.0,0.0,0.0,0.0,0.0,0.0,2.9509,2.9509,2.9509,2.9509,2.9509,2.9509,2.9509,2.9509,2.9509,2.9535,2.9588,2.9799,2.9931,3.001,3.026,3.0379,3.0419,3.0458,3.0511,3.0915,3.0968,3.1022,3.1129,3.1222,3.1289,3.117,3.1196,3.117,3.121,3.1236,3.1249,3.1262,3.1262,3.1262,3.1262,3.1262,3.1262,3.1262,3.1262,3.1262,3.1262,3.1262,3.1262,3.1262,3.1276,3.0501,2.9739,2.741,2.3499,1.9591,0.5871,0.0,0.0,0.0,0.0,0.0,0.0,0.0,0.0,0.0,0.0,0.0,0.0,0.0,0.0,0.0,0.0,0.0,0.0,0.0,0.0,0.0,0.0,0.0,0.0,0.0,0.0,0.0,0.0,0.0,0.0,0.0,0.0,0.0,0.0,0.0,0.0,0.0,0.0,0.0,0.0,0.0,0.0,0.0,0.0,0.0,0.0,0.0,0.0,0.0,0.0,0.0,0.0,0.0,0.0,0.0,0.0,0.0,0.0,0.0,0.0,0.0,0.0,0.0,0.0,2.9509,2.9509,2.9509,2.9509,2.9509,2.9509,2.9509,2.9509,2.9509,2.9509,2.9522,2.9588,2.9641,2.9733,2.9944,3.0089,3.0142,2.9873,2.9964,2.9977,3.0339,3.0445,3.0498,3.0942,3.0982,3.0669,3.0801,3.0946,3.0959,3.117,3.1196,3.121,3.1262,3.1249,3.1249,3.1262,3.1262,3.1262,3.1262,3.1262,3.1262,3.1262,3.1262,3.1262,3.1289,3.0127,2.7399,2.3868,1.8787,1.0176,0.0,0.0,0.0,0.0,0.0,0.0,0.0,0.0,0.0,0.0,0.0,0.0,0.0,0.0,0.0,0.0,0.0,0.0,0.0,0.0,0.0,0.0,0.0,0.0,0.0,0.0,0.0,0.0,0.0,0.0,0.0,0.0,0.0,0.0,0.0,0.0,0.0,0.0,0.0,0.0,0.0,0.0,0.0,0.0,0.0,0.0,0.0,0.0,0.0,0.0,0.0,0.0,0.0,0.0,0.0,0.0,0.0,0.0,0.0,0.0,0.0,0.0,0.0,0.0,0.0,2.9509,2.9509,2.9509,2.9509,2.9509,2.9509,2.9509,2.9509,2.9509,2.9509,2.9509,2.9509,2.9509,2.9561,2.972,2.9786,2.9812,2.9612,2.9625,2.9664,2.9704,2.9756,3.0221,3.0635,3.0688,3.0445,3.0564,3.0656,3.0695,3.0933,3.1012,3.0999,3.1012,3.1065,3.1157,3.1183,3.1236,3.1262,3.1262,3.1262,3.1262,3.1262,3.1262,3.1262,3.1289,2.8963,2.5045,1.955,0.0,0.0,0.0,0.0,0.0,0.0,0.0,0.0,0.0,0.0,0.0,0.0,0.0,0.0,0.0,0.0,0.0,0.0,0.0,0.0,0.0,0.0,0.0,0.0,0.0,0.0,0.0,0.0,0.0,0.0,0.0,0.0,0.0,0.0,0.0,0.0,0.0,0.0,0.0,0.0,0.0,0.0,0.0,0.0,0.0,0.0,0.0,0.0,0.0,0.0,0.0,0.0,0.0,0.0,0.0,0.0,0.0,0.0,0.0,0.0,0.0,0.0,0.0,0.0,0.0,0.0,0.0,2.9482,2.9482,2.9509,2.9509,2.9509,2.9509,2.9509,2.9509,2.9509,2.9509,2.9509,2.9509,2.9509,2.9522,2.9548,2.9548,2.9522,2.9509,2.9588,2.9588,2.9535,2.9733,2.9852,3.0341,3.0421,3.0234,3.0339,3.0366,3.0432,3.0603,3.055,3.0445,3.029,3.0761,3.1249,3.1422,3.1157,3.1157,3.1249,3.1249,3.1262,3.1262,3.1262,3.1276,3.0915,2.9364,2.4656,0.0,0.0,0.0,0.0,0.0,0.0,0.0,0.0,0.0,0.0,0.0,0.0,0.0,0.0,0.0,0.0,0.0,0.0,0.0,0.0,0.0,0.0,0.0,0.0,0.0,0.0,0.0,0.0,0.0,0.0,0.0,0.0,0.0,0.0,0.0,0.0,0.0,0.0,0.0,0.0,0.0,0.0,0.0,0.0,0.0,0.0,0.0,0.0,0.0,0.0,0.0,0.0,0.0,0.0,0.0,0.0,0.0,0.0,0.0,0.0,0.0,0.0,0.0,0.0,0.0,0.0,0.0,0.0,2.9205,2.9219,2.943,2.9509,2.9509,2.9509,2.9509,2.9509,2.9509,2.9509,2.9509,2.9509,2.9509,2.9509,2.9509,2.9509,2.9509,2.9509,2.9509,2.9509,2.9522,2.9561,2.9627,2.9641,2.9693,2.9733,2.997,3.0063,3.0089,3.0128,3.0168,2.9704,2.9964,3.0471,3.0968,3.1155,3.1329,3.1342,3.1131,3.1236,3.1262,3.1262,3.1276,3.1289,3.0928,2.9376,2.3509,0.0,0.0,0.0,0.0,0.0,0.0,0.0,0.0,0.0,0.0,0.0,0.0,0.0,0.0,0.0,0.0,0.0,0.0,0.0,0.0,0.0,0.0,0.0,0.0,0.0,0.0,0.0,0.0,0.0,0.0,0.0,0.0,0.0,0.0,0.0,0.0,0.0,0.0,0.0,0.0,0.0,0.0,0.0,0.0,0.0,0.0,0.0,0.0,0.0,0.0,0.0,0.0,0.0,0.0,0.0,0.0,0.0,0.0,0.0,0.0,0.0,0.0,0.0,0.0,0.0,0.0,0.0,0.0,2.9166,2.9285,2.9456,2.9509,2.9509,2.9509,2.9509,2.9509,2.9509,2.9509,2.9509,2.9509,2.9509,2.9509,2.9509,2.9509,2.9509,2.9509,2.9509,2.9509,2.9509,2.9509,2.9509,2.9509,2.9509,2.9588,2.9667,2.9786,2.9759,2.9772,2.9759,2.943,2.9664,2.9834,3.0234,3.0875,3.0995,3.1115,3.1302,3.1117,3.1223,3.1262,3.1276,3.1315,2.9364,2.7445,2.1569,0.0,0.0,0.0,0.0,0.0,0.0,0.0,0.0,0.0,0.0,0.0,0.0,0.0,0.0,0.0,0.0,0.0,0.0,0.0,0.0,0.0,0.0,0.0,0.0,0.0,0.0,0.0,0.0,0.0,0.0,0.0,0.0,0.0,0.0,0.0,0.0,0.0,0.0,0.0,0.0,0.0,0.0,0.0,0.0,0.0,0.0,0.0,0.0,0.0,0.0,0.0,0.0,0.0,0.0,0.0,0.0,0.0,0.0,0.0,0.0,0.0,0.0,0.0,0.0,0.0,0.0,0.0,0.0,2.9245,2.9456,2.9496,2.9509,2.9509,2.9509,2.9509,2.9509,2.9509,2.9509,2.9509,2.9509,2.9509,2.9509,2.9509,2.9509,2.9509,2.9509,2.9509,2.9509,2.9509,2.9509,2.9509,2.9509,2.9509,2.9522,2.9535,2.9509,2.9548,2.9561,2.9535,2.9575,2.9417,2.9534,2.9931,3.0194,3.0728,3.1171,3.063,3.0867,3.1065,3.1117,3.1144,2.9228,2.4918,2.0226,1.6743,0.0,0.0,0.0,0.0,0.0,0.0,0.0,0.0,0.0,0.0,0.0,0.0,0.0,0.0,0.0,0.0,0.0,0.0,0.0,0.0,0.0,0.0,0.0,0.0,0.0,0.0,0.0,0.0,0.0,0.0,0.0,0.0,0.0,0.0,0.0,0.0,0.0,0.0,0.0,0.0,0.0,0.0,0.0,0.0,0.0,0.0,0.0,0.0,0.0,0.0,0.0,0.0,0.0,0.0,0.0,0.0,0.0,0.0,0.0,0.0,0.0,0.0,0.0,0.0,0.0,0.0,0.0,0.0,2.914,2.9205,2.9416,2.9509,2.9509,2.9509,2.9509,2.9509,2.9509,2.9509,2.9509,2.9509,2.9509,2.9509,2.9509,2.9509,2.9509,2.9509,2.9509,2.9509,2.9509,2.9509,2.9509,2.9509,2.9509,2.9509,2.9144,2.9509,2.9509,2.9144,2.9509,2.9548,2.9548,2.9601,2.968,2.9944,3.0381,3.0515,3.0326,3.0107,3.0185,3.0237,2.9897,2.9923,1.3732,0.0,0.0,0.0,0.0,0.0,0.0,0.0,0.0,0.0,0.0,0.0,0.0,0.0,0.0,0.0,0.0,0.0,0.0,0.0,0.0,0.0,0.0,0.0,0.0,0.0,0.0,0.0,0.0,0.0,0.0,0.0,0.0,0.0,0.0,0.0,0.0,0.0,0.0,0.0,0.0,0.0,0.0,0.0,0.0,0.0,0.0,0.0,0.0,0.0,0.0,0.0,0.0,0.0,0.0,0.0,0.0,0.0,0.0,0.0,0.0,0.0,0.0,0.0,0.0,0.0,0.0,0.0,0.0,0.0,0.0,2.9298,2.9311,2.9456,2.9509,2.9509,2.9509,2.9509,2.9509,2.9509,2.9509,2.9509,2.9509,2.9509,2.9509,2.9509,2.9509,2.9509,2.9509,2.9509,2.9509,2.9509,2.9509,2.9509,2.9509,2.9509,2.9144,2.7657,2.7291,2.9144,2.7657,2.7657,2.8778,2.9548,2.9561,2.9614,2.9378,2.9825,2.8718,2.6244,2.5623,2.9808,3.0042,2.4358,1.8634,0.0,0.0,0.0,0.0,0.0,0.0,0.0,0.0,0.0,0.0,0.0,0.0,0.0,0.0,0.0,0.0,0.0,0.0,0.0,0.0,0.0,0.0,0.0,0.0,0.0,0.0,0.0,0.0,0.0,0.0,0.0,0.0,0.0,0.0,0.0,0.0,0.0,0.0,0.0,0.0,0.0,0.0,0.0,0.0,0.0,0.0,0.0,0.0,0.0,0.0,0.0,0.0,0.0,0.0,0.0,0.0,0.0,0.0,0.0,0.0,0.0,0.0,0.0,0.0,0.0,0.0,0.0,0.0,0.0,0.0,0.0,2.9509,2.9509,2.9509,2.9509,2.9509,2.9509,2.9509,2.9509,2.9509,2.9509,2.9509,2.9509,2.9509,2.9509,2.9509,2.9509,2.9509,2.9509,2.9509,2.9509,2.9509,2.9509,2.9509,2.9509,2.9131,2.8035,2.5816,2.5084,2.5828,2.4718,2.3985,2.6572,2.6974,2.5118,2.4762,2.7058,2.6334,2.5219,2.194,2.1637,2.6197,2.7492,2.3814,0.8299,0.3396,0.0,0.0,0.0,0.0,0.0,0.0,0.0,0.0,0.0,0.0,0.0,0.0,0.0,0.0,0.0,0.0,0.0,0.0,0.0,0.0,0.0,0.0,0.0,0.0,0.0,0.0,0.0,0.0,0.0,0.0,0.0,0.0,0.0,0.0,0.0,0.0,0.0,0.0,0.0,0.0,0.0,0.0,0.0,0.0,0.0,0.0,0.0,0.0,0.0,0.0,0.0,0.0,0.0,0.0,0.0,0.0,0.0,0.0,0.0,0.0,0.0,0.0,0.0,0.0,0.0,0.0,0.0,0.0,0.0,0.0,2.9509,2.9509,2.9509,2.9509,2.9509,2.9509,2.9509,2.9509,2.9509,2.9509,2.9509,2.9509,2.9509,2.9509,2.9509,2.9509,2.9509,2.9509,2.9509,2.9509,2.9509,2.9509,2.9509,2.8778,2.7657,2.4707,2.3241,2.1774,2.0305,1.8835,1.9203,1.9203,1.9579,1.734,1.3267,1.5508,1.9974,2.0333,1.814,1.8156,2.0405,2.4939,1.9366,0.6701,0.0,0.0,0.0,0.0,0.0,0.0,0.0,0.0,0.0,0.0,0.0,0.0,0.0,0.0,0.0,0.0,0.0,0.0,0.0,0.0,0.0,0.0,0.0,0.0,0.0,0.0,0.0,0.0,0.0,0.0,0.0,0.0,0.0,0.0,0.0,0.0,0.0,0.0,0.0,0.0,0.0,0.0,0.0,0.0,0.0,0.0,0.0,0.0,0.0,0.0,0.0,0.0,0.0,0.0,0.0,0.0,0.0,0.0,0.0,0.0,0.0,0.0,0.0,0.0,0.0,0.0,0.0,0.0,0.0,0.0,0.0,2.9509,2.9509,2.9509,2.9509,2.9509,2.9509,2.9509,2.9509,2.9509,2.9509,2.9509,2.9509,2.9509,2.9509,2.9509,2.9509,2.9509,2.9509,2.9509,2.9509,2.9509,2.9509,2.9509,2.7291,2.4352,2.0673,1.8827,1.8091,1.7363,1.6266,1.4409,1.1801,1.1443,0.9227,0.7748,0.9613,1.369,1.5911,1.4047,1.2923,1.4764,1.701,1.1089,0.5915,0.0,0.0,0.0,0.0,0.0,0.0,0.0,0.0,0.0,0.0,0.0,0.0,0.0,0.0,0.0,0.0,0.0,0.0,0.0,0.0,0.0,0.0,0.0,0.0,0.0,0.0,0.0,0.0,0.0,0.0,0.0,0.0,0.0,0.0,0.0,0.0,0.0,0.0,0.0,0.0,0.0,0.0,0.0,0.0,0.0,0.0,0.0,0.0,0.0,0.0,0.0,0.0,0.0,0.0,0.0,0.0,0.0,0.0,0.0,0.0,0.0,0.0,0.0,0.0,0.0,0.0,0.0,0.0,0.0,0.0,0.0,2.9509,2.9509,2.9509,2.9509,2.9509,2.9509,2.9509,2.9509,2.9509,2.9509,2.9509,2.9509,2.9509,2.9509,2.9509,2.9509,2.9509,2.9509,2.9509,2.9509,2.9509,2.9522,2.8817,2.4352,2.0305,1.6627,1.3315,1.2946,1.3684,1.2207,0.9982,0.6645,0.7023,0.5917,0.5917,0.7036,0.9268,1.2969,0.9621,0.887,1.0715,0.8874,0.7029,0.5917,0.2594,0.0,0.0,0.0,0.0,0.0,0.0,0.0,0.0,0.0,0.0,0.0,0.0,0.0,0.0,0.0,0.0,0.0,0.0,0.0,0.0,0.0,0.0,0.0,0.0,0.0,0.0,0.0,0.0,0.0,0.0,0.0,0.0,0.0,0.0,0.0,0.0,0.0,0.0,0.0,0.0,0.0,0.0,0.0,0.0,0.0,0.0,0.0,0.0,0.0,0.0,0.0,0.0,0.0,0.0,0.0,0.0,0.0,0.0,0.0,0.0,0.0,0.0,0.0,0.0,0.0,0.0,0.0,0.0,0.0,0.0,2.9509,2.9509,2.9509,2.9509,2.9509,2.9509,2.9509,2.9509,2.9509,2.9509,2.9509,2.9509,2.9509,2.9509,2.9509,2.9509,2.9509,2.9509,2.9509,2.9522,2.9535,2.8085,2.6679,2.0701,1.6258,1.2946,1.2207,1.0365,0.889,0.7783,0.6672,0.6295,0.5928,0.5931,0.5931,0.5931,0.6304,0.7783,0.6672,0.7039,0.7039,0.6669,0.5928,0.5558,0.3336,0.1483,0.0,0.0,0.0,0.0,0.0,0.0,0.0,0.0,0.0,0.0,0.0,0.0,0.0,0.0,0.0,0.0,0.0,0.0,0.0,0.0,0.0,0.0,0.0,0.0,0.0,0.0,0.0,0.0,0.0,0.0,0.0,0.0,0.0,0.0,0.0,0.0,0.0,0.0,0.0,0.0,0.0,0.0,0.0,0.0,0.0,0.0,0.0,0.0,0.0,0.0,0.0,0.0,0.0,0.0,0.0,0.0,0.0,0.0,0.0,0.0,0.0,0.0,0.0,0.0,0.0,0.0,0.0,0.0,0.0,2.9509,2.9509,2.9509,2.9509,2.9509,2.9509,2.9509,2.9509,2.9509,2.9509,2.9509,2.9509,2.9509,2.9509,2.9509,2.9509,2.9509,2.9509,2.9535,2.9561,2.9196,2.4017,1.7379,1.5911,1.2207,0.889,0.852,0.7412,0.6304,0.5933,0.5933,0.5933,0.5933,0.5933,0.5933,0.5933,0.5933,0.5933,0.5933,0.5933,0.5933,0.5933,0.5933,0.5563,0.2966,0.1112,0.0,0.0,0.0,0.0,0.0,0.0,0.0,0.0,0.0,0.0,0.0,0.0,0.0,0.0,0.0,0.0,0.0,0.0,0.0,0.0,0.0,0.0,0.0,0.0,0.0,0.0,0.0,0.0,0.0,0.0,0.0,0.0,0.0,0.0,0.0,0.0,0.0,0.0,0.0,0.0,0.0,0.0,0.0,0.0,0.0,0.0,0.0,0.0,0.0,0.0,0.0,0.0,0.0,0.0,0.0,0.0,0.0,0.0,0.0,0.0,0.0,0.0,0.0,0.0,0.0,0.0,0.0,0.0,0.0,2.9509,2.9509,2.9509,2.9509,2.9509,2.9509,2.9509,2.9509,2.9509,2.9509,2.9509,2.9509,2.9509,2.9509,2.9509,2.9509,2.9522,2.9535,2.9561,2.8855,2.5851,1.6215,0.8866,0.8878,0.889,0.6675,0.6304,0.5933,0.5933,0.5933,0.5933,0.5933,0.5933,0.5933,0.5933,0.5933,0.5933,0.5933,0.5933,0.5933,0.5933,0.5933,0.5933,0.5563,0.2224,0.0,0.0,0.0,0.0,0.0,0.0,0.0,0.0,0.0,0.0,0.0,0.0,0.0,0.0,0.0,0.0,0.0,0.0,0.0,0.0,0.0,0.0,0.0,0.0,0.0,0.0,0.0,0.0,0.0,0.0,0.0,0.0,0.0,0.0,0.0,0.0,0.0,0.0,0.0,0.0,0.0,0.0,0.0,0.0,0.0,0.0,0.0,0.0,0.0,0.0,0.0,0.0,0.0,0.0,0.0,0.0,0.0,0.0,0.0,0.0,0.0,0.0,0.0,0.0,0.0,0.0,0.0,0.0,0.0,0.0,2.9509,2.9509,2.9509,2.9509,2.9509,2.9509,2.9509,2.9509,2.9509,2.9509,2.9509,2.9509,2.9509,2.9509,2.9509,2.9509,2.9522,2.9561,2.9601,2.6229,1.8034,1.0677,0.7393,0.7036,0.6672,0.5933,0.5933,0.5933,0.5933,0.5933,0.5933,0.5933,0.5933,0.5933,0.5933,0.5933,0.5933,0.5933,0.5933,0.5933,0.5933,0.5933,0.5933,0.5933,0.0,0.0,0.0,0.0,0.0,0.0,0.0,0.0,0.0,0.0,0.0,0.0,0.0,0.0,0.0,0.0,0.0,0.0,0.0,0.0,0.0,0.0,0.0,0.0,0.0,0.0,0.0,0.0,0.0,0.0,0.0,0.0,0.0,0.0,0.0,0.0,0.0,0.0,0.0,0.0,0.0,0.0,0.0,0.0,0.0,0.0,0.0,0.0,0.0,0.0,0.0,0.0,0.0,0.0,0.0,0.0,0.0,0.0,0.0,0.0,0.0,0.0,0.0,0.0,0.0,0.0,0.0,0.0,0.0,0.0,0.0,2.9509,2.9509,2.9509,2.9509,2.9509,2.9509,2.9509,2.9509,2.9509,2.9509,2.9509,2.9509,2.9509,2.9509,2.9509,2.9509,2.9522,2.9535,2.9601,2.8185,2.2579,1.8148,1.3351,0.8527,0.5933,0.5933,0.5933,0.5933,0.5933,0.5933,0.5933,0.5933,0.5933,0.5933,0.5933,0.5933,0.5933,0.5933,0.5933,0.5933,0.5933,0.5933,0.5933,0.5563,0.2225,0.0,0.0,0.0,0.0,0.0,0.0,0.0,0.0,0.0,0.0,0.0,0.0,0.0,0.0,0.0,0.0,0.0,0.0,0.0,0.0,0.0,0.0,0.0,0.0,0.0,0.0,0.0,0.0,0.0,0.0,0.0,0.0,0.0,0.0,0.0,0.0,0.0,0.0,0.0,0.0,0.0,0.0,0.0,0.0,0.0,0.0,0.0,0.0,0.0,0.0,0.0,0.0,0.0,0.0,0.0,0.0,0.0,0.0,0.0,0.0,0.0,0.0,0.0,0.0,0.0,0.0,0.0,0.0,0.0,0.0,2.9509,2.9509,2.9509,2.9509,2.9509,2.9509,2.9509,2.9509,2.9509,2.9509,2.9509,2.9509,2.9509,2.9509,2.9509,2.9509,2.9509,2.9535,2.811,2.5576,2.2998,1.8172,1.3351,0.8523,0.5928,0.5933,0.5933,0.5933,0.5933,0.5933,0.5933,0.5933,0.5933,0.5933,0.5933,0.5933,0.5933,0.5933,0.5933,0.5933,0.5933,0.5933,0.5192,0.4078,0.0,0.0,0.0,0.0,0.0,0.0,0.0,0.0,0.0,0.0,0.0,0.0,0.0,0.0,0.0,0.0,0.0,0.0,0.0,0.0,0.0,0.0,0.0,0.0,0.0,0.0,0.0,0.0,0.0,0.0,0.0,0.0,0.0,0.0,0.0,0.0,0.0,0.0,0.0,0.0,0.0,0.0,0.0,0.0,0.0,0.0,0.0,0.0,0.0,0.0,0.0,0.0,0.0,0.0,0.0,0.0,0.0,0.0,0.0,0.0,0.0,0.0,0.0,0.0,0.0,0.0,0.0,0.0,0.0,0.0,0.0,2.9496,2.9469,2.9509,2.9482,2.9482,2.9496,2.9509,2.9509,2.9509,2.9509,2.9509,2.9509,2.9509,2.9509,2.9509,2.9144,2.8413,2.7328,2.365,1.7731,1.1065,0.7751,0.7026,0.6287,0.5923,0.5933,0.5933,0.5933,0.5933,0.5933,0.5933,0.5933,0.5933,0.5933,0.5933,0.5933,0.5933,0.5933,0.5933,0.5933,0.5933,0.5563,0.3707,0.0741,0.0,0.0,0.0,0.0,0.0,0.0,0.0,0.0,0.0,0.0,0.0,0.0,0.0,0.0,0.0,0.0,0.0,0.0,0.0,0.0,0.0,0.0,0.0,0.0,0.0,0.0,0.0,0.0,0.0,0.0,0.0,0.0,0.0,0.0,0.0,0.0,0.0,0.0,0.0,0.0,0.0,0.0,0.0,0.0,0.0,0.0,0.0,0.0,0.0,0.0,0.0,0.0,0.0,0.0,0.0,0.0,0.0,0.0,0.0,0.0,0.0,0.0,0.0,0.0,0.0,0.0,0.0,0.0,0.0,0.0,0.0,2.8929,2.8968,2.9153,2.9232,2.9258,2.943,2.9509,2.9509,2.9509,2.9509,2.9509,2.9509,2.9509,2.9509,2.9509,2.6926,2.1407,1.5847,1.2164,0.9604,0.7383,0.5912,0.5925,0.5925,0.5928,0.5933,0.5933,0.5933,0.5933,0.5933,0.5933,0.5933,0.5933,0.5933,0.5933,0.5933,0.5933,0.5933,0.5933,0.5192,0.3707,0.2595,0.1112,0.0,0.0,0.0,0.0,0.0,0.0,0.0,0.0,0.0,0.0,0.0,0.0,0.0,0.0,0.0,0.0,0.0,0.0,0.0,0.0,0.0,0.0,0.0,0.0,0.0,0.0,0.0,0.0,0.0,0.0,0.0,0.0,0.0,0.0,0.0,0.0,0.0,0.0,0.0,0.0,0.0,0.0,0.0,0.0,0.0,0.0,0.0,0.0,0.0,0.0,0.0,0.0,0.0,0.0,0.0,0.0,0.0,0.0,0.0,0.0,0.0,0.0,0.0,0.0,0.0,0.0,0.0,0.0,0.0,0.0,0.0,0.0,2.8652,2.8665,2.8863,2.8942,2.8955,2.9126,2.9205,2.9205,2.958,2.9567,2.9567,2.9205,2.8534,2.7157,2.596,2.154,1.5348,0.8759,0.5854,0.5886,0.5888,0.5904,0.5931,0.5933,0.5933,0.5933,0.5933,0.5933,0.5933,0.5933,0.5933,0.5933,0.5933,0.5933,0.5933,0.5933,0.5933,0.5933,0.5192,0.4078,0.1854,0.0741,0.0,0.0,0.0,0.0,0.0,0.0,0.0,0.0,0.0,0.0,0.0,0.0,0.0,0.0,0.0,0.0,0.0,0.0,0.0,0.0,0.0,0.0,0.0,0.0,0.0,0.0,0.0,0.0,0.0,0.0,0.0,0.0,0.0,0.0,0.0,0.0,0.0,0.0,0.0,0.0,0.0,0.0,0.0,0.0,0.0,0.0,0.0,0.0,0.0,0.0,0.0,0.0,0.0,0.0,0.0,0.0,0.0,0.0,0.0,0.0,0.0,0.0,0.0,0.0,0.0,0.0,0.0,0.0,0.0,0.0,0.0,0.0,0.0,2.8612,2.8599,2.8612,2.8612,2.8639,2.8665,2.8665,2.8704,2.9046,2.9401,2.9428,2.8691,2.6287,2.2125,1.9071,1.5056,1.1135,0.7543,0.5782,0.5835,0.5841,0.5872,0.5923,0.5928,0.5928,0.5923,0.5928,0.5933,0.5933,0.5933,0.5933,0.5933,0.5933,0.5933,0.5933,0.5933,0.5933,0.5933,0.4448,0.2224,0.0,0.0,0.0,0.0,0.0,0.0,0.0,0.0,0.0,0.0,0.0,0.0,0.0,0.0,0.0,0.0,0.0,0.0,0.0,0.0,0.0,0.0,0.0,0.0,0.0,0.0,0.0,0.0,0.0,0.0,0.0,0.0,0.0,0.0,0.0,0.0,0.0,0.0,0.0,0.0,0.0,0.0,0.0,0.0,0.0,0.0,0.0,0.0,0.0,0.0,0.0,0.0,0.0,0.0,0.0,0.0,0.0,0.0,0.0,0.0,0.0,0.0,0.0,0.0,0.0,0.0,0.0,0.0,0.0,0.0,0.0,0.0,0.0,0.0,0.0,2.8032,2.8032,2.8032,2.8137,2.8348,2.8193,2.7917,2.793,2.8652,2.9006,2.8652,2.5788,2.1082,1.4959,1.35,1.1053,0.7543,0.611,0.5764,0.5782,0.5785,0.6155,0.6177,0.6214,0.587,0.5875,0.5909,0.5931,0.5933,0.5933,0.5933,0.5933,0.5933,0.5933,0.5933,0.5933,0.5933,0.5933,0.5563,0.3338,0.0,0.0,0.0,0.0,0.0,0.0,0.0,0.0,0.0,0.0,0.0,0.0,0.0,0.0,0.0,0.0,0.0,0.0,0.0,0.0,0.0,0.0,0.0,0.0,0.0,0.0,0.0,0.0,0.0,0.0,0.0,0.0,0.0,0.0,0.0,0.0,0.0,0.0,0.0,0.0,0.0,0.0,0.0,0.0,0.0,0.0,0.0,0.0,0.0,0.0,0.0,0.0,0.0,0.0,0.0,0.0,0.0,0.0,0.0,0.0,0.0,0.0,0.0,0.0,0.0,0.0,0.0,0.0,0.0,0.0,0.0,0.0,0.0,0.0,0.0,2.7505,2.761,2.7623,2.7781,2.8045,2.7867,2.7933,2.7946,2.7972,2.8348,2.7608,2.1041,1.4667,0.907,0.873,0.7734,0.5684,0.3908,0.3207,0.322,0.3578,0.4303,0.5764,0.616,0.5448,0.4724,0.4748,0.4772,0.4787,0.4791,0.443,0.3705,0.5192,0.5933,0.5933,0.5933,0.5933,0.5933,0.4448,0.2596,0.0,0.0,0.0,0.0,0.0,0.0,0.0,0.0,0.0,0.0,0.0,0.0,0.0,0.0,0.0,0.0,0.0,0.0,0.0,0.0,0.0,0.0,0.0,0.0,0.0,0.0,0.0,0.0,0.0,0.0,0.0,0.0,0.0,0.0,0.0,0.0,0.0,0.0,0.0,0.0,0.0,0.0,0.0,0.0,0.0,0.0,0.0,0.0,0.0,0.0,0.0,0.0,0.0,0.0,0.0,0.0,0.0,0.0,0.0,0.0,0.0,0.0,0.0,0.0,0.0,0.0,0.0,0.0,0.0,0.0,0.0,0.0,0.0,0.0,0.0,2.7069,2.7294,2.7307,2.7478,2.7689,2.7716,2.7716,2.7729,2.7781,2.7119,2.4268,1.497,0.8486,0.5811,0.5488,0.5175,0.4524,0.1392,0.0,0.0,0.0,0.1777,0.502,0.5391,0.4315,0.2877,0.2521,0.2535,0.2552,0.2553,0.1832,0.0738,0.37,0.5553,0.5925,0.5928,0.5933,0.5563,0.1852,0.0,0.0,0.0,0.0,0.0,0.0,0.0,0.0,0.0,0.0,0.0,0.0,0.0,0.0,0.0,0.0,0.0,0.0,0.0,0.0,0.0,0.0,0.0,0.0,0.0,0.0,0.0,0.0,0.0,0.0,0.0,0.0,0.0,0.0,0.0,0.0,0.0,0.0,0.0,0.0,0.0,0.0,0.0,0.0,0.0,0.0,0.0,0.0,0.0,0.0,0.0,0.0,0.0,0.0,0.0,0.0,0.0,0.0,0.0,0.0,0.0,0.0,0.0,0.0,0.0,0.0,0.0,0.0,0.0,0.0,0.0,0.0,0.0,0.0,0.0,0.0,2.6951,2.7004,2.7004,2.7043,2.7096,2.7109,2.7135,2.7188,2.7551,2.139,1.1192,0.8123,0.609,0.5424,0.4071,0.2718,0.1362,0.0341,0.0,0.0,0.0,0.0348,0.1406,0.1418,0.1067,0.0712,0.0717,0.0721,0.0722,0.0722,0.0362,0.0,0.0731,0.2933,0.5867,0.5909,0.4448,0.1482,0.0368,0.0,0.0,0.0,0.0,0.0,0.0,0.0,0.0,0.0,0.0,0.0,0.0,0.0,0.0,0.0,0.0,0.0,0.0,0.0,0.0,0.0,0.0,0.0,0.0,0.0,0.0,0.0,0.0,0.0,0.0,0.0,0.0,0.0,0.0,0.0,0.0,0.0,0.0,0.0,0.0,0.0,0.0,0.0,0.0,0.0,0.0,0.0,0.0,0.0,0.0,0.0,0.0,0.0,0.0,0.0,0.0,0.0,0.0,0.0,0.0,0.0,0.0,0.0,0.0,0.0,0.0,0.0,0.0,0.0,0.0,0.0,0.0,0.0,0.0,0.0,0.0,2.6595,2.6713,2.6713,2.6793,2.6898,2.6898,2.6604,2.5963,2.0322,1.2931,0.5651,0.4326,0.3673,0.3019,0.2013,0.1009,0.0,0.0,0.0,0.0,0.0,0.0,0.0,0.0,0.0,0.0,0.0,0.0,0.0,0.0,0.0,0.0,0.0,0.1089,0.3266,0.3284,0.22,0.0,0.0,0.0,0.0,0.0,0.0,0.0,0.0,0.0,0.0,0.0,0.0,0.0,0.0,0.0,0.0,0.0,0.0,0.0,0.0,0.0,0.0,0.0,0.0,0.0,0.0,0.0,0.0,0.0,0.0,0.0,0.0,0.0,0.0,0.0,0.0,0.0,0.0,0.0,0.0,0.0,0.0,0.0,0.0,0.0,0.0,0.0,0.0,0.0,0.0,0.0,0.0,0.0,0.0,0.0,0.0,0.0,0.0,0.0,0.0,0.0,0.0,0.0,0.0,0.0,0.0,0.0,0.0,0.0,0.0,0.0,0.0,0.0,0.0,0.0,0.0,0.0,0.0,2.6199,2.6423,2.6423,2.6568,2.6779,2.6779,2.6474,2.5121,1.3403,0.682,0.4568,0.2937,0.1313,0.0,0.0,0.0,0.0,0.0,0.0,0.0,0.0,0.0,0.0,0.0,0.0,0.0,0.0,0.0,0.0,0.0,0.0,0.0,0.0,0.0,0.0,0.0,0.0,0.0,0.0,0.0,0.0,0.0,0.0,0.0,0.0,0.0,0.0,0.0,0.0,0.0,0.0,0.0,0.0,0.0,0.0,0.0,0.0,0.0,0.0,0.0,0.0,0.0,0.0,0.0,0.0,0.0,0.0,0.0,0.0,0.0,0.0,0.0,0.0,0.0,0.0,0.0,0.0,0.0,0.0,0.0,0.0,0.0,0.0,0.0,0.0,0.0,0.0,0.0,0.0,0.0,0.0,0.0,0.0,0.0,0.0,0.0,0.0,0.0,0.0,0.0,0.0,0.0,0.0,0.0,0.0,0.0,0.0,0.0,0.0,0.0,0.0,0.0,0.0,0.0,0.0,2.6081,2.6133,2.6133,2.616,2.6199,2.6199,2.6212,2.5862,0.0,0.0,0.0,0.0646,0.0325,0.0,0.0,0.0,0.0,0.0,0.0,0.0,0.0,0.0,0.0,0.0,0.0,0.0,0.0,0.0,0.0,0.0,0.0,0.0,0.0,0.0,0.0,0.0,0.0,0.0,0.0,0.0,0.0,0.0,0.0,0.0,0.0,0.0,0.0,0.0,0.0,0.0,0.0,0.0,0.0,0.0,0.0,0.0,0.0,0.0,0.0,0.0,0.0,0.0,0.0,0.0,0.0,0.0,0.0,0.0,0.0,0.0,0.0,0.0,0.0,0.0,0.0,0.0,0.0,0.0,0.0,0.0,0.0,0.0,0.0,0.0,0.0,0.0,0.0,0.0,0.0,0.0,0.0,0.0,0.0,0.0,0.0,0.0,0.0,0.0,0.0,0.0,0.0,0.0,0.0,0.0,0.0,0.0,0.0,0.0,0.0,0.0,0.0,0.0,0.0,0.0,0.0,2.5474,0.0,2.5619,2.5619,0.0,2.5645,2.1356,1.3908,1.3187,0.7881,0.0,0.0,0.0,0.0,0.0,0.0,0.0,0.0,0.0,0.0,0.0,0.0,0.0,0.0,0.0,0.0,0.0,0.0,0.0,0.0,0.0,0.0,0.0,0.0,0.0,0.0,0.0,0.0,0.0,0.0,0.0,0.0,0.0,0.0,0.0,0.0,0.0,0.0,0.0,0.0,0.0,0.0,0.0,0.0,0.0,0.0,0.0,0.0,0.0,0.0,0.0,0.0,0.0,0.0,0.0,0.0,0.0,0.0,0.0,0.0,0.0,0.0,0.0,0.0,0.0,0.0,0.0,0.0,0.0,0.0,0.0,0.0,0.0,0.0,0.0,0.0,0.0,0.0,0.0,0.0,0.0,0.0,0.0,0.0,0.0,0.0,0.0,0.0,0.0,0.0,0.0,0.0,0.0,0.0,0.0,0.0,0.0,0.0,0.0,0.0,0.0,0.0,0.0,0.0,0.0,2.4495,2.4393,2.4084,2.3774,2.3154,2.1924,1.4294,0.2768,0.1542,0.0622,0.0,0.0,0.0,0.0,0.0,0.0,0.0,0.0,0.0,0.0,0.0,0.0,0.0,0.0,0.0,0.0,0.0,0.0,0.0,0.0,0.0,0.0,0.0,0.0,0.0,0.0,0.0,0.0,0.0,0.0,0.0,0.0,0.0,0.0,0.0,0.0,0.0,0.0,0.0,0.0,0.0,0.0,0.0,0.0,0.0,0.0,0.0,0.0,0.0,0.0,0.0,0.0,0.0,0.0,0.0,0.0,0.0,0.0,0.0,0.0,0.0,0.0,0.0,0.0,0.0,0.0,0.0,0.0,0.0,0.0,0.0,0.0,0.0,0.0,0.0,0.0,0.0,0.0,0.0,0.0,0.0,0.0,0.0,0.0,0.0,0.0,0.0,0.0,0.0,0.0,0.0,0.0,0.0,0.0,0.0,0.0,0.0,0.0,0.0,0.0,0.0,0.0,0.0,0.0,0.0,2.2858,2.046,2.046,1.8933,1.618,1.0077,0.6104,0.4267,0.4278,0.2757,0.0,0.0,0.0,0.0,0.0,0.0,0.0,0.0,0.0,0.0,0.0,0.0,0.0,0.0,0.0,0.0,0.0,0.0,0.0,0.0,0.0,0.0,0.0,0.0,0.0,0.0,0.0,0.0,0.0,0.0,0.0,0.0,0.0,0.0,0.0,0.0,0.0,0.0,0.0,0.0,0.0,0.0,0.0,0.0,0.0,0.0,0.0,0.0,0.0,0.0,0.0,0.0,0.0,0.0,0.0,0.0,0.0,0.0,0.0,0.0,0.0,0.0,0.0,0.0,0.0,0.0,0.0,0.0,0.0,0.0,0.0,0.0,0.0,0.0,0.0,0.0,0.0,0.0,0.0,0.0,0.0,0.0,0.0,0.0,0.0,0.0,0.0,0.0,0.0,0.0,0.0,0.0,0.0,0.0,0.0,0.0,0.0,0.0,0.0,0.0,0.0,0.0,0.0,0.0,0.0,1.7949,1.6869,1.699,1.3967,0.9174,0.602,0.4627,0.4685,0.2932,0.1478,0.0,0.0,0.0,0.0,0.0,0.0,0.0,0.0,0.0,0.0,0.0,0.0,0.0,0.0,0.0,0.0,0.0,0.0,0.0,0.0,0.0,0.0,0.0,0.0,0.0,0.0,0.0,0.0,0.0,0.0,0.0,0.0,0.0,0.0,0.0,0.0,0.0,0.0,0.0,0.0,0.0,0.0,0.0,0.0,0.0,0.0,0.0,0.0,0.0,0.0,0.0,0.0,0.0,0.0,0.0,0.0,0.0,0.0,0.0,0.0,0.0,0.0,0.0,0.0,0.0,0.0,0.0,0.0,0.0,0.0,0.0,0.0,0.0,0.0,0.0,0.0,0.0,0.0,0.0,0.0,0.0,0.0,0.0,0.0,0.0,0.0,0.0,0.0,0.0,0.0,0.0,0.0,0.0,0.0,0.0,0.0,0.0,0.0,0.0,0.0,0.0,0.0,0.0,0.0,0.0,1.3914,1.4048,1.2789,0.899,0.4134,0.3856,0.3622,0.3405,0.1135,0.0,0.0,0.0,0.0,0.0,0.0,0.0,0.0,0.0,0.0,0.0,0.0,0.0,0.0,0.0,0.0,0.0,0.0,0.0,0.0,0.0,0.0,0.0,0.0,0.0,0.0,0.0,0.0,0.0,0.0,0.0,0.0,0.0,0.0,0.0,0.0,0.0,0.0,0.0,0.0,0.0,0.0,0.0,0.0,0.0,0.0,0.0,0.0,0.0,0.0,0.0,0.0,0.0,0.0,0.0,0.0,0.0,0.0,0.0,0.0,0.0,0.0,0.0,0.0,0.0,0.0,0.0,0.0,0.0,0.0,0.0,0.0,0.0,0.0,0.0,0.0,0.0,0.0,0.0,0.0,0.0,0.0,0.0,0.0,0.0,0.0,0.0,0.0,0.0,0.0,0.0,0.0,0.0,0.0,0.0,0.0,0.0,0.0,0.0,0.0,0.0,0.0,0.0,0.0,0.0,0.0,1.34,1.2621,0.7617,0.4266,0.2546,0.1131,0.0,0.0284,0.0,0.0,0.0,0.0,0.0,0.0,0.0,0.0,0.0,0.0,0.0,0.0,0.0,0.0,0.0,0.0,0.0,0.0,0.0,0.0,0.0,0.0,0.0,0.0,0.0,0.0,0.0,0.0,0.0,0.0,0.0,0.0,0.0,0.0,0.0,0.0,0.0,0.0,0.0,0.0,0.0,0.0,0.0,0.0,0.0,0.0,0.0,0.0,0.0,0.0,0.0,0.0,0.0,0.0,0.0,0.0,0.0,0.0,0.0,0.0,0.0,0.0,0.0,0.0,0.0,0.0,0.0,0.0,0.0,0.0,0.0,0.0,0.0,0.0,0.0,0.0,0.0,0.0,0.0,0.0,0.0,0.0,0.0,0.0,0.0,0.0,0.0,0.0,0.0,0.0,0.0,0.0,0.0,0.0,0.0,0.0,0.0,0.0,0.0,0.0,0.0,0.0,0.0,0.0,0.0,0.0,0.0,0.9413,0.6207,0.3148,0.1584,0.1056,0.0264,0.0,0.0,0.0,0.0,0.0,0.0,0.0,0.0,0.0,0.0,0.0,0.0,0.0,0.0,0.0,0.0,0.0,0.0,0.0,0.0,0.0,0.0,0.0,0.0,0.0,0.0,0.0,0.0,0.0,0.0,0.0,0.0,0.0,0.0,0.0,0.0,0.0,0.0,0.0,0.0,0.0,0.0,0.0,0.0,0.0,0.0,0.0,0.0,0.0,0.0,0.0,0.0,0.0,0.0,0.0,0.0,0.0,0.0,0.0,0.0,0.0,0.0,0.0,0.0,0.0,0.0,0.0,0.0,0.0,0.0,0.0,0.0,0.0,0.0,0.0,0.0,0.0,0.0,0.0,0.0,0.0,0.0,0.0,0.0,0.0,0.0,0.0,0.0,0.0,0.0,0.0,0.0,0.0,0.0,0.0,0.0,0.0,0.0,0.0,0.0,0.0,0.0,0.0,0.0,0.0,0.0,0.0,0.0,0.0,0.499,0.0,0.0,0.0,0.0,0.0,0.0,0.0,0.0,0.0,0.0,0.0,0.0,0.0,0.0,0.0,0.0,0.0,0.0,0.0,0.0,0.0,0.0,0.0,0.0,0.0,0.0,0.0,0.0,0.0,0.0,0.0,0.0,0.0,0.0,0.0,0.0,0.0,0.0,0.0,0.0,0.0,0.0,0.0,0.0,0.0,0.0,0.0,0.0,0.0,0.0,0.0,0.0,0.0,0.0,0.0,0.0,0.0,0.0,0.0,0.0,0.0,0.0,0.0,0.0,0.0,0.0,0.0,0.0,0.0,0.0,0.0,0.0,0.0,0.0,0.0,0.0,0.0,0.0,0.0,0.0,0.0,0.0,0.0,0.0,0.0,0.0,0.0,0.0,0.0,0.0,0.0,0.0,0.0,0.0,-0.0909,-0.1509,-0.1524,-0.0611,0.0,0.0,0.0,-0.0,0.0,-0.062,-0.0619,-0.1228,-0.1193,0.0,0.0,0.0,0.0,0.0,0.0,0.0,0.0,0.0,0.0,0.0,0.0,0.0,0.0,0.0,0.0,0.0,0.0,0.0,0.0,0.0,0.0,0.0,0.0,0.0,0.0,0.0,0.0,0.0,0.0,0.0,0.0,0.0,0.0,0.0,0.0,0.0,0.0,0.0,0.0,0.0,0.0,0.0,0.0,0.0,0.0,0.0,0.0,0.0,0.0,0.0,0.0,0.0,0.0,0.0,0.0,0.0,0.0,0.0,0.0,0.0,0.0,0.0,0.0,0.0,0.0,0.0,0.0,0.0,0.0,0.0,0.0,0.0,0.0,0.0,0.0,0.0,0.0,0.0,0.0,0.0,0.0,0.0,0.0,0.0,0.0,0.0,0.0,0.0,0.0,0.0,0.0,0.0,0.0,0.0,0.0,0.0,0.0,0.0,0.0,0.0,0.0,-0.2628,-0.4696,-0.4554,0.0,0.0,0.0,0.0,-0.059,-0.177,-0.2069,-0.2346,-0.3723,-0.3979,-0.3121,0.0,0.0,0.0,0.0,0.0,-0.0568,0.0,0.0,0.0,0.0,0.0,0.0,0.0,0.0,0.0,0.0,0.0,0.0,0.0,0.0,0.0,0.0,0.0,0.0,0.0,0.0,0.0,0.0,0.0,0.0,0.0,0.0,0.0,0.0,0.0,0.0,0.0,0.0,0.0,0.0,0.0,0.0,0.0,0.0,0.0,0.0,0.0,0.0,0.0,0.0,0.0,0.0,0.0,0.0,0.0,0.0,0.0,0.0,0.0,0.0,0.0,0.0,0.0,0.0,0.0,0.0,0.0,0.0,0.0,0.0,0.0,0.0,0.0,0.0,0.0,0.0,0.0,0.0,0.0,0.0,0.0,0.0,0.0,0.0,0.0,0.0,0.0,0.0,0.0,0.0,0.0,0.0,0.0,0.0,0.0,0.0,0.0,0.0,0.0,0.0,0.0,0.0,-0.4879,-0.4651,-0.2023,-0.0287,-0.1438,-0.1437,-0.1437,-0.2012,0.0,0.0,-0.3803,-0.2693,-0.1616,-0.2424,-0.2673,-0.2665,-0.2688,-0.2693,-0.2707,0.0,0.0,0.0,0.0,0.0,0.0,0.0,0.0,0.0,0.0,0.0,0.0,0.0,0.0,0.0,0.0,0.0,0.0,0.0,0.0,0.0,0.0,0.0,0.0,0.0,0.0,0.0,0.0,0.0,0.0,0.0,0.0,0.0,0.0,0.0,0.0,0.0,0.0,0.0,0.0,0.0,0.0,0.0,0.0,0.0,0.0,0.0,0.0,0.0,0.0,0.0,0.0,0.0,0.0,0.0,0.0,0.0,0.0,0.0,0.0,0.0,0.0,0.0,0.0,0.0,0.0,0.0,0.0,0.0,0.0,0.0,0.0,0.0,0.0,0.0,0.0,0.0,0.0,0.0,0.0,0.0,0.0,0.0,0.0,0.0,0.0,0.0,0.0,0.0,0.0,0.0,0.0,0.0,0.0,0.0,0.0,0.0,0.0,0.0,0.0,0.0,0.0,0.0,0.0,0.0,-0.2981,-0.3901,-0.2591,-0.1816,-0.3615,0.0,0.0,0.0,0.0,0.0,0.0,0.0,0.0,0.0,0.0,0.0,0.0,0.0,0.0,0.0,0.0,0.0,0.0,0.0,0.0,0.0,0.0,0.0,0.0,0.0,0.0,0.0,0.0,0.0,0.0,0.0,0.0,0.0,0.0,0.0,0.0,0.0,0.0,0.0,0.0,0.0,0.0,0.0,0.0,0.0,0.0,0.0,0.0,0.0,0.0,0.0,0.0,0.0,0.0,0.0,0.0,0.0,0.0,0.0,0.0,0.0,0.0,0.0,0.0,0.0,0.0,0.0,0.0,0.0,0.0,0.0,0.0,0.0,0.0,0.0,0.0,0.0,0.0,0.0,0.0,0.0,0.0,0.0,0.0,0.0,0.0,0.0,0.0,0.0,0.0,0.0,0.0,0.0,0.0,0.0,0.0,0.0,0.0,-0.108,-0.3879,-0.4402,-0.4402,0.0,0.0,0.0,0.0,0.0,0.0,0.0,0.0,0.0,0.0,0.0,0.0,0.0,0.0,0.0,0.0,0.0,0.0,0.0,0.0,0.0,0.0,0.0,0.0,0.0,0.0,0.0,0.0,0.0,0.0,0.0,0.0,0.0,0.0,0.0,0.0,0.0,0.0,0.0,0.0,0.0,0.0,0.0,0.0,0.0,0.0,0.0,0.0,0.0,0.0,0.0,0.0,0.0,0.0,0.0,0.0,0.0,0.0,0.0,0.0,0.0,0.0,0.0,0.0,0.0,0.0,0.0,0.0,0.0,0.0,0.0,0.0,0.0,0.0,0.0,0.0,0.0,0.0,0.0,0.0,0.0,0.0,0.0,0.0,0.0,0.0,0.0,0.0,0.0,0.0,0.0,0.0,0.0,-0.0217,-0.0877,0.0,0.0,0.0,0.0,0.0,0.0,0.0,0.0,0.0,0.0,-0.0252,-0.1276,-0.052,-0.0263,-0.1306,-0.24,-0.3252,-0.406,-0.4314,-0.4314,-0.4349,0.0,0.0,0.0,0.0,0.0,0.0,0.0,0.0,0.0,0.0,0.0,0.0,0.0,0.0,0.0,0.0,0.0,0.0,0.0,0.0,0.0,0.0,0.0,0.0,0.0,0.0,0.0,0.0,0.0,0.0,0.0,0.0,0.0,0.0,0.0,0.0,0.0,0.0,0.0,0.0,0.0,0.0,0.0,0.0,0.0,0.0,0.0,0.0,0.0,0.0,0.0,0.0,0.0,0.0,0.0,0.0,0.0,0.0,0.0,0.0,0.0,0.0,0.0,0.0,0.0,0.0,0.0,0.0,0.0,0.0,0.0,0.0,0.0,0.0,0.0,0.0,0.0,0.0,0.0,0.0,0.0,0.0,0.0,0.0,0.0,0.0,0.0,0.0,0.0,0.0,0.0,-0.0201,-0.0617,-0.125,0.0,0.0,0.0,0.0,0.0,0.0,0.0,0.0,0.0,0.0,-0.1724,-0.1988,-0.1768,0.0,0.0,-0.3622,-0.419,-0.4176,-0.4176,-0.4176,-0.4176,-0.4163,0.0,0.0,0.0,0.0,0.0,0.0,0.0,0.0,0.0,0.0,0.0,0.0,0.0,0.0,0.0,0.0,0.0,0.0,0.0,0.0,0.0,0.0,0.0,0.0,0.0,0.0,0.0,0.0,0.0,0.0,0.0,0.0,0.0,0.0,0.0,0.0,0.0,0.0,0.0,0.0,0.0,0.0,0.0,0.0,0.0,0.0,0.0,0.0,0.0,0.0,0.0,0.0,0.0,0.0,0.0,0.0,0.0,0.0,0.0,0.0,0.0,0.0,0.0,0.0,0.0,0.0,0.0,0.0,0.0,0.0,0.0,0.0,0.0,0.0,0.0,0.0,0.0,0.0,0.0,0.0,0.0,0.0,0.0,0.0,0.0,0.0,0.0,0.0,0.0,0.0,0.0,0.0,0.0,0.0,0.0,0.0,0.0,0.0,0.0,0.0,0.0,0.0,0.0,-0.3425,-0.2206,-0.3191,-0.3946,0.0,-0.3959,-0.3946,-0.3999,-0.4007,-0.4007,-0.4007,0.0,0.0,0.0,0.0,0.0,0.0,0.0,0.0,0.0,0.0,0.0,0.0,0.0,0.0,0.0,0.0,0.0,0.0,0.0,0.0,0.0,0.0,0.0,0.0,0.0,0.0,0.0,0.0,0.0,0.0,0.0,0.0,0.0,0.0,0.0,0.0,0.0,0.0,0.0,0.0,0.0,0.0,0.0,0.0,0.0,0.0,0.0,0.0,0.0,0.0,0.0,0.0,0.0,0.0,0.0,0.0,0.0,0.0,0.0,0.0,0.0,0.0,0.0,0.0,0.0,0.0,0.0,0.0,0.0,0.0,0.0,0.0,0.0,0.0,0.0,0.0,0.0,0.0,0.0,0.0,0.0,0.0,0.0,0.0,0.0,0.0,0.0,0.0,0.0,0.0,0.0,0.0,0.0,0.0,0.0,0.0,0.0,0.0,0.0,0.0,0.0,0.0,0.0,0.0,-0.3763,-0.3369,-0.3655,-0.3917,0.0,0.0,-0.398,-0.3951,-0.3946,-0.3946,0.0,0.0,0.0,0.0,0.0,0.0,0.0,0.0,0.0,0.0,0.0,0.0,0.0,0.0,0.0,0.0,0.0,0.0,0.0,0.0,0.0,0.0,0.0,0.0,0.0,0.0,0.0,0.0,0.0,0.0,0.0,0.0,0.0,0.0,0.0,0.0,0.0,0.0,0.0,0.0,0.0,0.0,0.0,0.0,0.0,0.0,0.0,0.0,0.0,0.0,0.0,0.0,0.0,0.0,0.0,0.0,0.0,0.0,0.0,0.0,0.0,0.0,0.0,0.0,0.0,0.0,0.0,0.0,0.0,0.0,0.0,0.0,0.0,0.0,0.0,0.0,0.0,0.0,0.0,0.0,0.0,0.0,0.0,0.0,0.0,0.0,0.0,0.0,0.0,0.0,0.0,0.0,0.0,0.0,0.0,0.0,0.0,0.0,0.0,0.0,0.0,0.0,0.0,0.0,0.0,0.0,-0.3755,-0.3813,0.0,0.0,0.0,-0.3927,-0.3893,0.0,0.0,0.0,0.0,0.0,0.0,0.0,0.0,0.0,0.0,0.0,0.0,0.0,0.0,0.0,0.0,0.0,0.0,0.0,0.0,0.0,0.0,0.0,0.0,0.0,0.0,0.0,0.0,0.0,0.0,0.0,0.0,0.0,0.0,0.0,0.0,0.0,0.0,0.0,0.0,0.0,0.0,0.0,0.0,0.0,0.0,0.0,0.0,0.0,0.0,0.0,0.0,0.0,0.0,0.0,0.0,0.0,0.0,0.0,0.0,0.0,0.0,0.0,0.0,0.0,0.0,0.0,0.0,0.0,0.0,0.0,0.0,0.0,0.0,0.0,0.0,0.0,0.0,0.0,0.0,0.0,0.0,0.0,0.0,0.0,0.0,0.0,0.0,0.0,0.0,0.0,0.0,0.0,0.0,0.0,0.0,0.0,0.0,0.0,0.0,0.0,0.0,0.0,0.0,0.0,0.0,0.0,-0.3877,-0.3662,-0.3942,-0.4209,0.0,0.0,-0.4776,-0.4773,-0.471,0.0,0.0,0.0,0.0,0.0,0.0,0.0,0.0,0.0,0.0,0.0,0.0,0.0,0.0,0.0,0.0,0.0,0.0,0.0,0.0,0.0,0.0,0.0,0.0,0.0,0.0,0.0,0.0,0.0,0.0,0.0,0.0,0.0,0.0,0.0,0.0,0.0,0.0,0.0,0.0,0.0,0.0,0.0,0.0,0.0,0.0,0.0,0.0,0.0,0.0,0.0,0.0,0.0,0.0,0.0,0.0,0.0,0.0,0.0,0.0,0.0,0.0,0.0,0.0,0.0,0.0,0.0,0.0,0.0,0.0,0.0,0.0,0.0,0.0,0.0,0.0,0.0,0.0,0.0,0.0,0.0,0.0,0.0,0.0,0.0,0.0,0.0,0.0,0.0,0.0,0.0,0.0,0.0,0.0,0.0,0.0,0.0,0.0,0.0,0.0,0.0,0.0,0.0,0.0,0.0,0.0,-0.3781,-0.3652,-0.5279,0.0,0.0,0.0,0.0,-0.9219,-0.9421,0.0,0.0,0.0,0.0,0.0,0.0,0.0,0.0,0.0,0.0,0.0,0.0,0.0,0.0,0.0,0.0,0.0,0.0,0.0,0.0,0.0,0.0,0.0,0.0,0.0,0.0,0.0,0.0,0.0,0.0,0.0,0.0,0.0,0.0,0.0,0.0,0.0,0.0,0.0,0.0,0.0,0.0,0.0,0.0,0.0,0.0,0.0,0.0,0.0,0.0,0.0,0.0,0.0,0.0,0.0,0.0,0.0,0.0,0.0,0.0,0.0,0.0,0.0,0.0,0.0,0.0,0.0,0.0,0.0,0.0,0.0,0.0,0.0,0.0,0.0,0.0,0.0,0.0,0.0,0.0,0.0,0.0,0.0,0.0,0.0,0.0,0.0,0.0,0.0,0.0,0.0,0.0,0.0,0.0,0.0,0.0,0.0,0.0,0.0,0.0,0.0,0.0,0.0,0.0,0.0,-0.3595,-0.4072,-0.5061,0.0,0.0,0.0,0.0,0.0,0.0,-1.3987,-1.4742,0.0,0.0,0.0,0.0,0.0,0.0,0.0,0.0,0.0,0.0,0.0,0.0,0.0,0.0,0.0,0.0,0.0,0.0,0.0,0.0,0.0,0.0,0.0,0.0,0.0,0.0,0.0,0.0,0.0,0.0,0.0,0.0,0.0,0.0,0.0,0.0,0.0,0.0,0.0,0.0,0.0,0.0,0.0,0.0,0.0,0.0,0.0,0.0,0.0,0.0,0.0,0.0,0.0,0.0,0.0,0.0,0.0,0.0,0.0,0.0,0.0,0.0,0.0,0.0,0.0,0.0,0.0,0.0,0.0,0.0,0.0,0.0,0.0,0.0,0.0,0.0,0.0,0.0,0.0,0.0,0.0,0.0,0.0,0.0,0.0,0.0,0.0,0.0,0.0,0.0,0.0,0.0,0.0,0.0,0.0,0.0,0.0,0.0,0.0,0.0,0.0,0.0,0.0,0.0,-0.3848,-0.4952,0.0,0.0,0.0,0.0,0.0,0.0,0.0,0.0,-1.7059,0.0,0.0,0.0,0.0,0.0,0.0,0.0,0.0,0.0,0.0,0.0,0.0,0.0,0.0,0.0,0.0,0.0,0.0,0.0,0.0,0.0,0.0,0.0,0.0,0.0,0.0,0.0,0.0,0.0,0.0,0.0,0.0,0.0,0.0,0.0,0.0,0.0,0.0,0.0,0.0,0.0,0.0,0.0,0.0,0.0,0.0,0.0,0.0,0.0,0.0,0.0,0.0,0.0,0.0,0.0,0.0,0.0,0.0,0.0,0.0,0.0,0.0,0.0,0.0,0.0,0.0,0.0,0.0,0.0,0.0,0.0,0.0,0.0,0.0,0.0,0.0,0.0,0.0,0.0,0.0,0.0,0.0,0.0,0.0,0.0,0.0,0.0,0.0,0.0,0.0,0.0,0.0,0.0,0.0,0.0,0.0,0.0,0.0,0.0,0.0,0.0,0.0,0.0,-0.3173,-0.5275,0.0,0.0,0.0,0.0,0.0,0.0,0.0,0.0,-1.6912,0.0,0.0,0.0,0.0,0.0,0.0,0.0,0.0,0.0,0.0,0.0,0.0,0.0,0.0,0.0,0.0,0.0,0.0,0.0,0.0,0.0,0.0,0.0,0.0,0.0,0.0,0.0,0.0,0.0,0.0,0.0,0.0,0.0,0.0,0.0,0.0,0.0,0.0,0.0,0.0,0.0,0.0,0.0,0.0,0.0,0.0,0.0,0.0,0.0,0.0,0.0,0.0,0.0,0.0,0.0,0.0,0.0,0.0,0.0,0.0,0.0,0.0,0.0,0.0,0.0,0.0,0.0,0.0,0.0,0.0,0.0,0.0,0.0,0.0,0.0,0.0,0.0,0.0,0.0,0.0,0.0,0.0,0.0,0.0,0.0,0.0,0.0,0.0,0.0,0.0,0.0,0.0,0.0,0.0,0.0,0.0,0.0,0.0,0.0,0.0,0.0,0.0,0.0,0.0,0.0,0.0,0.0,0.0,0.0,0.0,0.0,0.0,0.0,0.0,0.0,0.0,0.0,0.0,0.0,0.0,0.0,0.0,0.0,0.0,0.0,0.0,0.0,0.0,0.0,0.0,0.0,0.0,0.0,0.0,0.0,0.0,0.0,0.0,0.0,0.0,0.0,0.0,0.0,0.0,0.0,0.0,0.0,0.0,0.0,0.0,0.0,0.0,0.0,0.0,0.0,0.0,0.0,0.0,0.0,0.0,0.0,0.0,0.0,0.0,0.0,0.0,0.0,0.0,0.0,0.0,0.0,0.0,0.0,0.0,0.0,0.0,0.0,0.0,0.0,0.0,0.0,0.0,0.0,0.0,0.0,0.0,0.0,0.0,0.0,0.0,0.0,0.0,0.0,0.0,0.0,0.0,0.0,0.0,0.0,0.0,0.0,0.0,0.0,0.0,0.0,0.0,0.0,0.0,0.0,0.0,0.0,0.0,0.0,0.0,0.0,0.0,0.0,0.0,0.0,0.0,0.0,0.0,0.0,0.0,0.0,0.0,0.0,0.0,-1.5603,0.0,0.0,0.0,0.0,0.0,0.0,0.0,0.0,0.0,0.0,0.0,0.0,0.0,0.0,0.0,0.0,0.0,0.0,0.0,0.0,0.0,0.0,0.0,0.0,0.0,0.0,0.0,0.0,0.0,0.0,0.0,0.0,0.0,0.0,0.0,0.0,0.0,0.0,0.0,0.0,0.0,0.0,0.0,0.0,0.0,0.0,0.0,0.0,0.0,0.0,0.0,0.0,0.0,0.0,0.0,0.0,0.0,0.0,0.0,0.0,0.0,0.0,0.0,0.0,0.0,0.0,0.0,0.0,0.0,0.0,0.0,0.0,0.0,0.0,0.0,0.0,0.0,0.0,0.0,0.0,0.0,0.0,0.0,0.0,0.0,0.0,0.0,0.0,0.0,0.0,0.0,0.0,0.0,0.0,0.0,0.0,0.0,0.0,0.0,0.0,0.0,0.0,0.0,0.0,0.0,0.0,0.0,0.0,0.0,0.0,0.0,0.0,0.0,0.0,0.0,0.0,0.0,0.0,0.0,0.0,0.0,0.0,0.0,0.0,0.0,0.0,0.0,0.0,0.0,0.0,0.0,0.0,0.0,0.0,0.0,0.0,0.0,0.0,0.0,0.0,0.0,0.0,0.0,0.0,0.0,0.0,0.0,0.0,0.0,0.0,0.0,0.0,0.0,0.0,0.0,0.0,0.0,0.0,0.0,0.0,0.0,0.0,0.0,0.0,0.0,0.0,0.0,0.0,0.0,0.0,0.0,0.0,0.0,0.0,0.0,0.0,0.0,0.0,0.0,0.0,0.0,0.0,0.0,0.0,0.0,0.0,0.0,0.0,0.0,0.0,0.0,0.0,0.0,0.0,0.0,0.0,0.0,0.0,0.0,0.0,0.0,0.0,0.0,0.0,0.0,0.0,0.0,0.0,0.0,0.0,0.0,0.0,0.0,0.0,0.0,0.0,0.0,0.0,0.0,0.0,0.0,0.0,0.0,0.0,0.0,0.0,0.0,0.0,0.0,0.0,0.0,0.0,0.0,0.0,0.0,0.0,0.0,0.0,0.0,0.0,0.0,0.0,0.0,0.0,0.0,0.0,0.0,0.0,0.0,0.0,0.0,0.0,0.0,0.0,0.0,0.0,0.0,0.0,0.0,0.0,0.0,0.0,0.0,0.0,0.0,0.0,0.0,0.0,0.0,0.0,0.0,0.0,0.0,0.0,0.0,0.0,0.0,0.0,0.0,0.0,0.0,0.0,0.0,0.0,0.0,0.0,0.0,0.0,0.0,0.0,0.0,0.0,0.0,0.0,0.0,0.0,0.0,0.0,0.0,0.0,0.0,0.0,0.0,0.0,0.0,0.0,0.0,0.0,0.0,0.0,0.0,0.0,0.0,0.0,0.0,0.0,0.0,0.0,0.0,0.0,0.0,0.0,0.0,0.0,0.0,0.0,0.0,0.0,0.0,0.0,0.0,0.0,0.0,0.0,0.0,0.0,0.0,0.0,0.0,0.0,0.0,0.0,0.0,0.0,0.0,0.0,0.0,0.0,0.0,0.0,0.0,0.0,0.0,0.0,0.0,0.0,0.0,0.0,0.0,0.0,0.0,0.0,0.0,0.0,0.0,0.0,0.0,0.0,0.0,0.0,0.0,0.0,0.0,0.0,0.0,0.0,0.0,0.0,0.0,0.0,0.0,0.0,0.0,0.0,0.0,0.0,0.0,0.0,0.0,0.0,0.0,0.0,0.0,0.0,0.0,0.0,0.0,0.0,0.0,0.0,0.0,0.0,0.0,0.0,0.0,0.0,0.0,0.0,0.0,0.0,0.0,0.0,0.0,0.0,0.0,0.0,0.0,0.0,0.0,0.0,0.0,0.0,0.0,0.0,0.0,0.0,0.0,0.0,0.0,0.0,0.0,0.0,0.0,0.0,0.0,0.0,0.0,0.0,0.0,0.0,0.0,0.0,0.0,0.0,0.0,0.0,0.0,0.0,0.0,0.0,0.0,0.0,0.0,0.0,0.0,0.0,0.0,0.0,0.0,0.0,0.0,0.0,0.0,0.0,0.0,0.0,0.0,0.0,0.0,0.0,0.0,0.0,0.0,0.0,0.0,0.0,0.0,0.0,0.0,0.0,0.0,0.0,0.0,0.0,0.0,0.0,0.0,0.0,0.0,0.0,0.0,0.0,0.0,0.0,0.0,0.0,0.0,0.0,0.0,0.0,0.0,0.0,0.0,0.0,0.0,0.0,0.0,0.0,0.0,0.0,0.0,0.0,0.0,0.0,0.0,0.0,0.0,0.0,0.0,0.0,0.0,0.0,0.0,0.0,0.0,0.0,0.0,0.0,0.0,0.0,0.0,0.0,0.0,0.0,0.0,0.0,0.0,0.0,0.0,0.0,0.0,0.0,0.0,0.0,0.0,0.0,0.0,0.0,0.0,0.0,0.0,0.0,0.0,0.0,0.0,0.0,0.0,0.0,0.0,0.0,0.0,0.0,0.0,0.0,0.0,0.0,0.0,0.0,0.0,0.0,0.0,0.0,0.0,0.0,0.0,0.0,0.0,0.0,0.0,0.0,0.0,0.0,0.0,0.0,0.0,0.0,0.0,0.0,0.0,0.0,0.0,0.0,0.0,0.0,0.0,0.0,0.0,0.0,0.0,0.0,0.0,0.0,0.0,0.0,0.0,0.0,0.0,0.0,0.0,0.0,0.0,0.0,0.0,0.0,0.0,0.0,0.0,0.0,0.0,0.0,0.0,0.0,0.0,0.0,0.0,0.0,0.0,0.0,0.0,0.0,0.0,0.0,0.0,0.0,0.0,0.0,0.0,0.0,0.0,0.0,0.0,0.0,0.0,0.0,0.0,0.0,0.0,0.0,0.0,0.0,0.0,0.0,0.0,0.0,0.0,0.0,0.0,0.0,0.0,0.0,0.0,0.0,0.0,0.0,0.0,0.0,0.0,0.0,0.0,0.0,0.0,0.0,0.0,0.0,0.0,0.0,0.0,0.0,0.0,0.0,0.0,0.0,0.0,0.0,0.0,0.0,0.0,0.0,0.0,0.0,0.0,0.0,0.0,0.0,0.0,0.0,0.0,0.0,0.0,0.0,0.0,0.0,0.0,0.0,0.0,0.0,0.0,0.0,0.0,0.0,0.0,0.0,0.0,0.0,0.0,0.0,0.0,0.0,0.0,0.0,0.0,0.0,0.0,0.0,0.0,0.0,0.0,0.0,0.0,0.0,0.0,0.0,0.0,0.0,0.0,0.0,0.0,0.0,0.0,0.0,0.0,0.0,0.0,0.0,0.0,0.0,0.0,0.0,0.0,0.0,0.0,0.0,0.0,0.0,0.0,0.0,0.0,0.0,0.0,0.0,0.0,0.0,0.0,0.0,0.0,0.0,0.0,0.0,0.0,0.0,0.0,0.0,0.0,0.0,0.0,0.0,0.0,0.0,0.0,0.0,0.0,0.0,0.0,0.0,0.0,0.0,0.0,0.0,0.0,0.0,0.0,0.0,0.0,0.0,0.0,0.0,0.0,0.0,0.0,0.0,0.0,0.0,0.0,0.0,0.0,0.0,0.0,0.0,0.0,0.0,0.0,0.0,0.0,0.0,0.0,0.0,0.0,0.0,0.0,0.0,0.0,0.0,0.0,0.0,0.0,0.0,0.0,0.0,0.0,0.0,0.0,0.0,0.0,0.0,0.0,0.0,0.0,0.0,0.0,0.0,0.0,0.0,0.0,0.0,0.0,0.0,0.0,0.0,0.0,0.0,0.0,0.0,0.0,0.0,0.0,0.0,0.0,0.0,0.0,0.0,0.0,0.0,0.0,0.0,0.0,0.0,0.0,0.0,0.0,0.0,0.0,0.0,0.0,0.0,0.0,0.0,0.0,0.0,0.0,0.0,0.0,0.0,0.0,0.0,0.0,0.0,0.0,0.0,0.0,0.0,0.0,0.0,0.0,0.0,0.0,0.0,0.0,0.0,0.0,0.0,0.0,0.0,0.0,0.0,0.0,0.0,0.0,0.0,0.0,0.0,0.0,0.0,0.0,0.0,0.0,0.0,0.0,0.0,0.0,0.0,0.0,0.0,0.0,0.0,0.0,0.0,0.0,0.0,0.0,0.0,0.0,0.0,0.0,0.0,0.0,0.0,0.0,0.0,0.0,0.0,0.0,0.0,0.0,0.0,0.0,0.0,0.0,0.0,0.0,0.0,0.0,0.0,0.0,0.0,0.0,0.0,0.0,0.0,0.0,0.0,0.0,0.0,0.0,0.0,0.0,0.0,0.0,0.0,0.0,0.0,0.0,0.0,0.0,0.0,0.0,0.0,0.0,0.0,0.0,0.0,0.0,0.0,0.0,0.0,0.0,0.0,0.0,0.0,0.0,0.0,0.0,0.0,0.0,0.0,0.0,0.0,0.0,0.0,0.0,0.0,0.0,0.0,0.0,0.0,0.0,0.0,0.0,0.0,0.0,0.0,0.0,0.0,0.0,0.0,0.0,0.0,0.0,0.0,0.0,0.0,0.0,0.0,0.0,0.0,0.0,0.0,0.0,0.0,0.0,0.0,0.0,0.0,0.0,0.0,0.0,0.0,0.0,0.0,0.0,0.0,0.0,0.0,0.0,0.0,0.0,0.0,0.0,0.0,0.0,0.0,0.0,0.0,0.0,0.0,0.0,0.0,0.0,0.0,0.0,0.0,0.0,0.0,0.0,0.0,0.0,0.0,0.0,0.0,0.0,0.0,0.0,0.0,0.0,0.0,0.0,0.0,0.0,0.0,0.0,0.0,0.0,0.0,0.0,0.0,0.0,0.0,0.0,0.0,0.0,0.0,0.0,0.0,0.0,0.0,0.0,0.0,0.0,0.0,0.0,0.0,0.0,0.0,0.0,0.0,0.0,0.0,0.0,0.0,0.0,0.0,0.0,0.0,0.0,0.0,0.0,0.0,0.0,0.0,0.0,0.0,0.0,0.0,0.0,0.0,0.0,0.0,0.0,0.0,0.0,0.0,0.0,0.0,0.0,0.0,0.0,0.0,0.0,0.0,0.0,0.0,0.0,0.0,0.0,0.0,0.0,0.0,0.0,0.0,0.0,0.0,0.0,0.0,0.0,0.0,0.0,0.0,0.0,0.0,0.0,0.0,0.0,0.0,0.0,0.0,0.0,0.0,0.0,0.0,0.0,0.0,0.0,0.0,0.0,0.0,0.0,0.0,0.0,0.0,0.0,0.0,0.0,0.0,0.0,0.0,0.0,0.0,0.0,0.0,0.0,0.0,0.0,0.0,0.0,0.0,0.0,0.0,0.0,0.0,0.0,0.0,0.0,0.0,0.0,0.0,0.0,0.0,0.0,0.0,0.0,0.0,0.0,0.0,0.0,0.0,0.0,-0.0763,-0.231,0.0,0.0,0.0,0.0,0.0,0.0,0.0,0.0,0.0,0.0,0.0,0.0,0.0,0.0,0.0,0.0,0.0,0.0,0.0,0.0,0.0,0.0,0.0,0.0,0.0,0.0,0.0,0.0,0.0,0.0,0.0,0.0,0.0,0.0,0.0,0.0,0.0,0.0,0.0,0.0,0.0,0.0,0.0,0.0,0.0,0.0,0.0,0.0,0.0,0.0,0.0,0.0,0.0,0.0,0.0,0.0,0.0,0.0,0.0,0.0,0.0,0.0,0.0,0.0,0.0,0.0,0.0,0.0,0.0,0.0,0.0,0.0,0.0,0.0,0.0,0.0,0.0,0.0,0.0,0.0,0.0,0.0,0.0,0.0,0.0,0.0,0.0,0.0,0.0,0.0,0.0,0.0,0.0,0.0,0.0,0.0,0.0,0.0,0.0,0.0,0.0,0.0,0.0,0.0,0.0,0.0,0.0,0.0,0.0,0.0,0.0,0.0,0.0,-0.0564,0.0,0.0,0.0,0.0,0.0,0.0,0.0,0.0,0.0,0.0,0.0,0.0,0.0,0.0,0.0,0.0,0.0,0.0,0.0,0.0,0.0,0.0,0.0,0.0,0.0,0.0,0.0,0.0,0.0,0.0,0.0,0.0,0.0,0.0,0.0,0.0,0.0,0.0,0.0,0.0,0.0,0.0,0.0,0.0,0.0,0.0,0.0,0.0,0.0,0.0,0.0,0.0,0.0,0.0,0.0,0.0,0.0,0.0,0.0,0.0,0.0,0.0,0.0,0.0,0.0,0.0,0.0,0.0,0.0,0.0,0.0,0.0,0.0,0.0,0.0,0.0,0.0,0.0,0.0,0.0,0.0,0.0,0.0,0.0,0.0,0.0,0.0,0.0,0.0,0.0,0.0,0.0,0.0,0.0,0.0,0.0,0.0,0.0,0.0,0.0,0.0,0.0,0.0,0.0,0.0,0.0,0.0,0.0,0.0,0.0,0.0,-0.0,-0.019,0.0,0.0,-0.0369,0.0,0.0,0.0,0.0,0.0,0.0,0.0,0.0,0.0,0.0,0.0,0.0,0.0,0.0,0.0,0.0,0.0,0.0,0.0,0.0,0.0,0.0,0.0,0.0,0.0,0.0,0.0,0.0,0.0,0.0,0.0,0.0,0.0,0.0,0.0,0.0,0.0,0.0,0.0,0.0,0.0,0.0,0.0,0.0,0.0,0.0,0.0,0.0,0.0,0.0,0.0,0.0,0.0,0.0,0.0,0.0,0.0,0.0,0.0,0.0,0.0,0.0,0.0,0.0,0.0,0.0,0.0,0.0,0.0,0.0,0.0,0.0,0.0,0.0,0.0,0.0,0.0,0.0,0.0,0.0,0.0,0.0,0.0,0.0,0.0,0.0,0.0,0.0,0.0,0.0,0.0,0.0,0.0,0.0,0.0,0.0,0.0,0.0,0.0,0.0,0.0,0.0,0.0,0.0,0.0,0.0,0.0,0.0,0.0,0.0,0.0,0.0,-0.2442,-0.2238,-0.2127,0.0,0.0,0.0,0.0,0.0,0.0,0.0,0.0,0.0,0.0,0.0,0.0,0.0,0.0,0.0,0.0,0.0,0.0,0.0,0.0,0.0,0.0,0.0,0.0,0.0,0.0,0.0,0.0,0.0,0.0,0.0,0.0,0.0,0.0,0.0,0.0,0.0,0.0,0.0,0.0,0.0,0.0,0.0,0.0,0.0,0.0,0.0,0.0,0.0,0.0,0.0,0.0,0.0,0.0,0.0,0.0,0.0,0.0,0.0,0.0,0.0,0.0,0.0,0.0,0.0,0.0,0.0,0.0,0.0,0.0,0.0,0.0,0.0,0.0,0.0,0.0,0.0,0.0,0.0,0.0,0.0,0.0,0.0,0.0,0.0,0.0,0.0,0.0,0.0,0.0,0.0,0.0,0.0,0.0,0.0,0.0,0.0,0.0,0.0,0.0,0.0,0.0,0.0,0.0,0.0,0.0,0.0,0.0,0.0,0.0,-0.0947,-0.3066,-0.3153,-0.3128,-0.2973,0.0,0.0,0.0,0.0,0.0,0.0,0.0,0.0,0.0,0.0,0.0,0.0,0.0,0.0,0.0,0.0,0.0,0.0,0.0,0.0,0.0,0.0,0.0,0.0,0.0,0.0,0.0,0.0,0.0,0.0,0.0,0.0,0.0,0.0,0.0,0.0,0.0,0.0,0.0,0.0,0.0,0.0,0.0,0.0,0.0,0.0,0.0,0.0,0.0,0.0,0.0,0.0,0.0,0.0,0.0,0.0,0.0,0.0,0.0,0.0,0.0,0.0,0.0,0.0,0.0,0.0,0.0,0.0,0.0,0.0,0.0,0.0,0.0,0.0,0.0,0.0,0.0,0.0,0.0,0.0,0.0,0.0,0.0,0.0,0.0,0.0,0.0,0.0,0.0,0.0,0.0,0.0,0.0,0.0,0.0,0.0,0.0,0.0,0.0,0.0,0.0,0.0,0.0,0.0,0.0,0.0,0.0,0.0,0.0,0.0,0.0,0.0,0.0,0.0,-0.2968,0.0,0.0,0.0,0.0,0.0,0.0,0.0,0.0,0.0,0.0,0.0,0.0,0.0,0.0,0.0,0.0,0.0,0.0,0.0,0.0,0.0,0.0,0.0,0.0,0.0,0.0,0.0,0.0,0.0,0.0,0.0,0.0,0.0,0.0,0.0,0.0,0.0,0.0,0.0,0.0,0.0,0.0,0.0,0.0,0.0,0.0,0.0,0.0,0.0,0.0,0.0,0.0,0.0,0.0,0.0,0.0,0.0,0.0,0.0,0.0,0.0,0.0,0.0,0.0,0.0,0.0,0.0,0.0,0.0,0.0,0.0,0.0,0.0,0.0,0.0,0.0,0.0,0.0,0.0,0.0,0.0,0.0,0.0,0.0,0.0,0.0,0.0,0.0,0.0,0.0,0.0,0.0,0.0,0.0,0.0,0.0,0.0,0.0,0.0,0.0,0.0,0.0,0.0,0.0,0.0,0.0,0.0,0.0,0.0,0.0,0.0,0.0,0.0,0.0,0.0,0.0,0.0,0.0,0.0,0.0,0.0,0.0,0.0,0.0,0.0,0.0,0.0,0.0,0.0,0.0,0.0,0.0,0.0,0.0,0.0,0.0,0.0,0.0,0.0,0.0,0.0,0.0,0.0,0.0,0.0,0.0,0.0,0.0,0.0,0.0,0.0,0.0,0.0,0.0,0.0,0.0,0.0,0.0,0.0,0.0,0.0,0.0,0.0,0.0,0.0,0.0,0.0,0.0,0.0,0.0,0.0,0.0,0.0,0.0,0.0,0.0,0.0,0.0,0.0,0.0,0.0,0.0,0.0,0.0,0.0,0.0,0.0,0.0,0.0,0.0,0.0,0.0,0.0,0.0,0.0,0.0,0.0,0.0,0.0,0.0,0.0,0.0,0.0,0.0,0.0,0.0,0.0,0.0,0.0,0.0,0.0,0.0,0.0,0.0,0.0,0.0,0.0,0.0,0.0,0.0,0.0,0.0,0.0,0.0,0.0,0.0,0.0,0.0,0.0,0.0,0.0,0.0,0.0,0.0,0.0,0.0,0.0,0.0,0.0,0.0,0.0,0.0,0.0,0.0,0.0,0.0,0.0,0.0,0.0,0.0,0.0,0.0,0.0,0.0,0.0,0.0,0.0,0.0,0.0,0.0,0.0,0.0,0.0,0.0,0.0,0.0,0.0,0.0,0.0,0.0,0.0,0.0,0.0,0.0,0.0,0.0,0.0,0.0,0.0,0.0,0.0,0.0,0.0,0.0,0.0,0.0,0.0,0.0,0.0,0.0,0.0,0.0,0.0,0.0,0.0,0.0,0.0,0.0,0.0,0.0,0.0,0.0,0.0,0.0,0.0,0.0,0.0,0.0,0.0,0.0,0.0,0.0,0.0,0.0,0.0,0.0,0.0,0.0,0.0,0.0,0.0,0.0,0.0,0.0,0.0,0.0,0.0,0.0,0.0,0.0,0.0,0.0,0.0,0.0,0.0,0.0,0.0,0.0,0.0,0.0,0.0,0.0,0.0,0.0,0.0,0.0,0.0,0.0,0.0,0.0,0.0,0.0,0.0,0.0,0.0,0.0,0.0,0.0,0.0,0.0,0.0,0.0,0.0,0.0,0.0,0.0,0.0,0.0,0.0,0.0,0.0,0.0,0.0,0.0,0.0,0.0,0.0,0.0,0.0,0.0,0.0,0.0,0.0,0.0,0.0,0.0,0.0,0.0,0.0,0.0,0.0,0.0,0.0,0.0,0.0,0.0,0.0,0.0,0.0,0.0,0.0,0.0,0.0,0.0,0.0,0.0,0.0,0.0,0.0,0.0,0.0,0.0,0.0,0.0,0.0,0.0,0.0,0.0,0.0,0.0,0.0,0.0,0.0,0.0,0.0,0.0,0.0,0.0,0.0,0.0,0.0,0.0,0.0,0.0,0.0,0.0,0.0,0.0,0.0,0.0,0.0,0.0,0.0,0.0,0.0,0.0,0.0,0.0,0.0,0.0,0.0,0.0,0.0,0.0,0.0,0.0,0.0,0.0,0.0,0.0,0.0,0.0,0.0,0.0,0.0,0.0,0.0,0.0,0.0,0.0,0.0,0.0,0.0,0.0,0.0,0.0,0.0,0.0,0.0,0.0,0.0,0.0,0.0,0.0,0.0,0.0,0.0,0.0,0.0,0.0,0.0,0.0,0.0,0.0,0.0,0.0,0.0,0.0,0.0,0.0,0.0,0.0,0.0,0.0,0.0,0.0,0.0,0.0,0.0,0.0,0.0,0.0,0.0,0.0,0.0,0.0,0.0,0.0,0.0,0.0,0.0,0.0,0.0,0.0,0.0,0.0,0.0,0.0,0.0,0.0,0.0,0.0,0.0,0.0,0.0,0.0,0.0,0.0,0.0,0.0,0.0,0.0,0.0,0.0,0.0,0.0,0.0,0.0,0.0,0.0,0.0,0.0,0.0,0.0,0.0,0.0,0.0,0.0,0.0,0.0,0.0,0.0,0.0,0.0,0.0,0.0,0.0,0.0,0.0,0.0,0.0,0.0,0.0,0.0,0.0,0.0,0.0,0.0,0.0,0.0,0.0,0.0,0.0,0.0,0.0,0.0,0.0,0.0,0.0,0.0,0.0,0.0,0.0,0.0,0.0,0.0,0.0,0.0,0.0,0.0,0.0,0.0,0.0,0.0,0.0,0.0,0.0,0.0,0.0,0.0,0.0,0.0,0.0,0.0,0.0,0.0,0.0,0.0,0.0,0.0,0.0,0.0,0.0,0.0,0.0,0.0,0.0,0.0,0.0,0.0,0.0,0.0,0.0,0.0,0.0,0.0,0.0,0.0,0.0,0.0,0.0,0.0,0.0,0.0,0.0,0.0,0.0,0.0,0.0,0.0,0.0,0.0,0.0,0.0,0.0,0.0,0.0,0.0,0.0,0.0,0.0,0.0,0.0,0.0,0.0,0.0,0.0,0.0,0.0,0.0,0.0,0.0,0.0,0.0,0.0,0.0,0.0,0.0,0.0,0.0,0.0,0.0,0.0,0.0,0.0,0.0,0.0,0.0,0.0,0.0,0.0,0.0,0.0,0.0,0.0,0.0,0.0,0.0,0.0,0.0,0.0,0.0,0.0,0.0,0.0,0.0,0.0,0.0,0.0,0.0,0.0,0.0,0.0,0.0,0.0,0.0,0.0,0.0,0.0,0.0,0.0,0.0,0.0,0.0,0.0,0.0,0.0,0.0,0.0,0.0,0.0,0.0,0.0,0.0,0.0,0.0,0.0,0.0,0.0,0.0,0.0,0.0,0.0,0.0,0.0,0.0,0.0,0.0,0.0,0.0,0.0,0.0,0.0,0.0,0.0,0.0,0.0,0.0,0.0,0.0,0.0,0.0,0.0,0.0,0.0,0.0,0.0,0.0,0.0,0.0,0.0,0.0,0.0,0.0,0.0,0.0,0.0,0.0,0.0,0.0,0.0,0.0,0.0,0.0,0.0,0.0,0.0,0.0,0.0,0.0,0.0,0.0,0.0,0.0,0.0,0.0,0.0,0.0,0.0,0.0,0.0,0.0,0.0,0.0,0.0,0.0,0.0,0.0,0.0,0.0,0.0,0.0,0.0,0.0,0.0,0.0,0.0,0.0,0.0,0.0,0.0,0.0,0.0,0.0,0.0,0.0,0.0,0.0,0.0,0.0,0.0,0.0,0.0,0.0,0.0,0.0,0.0,0.0,0.0,0.0,0.0,0.0,0.0,0.0,0.0,0.0,0.0,0.0,0.0,0.0,0.0,0.0,0.0,0.0,0.0,0.0,0.0,0.0,0.0,0.0,0.0,0.0,0.0,0.0,0.0,0.0,0.0,0.0,0.0,0.0,0.0,0.0,0.0,0.0,0.0,0.0,0.0,0.0,0.0,0.0,0.0,0.0,0.0,0.0,0.0,0.0,0.0,0.0,0.0,0.0,0.0,0.0,0.0,0.0,0.0,0.0,0.0,0.0,0.0,0.0,0.0,0.0,0.0,0.0,0.0,0.0,0.0,0.0,0.0,0.0,0.0,0.0,0.0,0.0,0.0,0.0,0.0,0.0,0.0,0.0,0.0,0.0,0.0,0.0,0.0,0.0,0.0,0.0,0.0,0.0,0.0,0.0,0.0,0.0,0.0,0.0,0.0,0.0,0.0,0.0,0.0,0.0,0.0,0.0,0.0,0.0,0.0,0.0,0.0,0.0,0.0,0.0,0.0,0.0,0.0,0.0,0.0,0.0,0.0,0.0,0.0,0.0,0.0,0.0,0.0,0.0,0.0,0.0,0.0,0.0,0.0,0.0,0.0,0.0,0.0,0.0,0.0,0.0,0.0,0.0,0.0,0.0,0.0,0.0,0.0,0.0,0.0,0.0]}]]]